Date StartTime U_cm/s V_cm/s W_cm/s Ustd_cm/s Vstd_cm/s Wstd_cm/s Uvar_(cm/s)^2 Vvar_(cm/s)^2 Wvar_(cm/s)^2 KE_(m/s)^2 TurbulentKE_(m/s)^2 HorizWindSpeed_cm/s FrictionSpeec_cm/s DragCoef SpeedOfSound_m/s SonicTemperature_C Pressure_mb 
08/22/2013  00:00:00       29.490       61.240       -2.360       24.907       40.982       17.274      620.369     1679.487      298.407        0.361        0.130       67.971       20.412        0.090      344.254       20.942      863.401
08/22/2013  00:01:00       36.828       16.471       26.812       44.190       19.669       21.339     1952.785      386.881      455.374        0.257        0.140       40.343       16.648        0.170      344.184       20.822      863.405
08/22/2013  00:02:00       48.946       17.929        2.381       32.234       28.664       19.563     1039.063      821.635      382.708        0.248        0.112       52.127       10.336        0.039      344.148       20.762      863.415
08/22/2013  00:03:00      114.568       99.440       39.034       32.302       25.276       43.105     1043.405      638.885     1858.057        1.404        0.177      151.704       14.910        0.010      344.101       20.680      863.420
08/22/2013  00:04:00      148.603       89.571       36.160       54.451       35.985       33.234     2964.876     1294.892     1104.473        1.839        0.268      173.510       26.511        0.023      343.987       20.485      863.432
08/22/2013  00:05:00      108.341       96.301       62.059       31.282       30.694       40.683      978.563      942.117     1655.085        1.422        0.179      144.954       22.781        0.025      343.962       20.444      863.431
08/22/2013  00:06:00      111.514      100.498       55.922       35.325       27.179       35.146     1247.854      738.686     1235.263        1.444        0.161      150.118       14.481        0.009      344.076       20.638      863.417
08/22/2013  00:07:00      102.522       71.564       50.801       35.902       28.833       30.821     1288.933      831.354      949.921        1.064        0.154      125.028       13.600        0.012      343.933       20.393      863.395
08/22/2013  00:08:00      120.864       77.555       45.492       36.549       24.994       25.273     1335.814      624.685      638.746        1.265        0.130      143.607       18.531        0.017      344.021       20.545      863.384
08/22/2013  00:09:00      117.254       67.671       35.592       33.614       32.830       32.472     1129.895     1077.797     1054.415        1.143        0.163      135.380       19.225        0.020      343.971       20.460      863.382
08/22/2013  00:10:00      132.967       87.017       42.236       40.654       36.022       35.129     1652.732     1297.578     1234.059        1.561        0.209      158.910       19.579        0.015      344.181       20.818      863.377
08/22/2013  00:11:00       60.584       56.434       44.976       48.149       27.314       32.403     2318.279      746.066     1049.925        0.650        0.206       82.796       27.969        0.114      344.137       20.743      863.385
08/22/2013  00:12:00       10.698       29.660       29.221       29.070       30.804       25.397      845.038      948.891      645.012        0.214        0.122       31.530        7.755        0.060      343.895       20.328      863.381
08/22/2013  00:13:00       23.462       10.341       12.728       27.953       44.548       28.646      781.350     1984.515      820.572        0.220        0.179       25.640       25.220        0.968      343.826       20.213      863.382
08/22/2013  00:14:00       48.756      -55.819       -3.366       37.343       28.338       24.559     1394.527      803.059      603.144        0.415        0.140       74.114       12.668        0.029      343.676       19.954      863.375
08/22/2013  00:15:00       53.160      -43.577        4.136       12.822       27.286       25.455      164.413      744.500      647.941        0.315        0.078       68.738       22.475        0.107      343.946       20.416      863.373
08/22/2013  00:16:00        8.367        4.950       21.189       19.507       27.002       15.644      380.538      729.126      244.734        0.095        0.068        9.721       13.833        2.025      344.059       20.610      863.364
08/22/2013  00:17:00        8.360       14.266        6.735       16.783       15.455       19.194      281.668      238.864      368.413        0.060        0.044       16.535        8.699        0.277      343.925       20.379      863.362
08/22/2013  00:18:00      -23.728      -10.382       -0.810       20.798       13.346        6.281      432.573      178.124       39.450        0.066        0.033       25.900        5.374        0.043      344.181       20.818      863.344
08/22/2013  00:19:00      -37.411      -15.403       -1.803       11.679       11.394        8.097      136.394      129.814       65.567        0.099        0.017       40.458        5.124        0.016      344.314       21.046      863.331
08/22/2013  00:20:00       -3.038      -16.104       17.067       20.422       23.060       16.069      417.057      531.769      258.198        0.088        0.060       16.388       16.806        1.052      344.052       20.597      863.306
08/22/2013  00:21:00      -28.602       42.055       -2.031       27.184       21.242       19.751      738.982      451.204      390.118        0.209        0.079       50.859       16.370        0.104      344.057       20.605      863.304
08/22/2013  00:22:00      -56.091       -4.141       -2.522       43.655       48.711       22.916     1905.763     2372.806      525.150        0.399        0.240       56.244       29.348        0.272      344.535       21.423      863.301
08/22/2013  00:23:00       41.058       36.639       13.491       36.014       21.960       26.979     1297.012      482.256      727.888        0.286        0.125       55.028       16.499        0.090      344.136       20.740      863.306
08/22/2013  00:24:00       -0.592       96.064       -7.030       40.049       40.931       20.396     1603.907     1675.348      415.993        0.649        0.185       96.066       27.159        0.080      344.369       21.138      863.302
08/22/2013  00:25:00      -11.287       33.676       -4.386       17.237       28.869       10.759      297.108      833.402      115.753        0.126        0.062       35.518       11.870        0.112      344.357       21.118      863.286
08/22/2013  00:26:00      -30.179      -15.953       -0.779       18.324       17.608        9.296      335.771      310.049       86.424        0.095        0.037       34.136        7.782        0.052      344.195       20.845      863.272
08/22/2013  00:27:00      -67.580       24.527       -3.959       21.012       10.738       11.240      441.495      115.300      126.339        0.293        0.034       71.893        3.172        0.002      344.281       20.990      863.263
08/22/2013  00:28:00      -53.770       22.399       -9.454       14.125       13.634        7.626      199.515      185.875       58.150        0.196        0.022       58.249        4.875        0.007      344.271       20.970      863.253
08/22/2013  00:29:00      -56.175       30.664       -2.727       22.611       34.319       17.548      511.243     1177.810      307.932        0.305        0.100       64.000       10.018        0.025      344.107       20.691      863.248
08/22/2013  00:30:00      -27.675      -15.427        1.292       11.398       13.806        7.596      129.918      190.611       57.696        0.069        0.019       31.684        2.886        0.008      344.007       20.521      863.252
08/22/2013  00:31:00       10.852      -12.572        8.003       19.103        9.172       10.687      364.940       84.120      114.213        0.045        0.028       16.608        6.963        0.176      343.940       20.406      863.252
08/22/2013  00:32:00        3.201       -9.580       11.249       13.286       13.693       11.257      176.522      187.488      126.709        0.036        0.025       10.101        7.381        0.534      343.744       20.070      863.264
08/22/2013  00:33:00       -1.445       -9.579        8.577        8.711       14.339        9.593       75.885      205.611       92.028        0.027        0.019        9.687        9.357        0.933      343.735       20.056      863.287
08/22/2013  00:34:00       -3.944      -37.270        2.161       17.292       11.326        9.484      298.998      128.287       89.943        0.096        0.026       37.478        5.145        0.019      344.019       20.541      863.303
08/22/2013  00:35:00      -23.117      -34.406        7.363       24.388       20.052       17.380      594.773      402.098      302.049        0.154        0.065       41.451       15.940        0.148      344.096       20.672      863.311
08/22/2013  00:36:00      -19.376      -40.492       18.927       37.235       27.486       22.988     1386.428      755.498      528.471        0.252        0.134       44.889       22.983        0.262      343.981       20.475      863.322
08/22/2013  00:37:00      -48.414      -65.139        6.071       51.460       41.445       28.882     2648.102     1717.670      834.154        0.591        0.260       81.160       29.521        0.132      343.955       20.433      863.344
08/22/2013  00:38:00      -56.259      -39.740        3.590       34.630       39.558       19.674     1199.230     1564.867      387.069        0.395        0.158       68.879       14.223        0.043      344.017       20.539      863.368
08/22/2013  00:39:00      -76.024      -25.422       -8.478       38.949       22.093       17.489     1517.044      488.096      305.857        0.440        0.116       80.162       18.312        0.052      343.941       20.409      863.386
08/22/2013  00:40:00      -64.721       -1.845       -9.831       15.454       12.230       11.820      238.840      149.565      139.705        0.241        0.026       64.747       10.864        0.028      343.905       20.349      863.406
08/22/2013  00:41:00      -42.643        6.457       -7.022       17.553        8.932        7.567      308.123       79.776       57.255        0.118        0.022       43.129        7.066        0.027      343.850       20.249      863.417
08/22/2013  00:42:00      -58.423        2.842       -4.877       13.244        7.403        9.027      175.414       54.798       81.482        0.188        0.016       58.492        6.808        0.014      343.845       20.242      863.419
08/22/2013  00:43:00      -47.347       -6.587       -2.897       19.747        9.978       10.148      389.929       99.558      102.984        0.144        0.030       47.803        8.624        0.033      343.794       20.155      863.416
08/22/2013  00:44:00      -55.378        2.115       -5.065       18.366       11.565        8.944      337.326      133.758       80.000        0.182        0.028       55.419        9.842        0.032      343.920       20.371      863.412
08/22/2013  00:45:00      -35.748      -18.420       -3.288       10.310       11.086        6.064      106.299      122.895       36.774        0.095        0.013       40.215        5.593        0.019      343.887       20.314      863.410
08/22/2013  00:46:00      -26.558      -15.949       -4.309        9.772       11.854        6.264       95.498      140.519       39.238        0.063        0.014       30.979        4.729        0.023      343.916       20.365      863.420
08/22/2013  00:47:00       -6.457       -8.873       -0.778        9.580       11.563        6.943       91.778      133.697       48.207        0.020        0.014       10.974        5.197        0.224      343.956       20.433      863.428
08/22/2013  00:48:00       -9.962       -4.167       -3.996        6.920        5.180        5.009       47.889       26.830       25.088        0.012        0.005       10.799        4.959        0.211      344.005       20.516      863.432
08/22/2013  00:49:00        7.020        4.294        4.515        5.969        3.712        5.151       35.629       13.778       26.536        0.008        0.004        8.229        2.411        0.086      343.955       20.433      863.442
08/22/2013  00:50:00       24.288        9.948       -0.382        7.920        6.992        8.743       62.725       48.887       76.438        0.044        0.009       26.247        4.786        0.033      344.146       20.759      863.452
08/22/2013  00:51:00       31.336       17.798        2.929       19.083       13.024        8.182      364.145      169.622       66.952        0.095        0.030       36.038        5.475        0.023      344.174       20.804      863.448
08/22/2013  00:52:00       18.640        6.539        4.693       12.487       11.444        8.178      155.924      130.969       66.876        0.038        0.018       19.753        7.807        0.156      344.020       20.540      863.441
08/22/2013  00:53:00       16.499        6.792        3.599        5.706        4.802        5.897       32.560       23.058       34.780        0.021        0.005       17.842        1.831        0.011      343.849       20.252      863.435
08/22/2013  00:54:00       13.554        9.209        1.689        7.261        9.585        6.813       52.720       91.865       46.417        0.023        0.010       16.386        7.129        0.189      343.903       20.342      863.438
08/22/2013  00:55:00       15.728       35.554        3.183       15.909       22.731       10.179      253.107      516.721      103.618        0.120        0.044       38.877       11.487        0.087      343.893       20.326      863.431
08/22/2013  00:56:00       29.119       43.175        1.341       23.564       20.721       18.431      555.252      429.346      339.706        0.202        0.066       52.076       17.172        0.109      343.706       20.006      863.439
08/22/2013  00:57:00       26.153       57.138       -5.586       17.479       23.277       13.847      305.522      541.838      191.730        0.251        0.052       62.839       14.433        0.053      343.751       20.082      863.440
08/22/2013  00:58:00       19.934       42.287       -1.969       18.274       25.808       16.649      333.944      666.059      277.176        0.173        0.064       46.750       16.006        0.117      343.806       20.176      863.433
08/22/2013  00:59:00        5.071       74.379       -7.630       10.323       14.448        9.956      106.559      208.750       99.126        0.302        0.021       74.552        6.457        0.008      343.829       20.217      863.426
08/22/2013  01:00:00       -3.088      110.718      -13.154       15.225       21.283       11.587      231.793      452.949      134.266        0.663        0.041      110.761        7.458        0.005      343.867       20.280      863.420
08/22/2013  01:01:00      -24.009      103.577      -14.721        9.931       16.757        9.147       98.632      280.781       83.663        0.599        0.023      106.323        3.595        0.001      343.825       20.209      863.425
08/22/2013  01:02:00      -32.471       39.047       -9.546       11.959       25.656       12.684      143.007      658.252      160.895        0.182        0.048       50.784        9.659        0.036      343.690       19.978      863.416
08/22/2013  01:03:00      -35.679        6.829       -3.691       17.223       21.137        9.852      296.643      446.770       97.062        0.109        0.042       36.327        8.169        0.051      343.631       19.877      863.414
08/22/2013  01:04:00      -36.001       -8.418       -2.966       12.743       13.187        7.384      162.397      173.901       54.524        0.088        0.020       36.972        7.414        0.040      343.647       19.906      863.403
08/22/2013  01:05:00      -67.332        5.660       -7.745       22.850       13.709        9.510      522.115      187.942       90.434        0.271        0.040       67.569        9.362        0.019      343.489       19.636      863.380
08/22/2013  01:06:00      -91.122       15.737      -11.273       22.493       22.823       14.865      505.931      520.881      220.973        0.496        0.062       92.471       14.514        0.025      343.513       19.677      863.347
08/22/2013  01:07:00     -120.106       28.287       -8.845       35.594       26.384       17.740     1266.923      696.134      314.703        0.879        0.114      123.392       16.578        0.018      343.442       19.557      863.316
08/22/2013  01:08:00     -121.996       31.458      -11.518       36.790       27.551       16.558     1353.538      759.071      274.164        0.920        0.119      125.986       14.017        0.012      343.427       19.531      863.298
08/22/2013  01:09:00     -115.380       22.687      -13.501       59.173       36.900       24.548     3501.448     1361.592      602.597        0.974        0.273      117.589       28.343        0.058      343.359       19.416      863.298
08/22/2013  01:10:00      -80.170      -10.775       -6.916       37.915       42.649       23.552     1437.584     1818.935      554.681        0.520        0.191       80.891       16.442        0.041      343.340       19.383      863.305
08/22/2013  01:11:00      -89.770       62.384      -12.581       38.148       37.439       24.504     1455.259     1401.675      600.429        0.778        0.173      109.318       23.953        0.048      343.363       19.421      863.306
08/22/2013  01:12:00      -93.171       35.934       -9.404       25.355       26.709       15.971      642.892      713.388      255.072        0.584        0.081       99.860        3.304        0.001      343.319       19.347      863.310
08/22/2013  01:13:00      -72.645       20.202       -6.604       23.775       24.958       13.267      565.244      622.889      176.012        0.355        0.068       75.402        8.655        0.013      343.248       19.224      863.294
08/22/2013  01:14:00      -98.803       -1.031       -9.897       36.749       19.221       16.725     1350.477      369.430      279.718        0.593        0.100       98.808       17.320        0.031      343.315       19.340      863.277
08/22/2013  01:15:00      -65.436        7.127      -10.634       19.829       12.964       11.043      393.183      168.063      121.956        0.256        0.034       65.823        7.485        0.013      343.282       19.283      863.243
08/22/2013  01:16:00      -78.636       -9.405       -3.568       21.005       18.269       10.946      441.229      333.751      119.824        0.359        0.045       79.196       10.372        0.017      343.300       19.313      863.210
08/22/2013  01:17:00      -75.505      -34.393      -10.373       16.864       20.197       11.365      284.402      407.899      129.175        0.391        0.041       82.969        4.910        0.004      343.275       19.273      863.193
08/22/2013  01:18:00      -59.909      -20.290       -5.453       14.854       11.593       10.917      220.653      134.389      119.184        0.225        0.024       63.251       10.066        0.025      343.254       19.238      863.193
08/22/2013  01:19:00      -48.113      -15.021       -6.076       11.281        9.958        8.053      127.259       99.171       64.850        0.143        0.015       50.403        5.386        0.011      343.286       19.290      863.210
08/22/2013  01:20:00      -30.264      -13.859      -10.661       16.952       12.887        9.445      287.354      166.075       89.199        0.088        0.027       33.287        7.914        0.057      343.348       19.397      863.215
08/22/2013  01:21:00      -43.168       -5.334      -11.112       14.443        9.466        7.653      208.600       89.602       58.562        0.119        0.018       43.496        6.354        0.021      343.332       19.366      863.204
08/22/2013  01:22:00      -27.184        1.014       -7.324        8.209        5.130        5.899       67.385       26.321       34.793        0.046        0.006       27.203        3.578        0.017      343.309       19.329      863.183
08/22/2013  01:23:00      -28.074       -3.248       -5.755        5.648        8.881        4.510       31.901       78.879       20.337        0.048        0.007       28.261        3.219        0.013      343.297       19.308      863.160
08/22/2013  01:24:00      -46.476       15.516      -10.141        8.876       18.244        9.061       78.791      332.839       82.103        0.150        0.025       48.997        6.577        0.018      343.381       19.451      863.130
08/22/2013  01:25:00      -48.097       51.636      -13.614        8.650        8.386        5.631       74.825       70.318       31.711        0.267        0.009       70.566        3.905        0.003      343.484       19.625      863.092
08/22/2013  01:26:00      -61.012       46.288      -11.757       10.006       15.011        8.771      100.112      225.333       76.931        0.320        0.020       76.583        8.065        0.011      343.355       19.408      863.067
08/22/2013  01:27:00      -54.286        8.089       -8.703       11.807       13.783        8.899      139.410      189.960       79.184        0.175        0.020       54.885        7.383        0.018      343.231       19.195      863.051
08/22/2013  01:28:00      -67.981       -5.503       -8.785       31.814       21.945       14.775     1012.156      481.575      218.289        0.322        0.086       68.203       15.449        0.051      343.120       19.009      863.050
08/22/2013  01:29:00     -105.398        0.501       -8.666       31.434       25.533       19.510      988.127      651.959      380.653        0.660        0.101      105.399       14.981        0.020      343.153       19.065      863.050
08/22/2013  01:30:00      -75.179      -27.875       -7.663       18.831       21.406       11.663      354.617      458.238      136.028        0.372        0.047       80.180       10.181        0.016      343.183       19.116      863.053
08/22/2013  01:31:00      -82.192      -10.584       -7.706       24.836       20.476       16.945      616.804      419.266      287.126        0.412        0.066       82.870       15.664        0.036      343.098       18.971      863.062
08/22/2013  01:32:00      -73.897      -11.263       -6.526       26.611       21.951        8.290      708.167      481.864       68.729        0.344        0.063       74.751        9.150        0.015      343.065       18.916      863.067
08/22/2013  01:33:00      -42.423        5.148       -7.582       19.207       14.999        9.508      368.907      224.981       90.403        0.128        0.034       42.735        8.754        0.042      343.075       18.932      863.062
08/22/2013  01:34:00      -29.960      -17.004      -13.707       13.662       12.960        9.453      186.637      167.950       89.367        0.091        0.022       34.449       10.477        0.092      343.151       19.061      863.046
08/22/2013  01:35:00      -38.083      -14.840       -1.539       17.012       14.137       11.577      289.413      199.865      134.023        0.115        0.031       40.872        6.962        0.029      343.123       19.012      863.035
08/22/2013  01:36:00      -23.510      -16.261       -5.368       16.449        9.505       12.050      270.565       90.345      145.203        0.068        0.025       28.585        6.636        0.054      343.097       18.969      863.033
08/22/2013  01:37:00      -27.106      -16.249       -8.392       15.651       10.680        8.063      244.967      114.059       65.020        0.075        0.021       31.603        6.752        0.046      343.077       18.933      863.035
08/22/2013  01:38:00      -23.624      -13.783        2.002       10.955        9.002        9.680      120.018       81.041       93.706        0.052        0.015       27.351        4.471        0.027      343.080       18.940      863.029
08/22/2013  01:39:00      -13.945       -9.902        4.085       18.862        9.906        8.473      355.761       98.134       71.789        0.042        0.026       17.103       10.201        0.356      343.006       18.814      863.021
08/22/2013  01:40:00       -8.723      -20.336        8.589       16.570       15.931       14.157      274.581      253.784      200.431        0.065        0.036       22.128       12.938        0.342      343.152       19.062      863.021
08/22/2013  01:41:00       26.060      -19.991        0.386       27.960       16.758       19.684      781.750      280.838      387.442        0.126        0.073       32.844       11.879        0.131      343.065       18.915      863.020
08/22/2013  01:42:00       -7.440      -17.373        5.487       20.129       15.960       12.749      405.162      254.735      162.528        0.060        0.041       18.899       12.909        0.467      343.141       19.044      863.013
08/22/2013  01:43:00      -35.295      -32.025        1.947       25.892       20.872       12.767      670.420      435.657      162.990        0.177        0.063       47.658        9.675        0.041      343.172       19.097      863.010
08/22/2013  01:44:00      -55.632      -42.554        0.698       32.249       13.225       13.677     1040.025      174.904      187.066        0.315        0.070       70.040       10.216        0.021      343.240       19.212      862.997
08/22/2013  01:45:00      -14.604      -28.929        7.990       36.364       17.170       11.346     1322.311      294.794      128.721        0.143        0.087       32.407       13.347        0.170      343.237       19.207      862.981
08/22/2013  01:46:00       10.724      -26.687       -2.136       27.684       20.665       14.215      766.404      427.051      202.064        0.111        0.070       28.761       11.239        0.153      343.133       19.031      862.979
08/22/2013  01:47:00      -63.810      -46.883       -4.619       26.013       20.887       11.966      676.701      436.268      143.196        0.377        0.063       79.181        8.369        0.011      343.117       19.003      862.983
08/22/2013  01:48:00      -26.738      -47.924       -2.073       32.709       25.691       17.408     1069.910      660.017      303.048        0.252        0.102       54.878        7.168        0.017      343.129       19.022      862.993
08/22/2013  01:49:00      -79.484      -76.296        2.303       48.486       39.385       22.062     2350.912     1551.185      486.717        0.827        0.219      110.176       21.055        0.037      343.036       18.865      863.008
08/22/2013  01:50:00      -36.508      -44.190        3.219       42.484       33.763       23.280     1804.858     1139.945      541.969        0.339        0.174       57.319       14.951        0.068      343.000       18.804      863.009
08/22/2013  01:51:00      -76.873      -60.746       -0.129       41.894       28.118       26.730     1755.110      790.602      714.498        0.643        0.163       97.977       20.289        0.043      343.049       18.887      863.004
08/22/2013  01:52:00     -106.667      -71.743       -2.411       44.418       27.777       26.900     1972.951      771.541      723.634        1.000        0.173      128.549        8.250        0.004      342.980       18.770      862.995
08/22/2013  01:53:00     -126.897      -85.675       -6.204       44.939       56.695       31.249     2019.479     3214.313      976.499        1.484        0.311      153.112       26.188        0.029      342.951       18.720      862.983
08/22/2013  01:54:00     -136.158      -92.495      -11.338       28.457       30.592       18.531      809.813      935.890      343.394        1.466        0.104      164.604       12.438        0.006      342.915       18.659      862.964
08/22/2013  01:55:00     -109.300      -78.068       -1.066       36.635       31.342       24.498     1342.160      982.315      600.158        1.048        0.146      134.317       19.852        0.022      342.863       18.571      862.950
08/22/2013  01:56:00     -110.769      -54.560       -2.866       34.033       26.671       22.133     1158.250      711.339      489.861        0.881        0.118      123.477       20.438        0.027      342.911       18.651      862.933
08/22/2013  01:57:00      -93.629      -59.707        3.116       28.549       35.142       18.720      815.070     1234.956      350.452        0.737        0.120      111.046       16.741        0.023      342.922       18.672      862.914
08/22/2013  01:58:00      -45.958      -35.573        1.923       25.917       25.400       14.727      671.695      645.170      216.892        0.246        0.077       58.117       13.443        0.053      342.914       18.657      862.911
08/22/2013  01:59:00      -37.845      -45.037        7.227       33.566       35.499       15.863     1126.672     1260.183      251.631        0.308        0.132       58.827       14.192        0.058      342.907       18.646      862.908
08/22/2013  02:00:00      -74.761      -64.240        1.104       31.958       27.288       20.116     1021.325      744.632      404.644        0.594        0.109       98.570       15.614        0.025      342.929       18.684      862.908
08/22/2013  02:01:00      -83.572      -80.969        0.595       40.202       29.588       22.702     1616.201      875.479      515.390        0.827        0.150      116.362       21.436        0.034      342.845       18.540      862.898
08/22/2013  02:02:00      -79.410      -61.706        6.416       40.419       30.614       22.235     1633.734      937.234      494.408        0.661        0.153      100.566       22.641        0.051      342.832       18.519      862.873
08/22/2013  02:03:00     -134.606     -125.196       -4.906       34.666       40.002       27.790     1201.722     1600.150      772.305        1.869        0.179      183.828       24.317        0.017      342.801       18.465      862.847
08/22/2013  02:04:00     -117.722      -97.901       -0.442       59.258       50.893       33.272     3511.561     2590.104     1107.005        1.532        0.360      153.111       38.108        0.062      342.761       18.396      862.829
08/22/2013  02:05:00     -104.774      -85.513        6.889       53.114       44.947       31.628     2821.081     2020.256     1000.320        1.209        0.292      135.241       28.131        0.043      342.789       18.444      862.814
08/22/2013  02:06:00      -84.981      -83.846        3.882       48.855       36.017       29.887     2386.767     1297.232      893.254        0.942        0.229      119.382       33.089        0.077      342.788       18.443      862.813
08/22/2013  02:07:00      -62.590      -44.571        2.738       30.190       23.144       18.569      911.420      535.626      344.801        0.385        0.090       76.838       17.830        0.054      342.801       18.465      862.811
08/22/2013  02:08:00      -41.573      -49.878        2.311       37.471       19.524       22.202     1404.103      381.205      492.925        0.325        0.114       64.932       27.681        0.182      342.843       18.536      862.820
08/22/2013  02:09:00      -51.814      -34.753      -11.341       14.920       11.677        6.511      222.620      136.355       42.399        0.221        0.020       62.390        3.276        0.003      342.846       18.541      862.818
08/22/2013  02:10:00      -48.937      -14.647       -6.539       16.453       13.726        9.929      270.708      188.405       98.586        0.160        0.028       51.082        6.491        0.016      342.875       18.590      862.796
08/22/2013  02:11:00      -73.275      -11.323       -4.835       20.002       19.218       11.760      400.065      369.316      138.291        0.321        0.045       74.144       12.488        0.028      342.850       18.549      862.767
08/22/2013  02:12:00      -92.014      -22.097       -7.261       14.071       17.438       12.444      198.002      304.094      154.853        0.483        0.033       94.630        5.534        0.003      342.849       18.549      862.757
08/22/2013  02:13:00      -86.481      -32.583       -5.315       14.811       15.917       11.235      219.359      253.353      126.216        0.458        0.030       92.416        8.823        0.009      342.859       18.563      862.746
08/22/2013  02:14:00      -81.886      -16.947       -1.056       13.419       13.289       10.374      180.076      176.584      107.619        0.373        0.023       83.622        3.755        0.002      342.843       18.536      862.738
08/22/2013  02:15:00      -83.707      -19.597       -7.087       13.280       13.481        9.067      176.368      181.726       82.208        0.394        0.022       85.970        5.752        0.004      342.806       18.473      862.763
08/22/2013  02:16:00      -99.558      -16.416       -7.257       11.495       14.444        9.378      132.146      208.620       87.948        0.533        0.021      100.902        4.281        0.002      342.806       18.473      862.770
08/22/2013  02:17:00      -89.624      -21.193       -4.850       15.010       13.472        9.933      225.314      181.493       98.657        0.451        0.025       92.095        7.936        0.007      342.776       18.422      862.780
08/22/2013  02:18:00      -53.324      -17.345        2.033       23.396       14.561       13.454      547.367      212.027      181.023        0.204        0.047       56.074       14.091        0.063      342.765       18.405      862.784
08/22/2013  02:19:00      -58.137      -32.477       -0.387       17.066       14.409       10.659      291.262      207.623      113.622        0.252        0.031       66.594       10.022        0.023      342.807       18.476      862.807
08/22/2013  02:20:00      -23.810      -26.590       -6.509       16.464       14.203       14.491      271.049      201.724      209.976        0.100        0.034       35.692        9.697        0.074      342.798       18.459      862.813
08/22/2013  02:21:00       24.702      -59.923      -24.930       26.336       33.452       20.655      693.579     1119.060      426.619        0.353        0.112       64.815       18.866        0.085      342.525       17.995      862.816
08/22/2013  02:22:00       16.036      -26.118        1.556       31.001       22.185       19.733      961.051      492.155      389.388        0.139        0.092       30.648       21.049        0.472      342.499       17.952      862.825
08/22/2013  02:23:00      -17.513       -8.728       17.211       13.028       10.716        9.709      169.742      114.841       94.259        0.053        0.019       19.567        3.982        0.041      342.498       17.949      862.821
08/22/2013  02:24:00      -24.327      -28.443       -0.585       15.104       16.841       17.561      228.130      283.634      308.378        0.111        0.041       37.427       10.603        0.080      342.639       18.188      862.806
08/22/2013  02:25:00      -16.694      -22.267       10.009       16.498       21.394       15.967      272.190      457.696      254.936        0.093        0.049       27.830        9.740        0.122      342.606       18.134      862.794
08/22/2013  02:26:00       -5.251       -6.646      -11.482       20.532       26.888       12.541      421.558      722.976      157.269        0.075        0.065        8.470        3.700        0.191      342.587       18.101      862.784
08/22/2013  02:27:00      -13.262        6.660        1.988       16.387       13.876       10.152      268.530      192.530      103.060        0.039        0.028       14.841       10.405        0.492      342.755       18.386      862.785
08/22/2013  02:28:00       11.323       -5.130        0.411       13.563        8.651        8.843      183.958       74.840       78.200        0.025        0.017       12.431        6.510        0.274      342.839       18.529      862.794
08/22/2013  02:29:00        7.368       -9.900       -5.901        8.058        8.829       10.220       64.927       77.953      104.450        0.022        0.012       12.341        4.875        0.156      342.676       18.253      862.800
08/22/2013  02:30:00       -6.766      -19.582       -7.583       16.480       17.937       17.298      271.600      321.736      299.231        0.069        0.045       20.718        6.846        0.109      342.601       18.125      862.810
08/22/2013  02:31:00       26.565      -19.007        9.463       21.661       19.335       19.456      469.183      373.852      378.538        0.119        0.061       32.664       14.340        0.193      342.383       17.755      862.834
08/22/2013  02:32:00      -20.505      -11.783        2.869       18.297       19.713       15.898      334.770      388.607      252.754        0.077        0.049       23.650       17.977        0.578      342.521       17.988      862.855
08/22/2013  02:33:00      -55.365      -31.665       -3.910       15.432       11.541        7.708      238.154      133.197       59.408        0.226        0.022       63.781        4.610        0.005      342.585       18.097      862.855
08/22/2013  02:34:00      -55.407      -28.424       -0.898       16.719       11.867       10.495      279.538      140.824      110.142        0.220        0.027       62.272        6.036        0.009      342.622       18.161      862.843
08/22/2013  02:35:00      -73.138      -24.553       -4.313       13.265       13.887        7.232      175.973      192.853       52.301        0.320        0.021       77.149        4.775        0.004      342.659       18.223      862.838
08/22/2013  02:36:00      -71.110      -11.400      -10.155       10.103        9.992        5.561      102.069       99.833       30.927        0.276        0.012       72.018        5.095        0.005      342.659       18.222      862.826
08/22/2013  02:37:00      -54.648      -17.290       -6.922        9.985        9.204        6.153       99.701       84.714       37.862        0.178        0.011       57.318        4.676        0.007      342.660       18.224      862.816
08/22/2013  02:38:00      -26.411      -15.346        2.536       16.515       10.197        7.970      272.732      103.987       63.528        0.069        0.022       30.546        7.462        0.060      342.532       18.007      862.810
08/22/2013  02:39:00      -42.253      -21.790       -0.888       18.282       14.532        7.118      334.217      211.181       50.667        0.143        0.030       47.541        5.830        0.015      342.504       17.958      862.807
08/22/2013  02:40:00      -62.483       -6.955       -5.481       16.789       11.786       10.593      281.858      138.917      112.221        0.226        0.027       62.869        8.814        0.020      342.528       18.002      862.804
08/22/2013  02:41:00      -64.697      -15.720       -8.810       16.356       14.731       10.330      267.516      216.992      106.703        0.255        0.030       66.580        8.809        0.018      342.458       17.885      862.792
08/22/2013  02:42:00      -83.356      -16.675       -8.280       27.757       20.552       14.981      770.456      422.377      224.437        0.436        0.071       85.007       16.756        0.039      342.405       17.791      862.786
08/22/2013  02:43:00      -73.156      -20.611       -0.853       19.296       21.437       15.188      372.318      459.532      230.674        0.342        0.053       76.004       12.570        0.027      342.355       17.706      862.771
08/22/2013  02:44:00      -69.863      -25.426       -2.172       15.973       16.648       11.691      255.128      277.146      136.680        0.310        0.033       74.346        9.581        0.017      342.336       17.672      862.772
08/22/2013  02:45:00      -79.730      -20.311       -3.705       15.767       20.849       12.890      248.591      434.696      166.163        0.382        0.042       82.277        6.924        0.007      342.296       17.607      862.761
08/22/2013  02:46:00      -83.779      -23.729       -9.594       13.781       13.455       11.785      189.908      181.044      138.894        0.409        0.025       87.075        8.821        0.010      342.267       17.559      862.755
08/22/2013  02:47:00      -74.993      -17.011       -5.674       13.718       14.078        9.559      188.181      198.178       91.375        0.321        0.024       76.898        6.544        0.007      342.246       17.521      862.755
08/22/2013  02:48:00      -74.931      -19.424        0.257       25.371       16.727       13.391      643.675      279.785      179.323        0.355        0.055       77.408       12.619        0.027      342.284       17.585      862.766
08/22/2013  02:49:00      -87.973      -25.526       -2.623       24.234       16.719       12.391      587.274      279.512      153.526        0.471        0.051       91.601       14.116        0.024      342.321       17.648      862.765
08/22/2013  02:50:00      -89.636      -10.843       -5.684       22.588       18.870       15.204      510.240      356.073      231.169        0.464        0.055       90.290       15.234        0.028      342.253       17.532      862.762
08/22/2013  02:51:00     -104.506      -27.533       -3.495       28.373       21.480       17.396      805.020      461.399      302.627        0.663        0.078      108.072       16.742        0.024      342.311       17.632      862.745
08/22/2013  02:52:00      -98.124      -12.990       -7.272       27.707       21.080       16.541      767.693      444.386      273.589        0.567        0.074       98.981       16.407        0.027      342.215       17.469      862.739
08/22/2013  02:53:00     -117.808       29.270      -14.918       42.538       29.563       16.402     1809.454      873.992      269.039        0.895        0.148      121.389       13.833        0.013      342.114       17.297      862.722
08/22/2013  02:54:00      -97.635       28.068       -3.022       36.245       21.579       25.332     1313.693      465.655      641.708        0.637        0.121      101.590       22.366        0.048      342.140       17.343      862.711
08/22/2013  02:55:00     -136.314       27.193      -11.908       30.212       26.979       14.336      912.764      727.849      205.509        1.065        0.092      138.999        9.930        0.005      342.208       17.456      862.713
08/22/2013  02:56:00     -143.058       19.457      -13.547       30.072       30.101       19.922      904.299      906.046      396.871        1.162        0.110      144.375       15.439        0.011      342.177       17.405      862.719
08/22/2013  02:57:00     -128.724        8.105      -17.025       22.116       24.459       18.642      489.137      598.267      347.524        0.918        0.072      128.978       12.717        0.010      342.164       17.383      862.722
08/22/2013  02:58:00     -153.551       21.422      -17.359       35.711       35.947       17.547     1275.269     1292.199      307.890        1.361        0.144      155.038       14.193        0.008      342.243       17.518      862.725
08/22/2013  02:59:00     -153.205       32.578      -16.012       33.528       28.760       17.294     1124.148      827.134      299.082        1.352        0.113      156.630       14.797        0.009      342.256       17.539      862.731
08/22/2013  03:00:00     -140.029       15.931      -17.080       51.359       35.120       21.245     2637.734     1233.413      451.370        1.224        0.216      140.933       16.963        0.014      342.316       17.640      862.740
08/22/2013  03:01:00      -30.028      -11.242       -0.840       37.326       25.520       21.179     1393.200      651.284      448.568        0.176        0.125       32.063       11.206        0.122      342.244       17.520      862.754
08/22/2013  03:02:00        5.365        0.387       16.439       23.223       12.545       18.779      539.307      157.382      352.638        0.067        0.052        5.379       14.365        7.132      342.182       17.413      862.754
08/22/2013  03:03:00      -34.549      -15.120        0.342       19.576       14.564       10.953      383.234      212.104      119.978        0.107        0.036       37.713        4.749        0.016      342.242       17.514      862.750
08/22/2013  03:04:00      -71.396      -11.514        1.625       34.323       31.140       20.191     1178.056      969.693      407.677        0.389        0.128       72.319       18.044        0.062      342.246       17.521      862.759
08/22/2013  03:05:00      -50.601       -3.649        2.607       32.084       21.810       20.323     1029.369      475.654      413.043        0.225        0.096       50.733       19.974        0.155      342.228       17.491      862.753
08/22/2013  03:06:00        1.502       12.540       19.056       21.653       15.276       16.780      468.847      233.345      281.584        0.075        0.049       12.630       10.882        0.742      342.164       17.381      862.751
08/22/2013  03:07:00      -34.284       10.528       12.278       41.262       23.886       20.930     1702.543      570.549      438.079        0.207        0.136       35.864       20.064        0.313      342.236       17.505      862.766
08/22/2013  03:08:00       11.409        2.144       17.834       26.690       16.487       17.216      712.355      271.833      296.407        0.087        0.064       11.609       14.935        1.655      342.160       17.375      862.767
08/22/2013  03:09:00       13.994       -3.686       11.192       21.730       16.462       19.338      472.198      271.000      373.940        0.073        0.056       14.471       11.386        0.619      342.179       17.407      862.767
08/22/2013  03:10:00       18.401      -47.365      -11.121       15.146       15.134       18.874      229.389      229.042      356.224        0.176        0.041       50.813       12.946        0.065      342.375       17.741      862.774
08/22/2013  03:11:00      -29.324      -28.374        5.078       23.074       13.108       16.941      532.398      171.816      286.984        0.134        0.050       40.804       16.511        0.164      342.359       17.711      862.788
08/22/2013  03:12:00      -52.207      -32.085       -1.531       10.107        9.803       10.598      102.144       96.095      112.326        0.203        0.016       61.278        5.043        0.007      342.395       17.775      862.801
08/22/2013  03:13:00      -42.454      -26.347       -0.622       13.482        9.527        8.304      181.753       90.765       68.951        0.142        0.017       49.965        2.607        0.003      342.399       17.782      862.795
08/22/2013  03:14:00      -39.424      -34.869       -5.141       19.680       12.073        9.493      387.318      145.751       90.116        0.171        0.031       52.632        4.695        0.008      342.412       17.803      862.788
08/22/2013  03:15:00      -66.064      -19.235       -5.325       14.838       10.123        9.217      220.175      102.472       84.956        0.259        0.020       68.808        3.986        0.003      342.336       17.676      862.783
08/22/2013  03:16:00      -76.765      -16.716      -11.333       16.511       13.692        8.865      272.619      187.458       78.594        0.342        0.027       78.564        7.665        0.010      342.309       17.628      862.780
08/22/2013  03:17:00     -104.993       -8.050      -15.841       16.279       10.289       12.027      265.013      105.856      144.648        0.593        0.026      105.301        9.481        0.008      342.285       17.589      862.757
08/22/2013  03:18:00      -69.398      -17.169       -3.576       21.440       20.353       13.747      459.652      414.262      188.985        0.309        0.053       71.490       10.959        0.023      342.235       17.502      862.733
08/22/2013  03:19:00      -65.008        9.065      -11.614       24.506       23.438       15.893      600.544      549.351      252.577        0.292        0.070       65.637       15.575        0.056      342.309       17.629      862.718
08/22/2013  03:20:00      -41.224       -7.772       -1.252       15.575       19.232       14.014      242.577      369.863      196.400        0.128        0.040       41.951        6.557        0.024      342.222       17.480      862.726
08/22/2013  03:21:00      -17.315       -6.302      -10.226       14.590       18.086       10.285      212.854      327.101      105.780        0.054        0.032       18.426        9.900        0.289      342.165       17.383      862.743
08/22/2013  03:22:00      -21.663      -22.307        1.960       22.779       20.501       12.821      518.903      420.297      164.369        0.104        0.055       31.095        5.615        0.033      342.265       17.552      862.749
08/22/2013  03:23:00      -31.444      -19.358        3.745       22.383       26.344       13.762      500.998      693.993      189.394        0.138        0.069       36.925       13.501        0.134      342.285       17.587      862.751
08/22/2013  03:24:00      -24.847        1.850       -0.824       15.086       15.617       11.431      227.597      243.877      130.663        0.061        0.030       24.916        2.719        0.012      342.227       17.489      862.750
08/22/2013  03:25:00      -80.850      -24.939       -7.281       24.738       20.745       12.728      611.981      430.337      161.998        0.421        0.060       84.609        8.937        0.011      342.254       17.535      862.743
08/22/2013  03:26:00      -67.353      -41.363       -7.589       23.274       19.520       16.169      541.693      381.012      261.436        0.374        0.059       79.040       12.639        0.026      342.199       17.442      862.736
08/22/2013  03:27:00      -94.242      -37.188       -6.373       19.525       17.661       14.630      381.221      311.926      214.038        0.561        0.045      101.314       10.656        0.011      342.105       17.283      862.733
08/22/2013  03:28:00      -85.669      -28.863      -10.922       36.783       13.339       12.097     1353.023      177.931      146.340        0.498        0.084       90.401       13.393        0.022      342.121       17.309      862.727
08/22/2013  03:29:00     -108.257      -40.090      -10.024       26.083       14.342       13.448      680.334      205.693      180.857        0.725        0.053      115.442       13.560        0.014      342.070       17.223      862.713
08/22/2013  03:30:00     -124.275      -42.574       -4.665       17.131       21.332       16.594      293.468      455.054      275.354        0.915        0.051      131.365       11.683        0.008      342.087       17.251      862.689
08/22/2013  03:31:00      -73.193      -44.077        2.211       43.466       33.612       19.649     1889.276     1129.787      386.099        0.535        0.170       85.440       19.096        0.050      342.062       17.208      862.685
08/22/2013  03:32:00      -73.472      -36.753        7.092       31.305       30.786       17.461      980.018      947.757      304.893        0.452        0.112       82.152       12.537        0.023      342.067       17.218      862.704
08/22/2013  03:33:00      -51.461      -32.357        0.688       50.036       33.631       25.515     2503.566     1131.021      651.029        0.399        0.214       60.788       30.853        0.258      342.102       17.278      862.708
08/22/2013  03:34:00     -105.011      -62.025       -3.805       39.435       35.228       18.884     1555.106     1241.014      356.611        0.902        0.158      121.961       17.500        0.021      342.103       17.278      862.696
08/22/2013  03:35:00      -99.631      -55.836        0.651       40.969       31.358       17.208     1678.424      983.303      296.114        0.800        0.148      114.210       17.182        0.023      342.049       17.186      862.667
08/22/2013  03:36:00      -76.783      -51.974        3.201       36.830       32.867       26.349     1356.468     1080.256      694.245        0.587        0.157       92.720       22.166        0.057      342.010       17.120      862.646
08/22/2013  03:37:00      -64.431      -58.096        3.532       32.121       31.465       20.306     1031.790      990.021      412.318        0.499        0.122       86.756       20.140        0.054      342.001       17.105      862.644
08/22/2013  03:38:00     -100.702      -73.311       -1.993       38.161       29.768       18.179     1456.237      886.113      330.458        0.910        0.134      124.561       10.371        0.007      342.001       17.104      862.642
08/22/2013  03:39:00      -83.631      -59.455       -1.163       31.851       30.266       20.546     1014.489      916.018      422.124        0.644        0.118      102.612       12.416        0.015      341.991       17.090      862.639
08/22/2013  03:40:00      -94.705      -63.553       -5.333       36.147       26.297       21.594     1306.577      691.534      466.293        0.775        0.123      114.053       18.972        0.028      341.982       17.074      862.629
08/22/2013  03:41:00     -119.882      -51.800       -0.175       40.397       21.473       20.451     1631.912      461.085      418.232        0.978        0.126      130.594       21.442        0.027      341.964       17.043      862.620
08/22/2013  03:42:00     -120.777      -65.204        2.822       40.079       27.266       23.031     1606.349      743.439      530.422        1.086        0.144      137.255       22.157        0.026      341.981       17.073      862.618
08/22/2013  03:43:00      -62.474      -47.948        8.532       43.959       28.316       19.724     1932.353      801.815      389.029        0.470        0.156       78.753       20.386        0.067      341.984       17.076      862.624
08/22/2013  03:44:00     -116.860      -69.668       -5.199       38.963       27.273       22.840     1518.123      743.798      521.644        1.066        0.139      136.051       23.804        0.031      342.020       17.138      862.611
08/22/2013  03:45:00     -100.431      -66.266       -5.400       22.726       24.945       18.116      516.453      622.248      328.206        0.799        0.073      120.323       12.443        0.011      342.030       17.154      862.590
08/22/2013  03:46:00     -121.448      -42.359       -8.642       26.409       23.754       16.244      697.456      564.271      263.869        0.907        0.076      128.623       14.118        0.012      342.048       17.186      862.578
08/22/2013  03:47:00     -103.017      -48.360       -2.431       24.379       24.263       14.698      594.324      588.684      216.031        0.718        0.070      113.803       14.555        0.016      342.031       17.157      862.587
08/22/2013  03:48:00      -49.854      -41.112        3.853       40.813       37.455       20.967     1665.683     1402.874      439.631        0.385        0.175       64.619       21.113        0.107      342.062       17.210      862.590
08/22/2013  03:49:00      -79.236      -63.945       -4.679       41.289       26.935       22.500     1704.818      725.484      506.252        0.666        0.147      101.820       20.558        0.041      341.990       17.088      862.604
08/22/2013  03:50:00      -90.025      -61.545        5.533       47.148       35.947       25.489     2222.950     1292.154      649.682        0.804        0.208      109.052       24.525        0.051      342.014       17.129      862.623
08/22/2013  03:51:00     -102.652      -85.995        2.511       45.461       33.655       27.467     2066.685     1132.666      754.435        1.095        0.198      133.913       26.767        0.040      342.005       17.111      862.645
08/22/2013  03:52:00      -71.949      -53.546        6.224       46.438       36.101       24.819     2156.482     1303.310      615.985        0.608        0.204       89.687       23.507        0.069      342.014       17.127      862.656
08/22/2013  03:53:00     -100.507      -63.026       -0.908       35.677       24.996       21.969     1272.865      624.796      482.646        0.823        0.119      118.634       20.357        0.029      342.016       17.128      862.647
08/22/2013  03:54:00     -108.383      -67.069       -4.352       27.873       26.016       17.493      776.915      676.838      306.003        0.901        0.088      127.457       16.395        0.017      342.067       17.218      862.638
08/22/2013  03:55:00     -108.510      -42.410       -3.003       30.370       22.125       19.585      922.330      489.528      383.576        0.769        0.090      116.503       19.004        0.027      342.075       17.229      862.638
08/22/2013  03:56:00     -114.333      -43.317       -4.369       21.046       28.517       17.020      442.952      813.214      289.689        0.826        0.077      122.263        9.655        0.006      342.025       17.147      862.635
08/22/2013  03:57:00     -116.925      -41.544       -8.711       29.063       26.303       15.699      844.630      691.826      246.460        0.863        0.089      124.086       15.272        0.015      342.011       17.122      862.630
08/22/2013  03:58:00      -84.356      -46.736       -3.800       35.380       27.755       16.099     1251.736      770.321      259.191        0.580        0.114       96.437       13.689        0.020      342.015       17.127      862.631
08/22/2013  03:59:00      -74.904      -32.853       -1.368       28.405       27.416       19.230      806.838      751.620      369.774        0.431        0.096       81.792       16.660        0.041      341.997       17.098      862.632
08/22/2013  04:00:00      -73.808      -26.200        1.116       21.301       26.498       16.182      453.723      702.158      261.863        0.378        0.071       78.321       13.044        0.028      341.965       17.043      862.643
08/22/2013  04:01:00      -98.508      -28.510       -0.514       23.239       21.203       14.236      540.048      449.573      202.657        0.585        0.060      102.551       15.490        0.023      342.023       17.144      862.644
08/22/2013  04:02:00      -98.487      -34.808       -7.516       34.908       15.953       12.634     1218.547      254.514      159.623        0.630        0.082      104.457       11.786        0.013      342.026       17.149      862.636
08/22/2013  04:03:00      -84.286      -35.156        4.455       36.528       23.943       14.739     1334.303      573.285      217.251        0.524        0.106       91.324       16.028        0.031      341.989       17.084      862.622
08/22/2013  04:04:00      -62.501      -32.944        3.400       36.644       35.105       22.761     1342.798     1232.358      518.066        0.405        0.155       70.652       23.343        0.109      341.995       17.095      862.607
08/22/2013  04:05:00      -96.466      -40.269        3.342       33.729       31.211       19.364     1137.617      974.101      374.980        0.671        0.124      104.534       15.499        0.022      341.999       17.102      862.598
08/22/2013  04:06:00     -106.272      -57.146        5.204       36.331       19.928       18.271     1319.909      397.133      333.836        0.832        0.103      120.662       17.126        0.020      341.994       17.093      862.571
08/22/2013  04:07:00      -91.859      -23.051        0.274       20.963       25.810       10.912      439.455      666.135      119.072        0.510        0.061       94.707        9.153        0.009      341.950       17.019      862.559
08/22/2013  04:08:00      -98.951      -24.921       -5.145       21.800       17.476       12.147      475.250      305.402      147.558        0.568        0.046      102.041       12.944        0.016      341.954       17.026      862.542
08/22/2013  04:09:00      -67.811      -17.341       -3.787       33.477       21.450       16.268     1120.693      460.088      264.650        0.338        0.092       69.993       15.649        0.050      341.898       16.932      862.526
08/22/2013  04:10:00      -82.512      -23.058       -3.876       30.457       18.820       17.272      927.606      354.195      298.329        0.447        0.079       85.673       15.430        0.032      341.848       16.847      862.515
08/22/2013  04:11:00      -80.713      -25.061        1.469       21.781       19.569       17.052      474.405      382.955      290.760        0.415        0.057       84.514       12.607        0.022      341.886       16.909      862.511
08/22/2013  04:12:00      -91.111      -36.223       -1.692       22.533       15.158       15.287      507.735      229.760      233.698        0.529        0.049       98.048       13.416        0.019      341.863       16.872      862.515
08/22/2013  04:13:00      -80.506      -40.472       -4.659       12.026       16.628        9.981      144.616      276.494       99.629        0.433        0.026       90.106        5.354        0.004      341.877       16.896      862.516
08/22/2013  04:14:00      -49.311      -32.744        4.594       33.898       19.589       15.084     1149.089      383.747      227.541        0.264        0.088       59.192       20.385        0.119      341.922       16.972      862.513
08/22/2013  04:15:00      -87.906      -46.977       -8.522       23.450       20.001        9.367      549.900      400.051       87.736        0.552        0.052       99.671        9.223        0.009      341.899       16.932      862.510
08/22/2013  04:16:00      -91.359      -44.296       -6.259       19.640       16.566       12.103      385.742      274.424      146.480        0.558        0.040      101.531        6.125        0.004      341.863       16.872      862.514
08/22/2013  04:17:00      -69.971      -35.483      -10.914       23.263       12.349       11.053      541.147      152.497      122.171        0.354        0.041       78.454        9.781        0.016      341.846       16.840      862.510
08/22/2013  04:18:00      -63.418      -33.973       -0.839       16.409       15.250       12.209      269.245      232.551      149.050        0.291        0.033       71.944       10.687        0.022      341.829       16.813      862.506
08/22/2013  04:19:00      -89.713      -25.265       -5.799        7.996        8.171        6.816       63.938       66.770       46.459        0.445        0.009       93.202        2.981        0.001      341.898       16.929      862.503
08/22/2013  04:20:00      -89.481      -11.804       -6.985       21.459       13.056       11.716      460.490      170.466      137.265        0.448        0.038       90.256       11.355        0.016      341.893       16.921      862.491
08/22/2013  04:21:00      -98.966      -13.613       -7.730       15.331       11.252        9.761      235.053      126.599       95.284        0.525        0.023       99.897        9.450        0.009      341.877       16.895      862.470
08/22/2013  04:22:00      -60.195      -11.928       -4.423       16.968       19.715       12.448      287.911      388.671      154.947        0.231        0.042       61.366        6.996        0.013      341.877       16.893      862.456
08/22/2013  04:23:00      -81.866      -25.554       -9.903       13.843       10.334        8.348      191.639      106.790       69.686        0.391        0.018       85.762        6.982        0.007      341.864       16.871      862.462
08/22/2013  04:24:00      -84.206      -37.404       -5.028       17.733       13.292       11.164      314.460      176.683      124.642        0.457        0.031       92.140       10.044        0.012      341.880       16.900      862.465
08/22/2013  04:25:00      -92.212      -35.665       -5.497       15.718       17.423        9.135      247.062      303.557       83.453        0.522        0.032       98.869        8.677        0.008      341.888       16.913      862.444
08/22/2013  04:26:00      -81.099      -19.807       -5.737       17.039       17.123       10.127      290.325      293.194      102.555        0.384        0.034       83.483        6.975        0.007      341.899       16.933      862.420
08/22/2013  04:27:00      -82.555      -21.870      -10.480       13.834       13.996        8.300      191.366      195.880       68.886        0.393        0.023       85.403        4.612        0.003      341.808       16.777      862.406
08/22/2013  04:28:00      -80.216      -24.150       -7.909        8.803        9.946        7.312       77.490       98.922       53.464        0.366        0.011       83.772        5.058        0.004      341.772       16.718      862.400
08/22/2013  04:29:00      -82.345      -39.705       -6.106        9.435        8.934        7.005       89.017       79.815       49.063        0.431        0.011       91.418        4.729        0.003      341.788       16.745      862.401
08/22/2013  04:30:00      -97.874      -47.035      -11.971       15.627       11.233       12.090      244.203      126.176      146.174        0.623        0.026      108.589        4.226        0.002      341.789       16.747      862.392
08/22/2013  04:31:00      -99.852      -44.278       -3.841       11.135       17.647        7.582      123.991      311.413       57.492        0.622        0.025      109.229        5.496        0.003      341.797       16.758      862.376
08/22/2013  04:32:00     -106.891      -30.420      -11.879       14.834       16.557       11.032      220.043      274.145      121.708        0.655        0.031      111.135        3.338        0.001      341.745       16.670      862.363
08/22/2013  04:33:00      -83.608      -59.334       -9.600       29.942       18.675       16.600      896.520      348.751      275.552        0.606        0.076      102.522       11.459        0.012      341.722       16.634      862.353
08/22/2013  04:34:00      -81.029      -51.925       -7.003       27.791       19.270       13.778      772.315      371.344      189.839        0.532        0.067       96.239       13.965        0.021      341.697       16.589      862.356
08/22/2013  04:35:00      -58.332      -39.404        2.351       36.123       22.628       15.923     1304.847      512.014      253.538        0.352        0.104       70.394       12.872        0.033      341.684       16.568      862.352
08/22/2013  04:36:00      -55.274      -46.663        3.440       39.084       22.855       18.312     1527.569      522.366      335.323        0.381        0.119       72.337       16.568        0.052      341.624       16.467      862.339
08/22/2013  04:37:00      -68.886      -62.427        2.074       42.695       24.637       27.102     1822.891      606.965      734.494        0.591        0.158       92.965       24.427        0.069      341.586       16.401      862.332
08/22/2013  04:38:00      -84.921      -66.073       -1.097       34.241       44.074       22.081     1172.435     1942.499      487.552        0.759        0.180      107.597       26.462        0.060      341.522       16.293      862.336
08/22/2013  04:39:00      -79.314      -80.038       -4.138       41.131       38.105       23.164     1691.754     1452.024      536.584        0.820        0.184      112.680       23.275        0.043      341.525       16.297      862.344
08/22/2013  04:40:00      -90.333      -92.100       -3.626       34.961       30.424       23.457     1222.298      925.635      550.242        0.968        0.135      129.005       21.859        0.029      341.525       16.297      862.361
08/22/2013  04:41:00      -88.853      -84.502       -0.341       41.399       44.750       30.994     1713.914     2002.604      960.612        0.986        0.234      122.619       29.844        0.059      341.537       16.319      862.371
08/22/2013  04:42:00      -89.455      -66.466        3.239       45.725       31.265       26.149     2090.784      977.494      683.786        0.809        0.188      111.445       25.066        0.051      341.519       16.287      862.368
08/22/2013  04:43:00      -99.925      -72.261        2.294       40.352       38.845       25.682     1628.322     1508.942      659.572        0.950        0.190      123.315       22.382        0.033      341.480       16.220      862.370
08/22/2013  04:44:00     -109.275      -71.158        0.864       45.571       42.969       25.561     2076.690     1846.369      653.385        1.079        0.229      130.401       24.196        0.034      341.538       16.319      862.374
08/22/2013  04:45:00     -100.887      -62.983        0.495       55.412       41.955       31.021     3070.515     1760.205      962.303        0.997        0.290      118.933       23.758        0.040      341.514       16.278      862.377
08/22/2013  04:46:00     -129.778      -71.283       -0.098       67.858       45.168       37.471     4604.677     2040.186     1404.090        1.498        0.402      148.066       34.166        0.053      341.506       16.264      862.376
08/22/2013  04:47:00     -194.217     -122.807      -10.672       57.577       61.408       35.687     3315.143     3770.979     1273.588        3.064        0.418      229.787       28.548        0.015      341.452       16.169      862.370
08/22/2013  04:48:00     -180.236     -125.919       -7.828       58.832       59.312       40.269     3461.189     3517.898     1621.558        2.850        0.430      219.864       32.690        0.022      341.438       16.146      862.377
08/22/2013  04:49:00     -127.082     -111.036       -6.473       66.756       53.812       38.672     4456.310     2895.775     1495.520        1.868        0.442      168.757       41.200        0.060      341.445       16.159      862.380
08/22/2013  04:50:00     -100.785      -75.850       -5.241       46.099       37.369       26.149     2125.085     1396.460      683.749        1.007        0.210      126.138       24.933        0.039      341.467       16.199      862.381
08/22/2013  04:51:00     -113.133      -81.083       -6.092       41.453       36.508       27.038     1718.338     1332.857      731.027        1.160        0.189      139.189       26.517        0.036      341.500       16.254      862.383
08/22/2013  04:52:00     -119.288      -82.729       -2.769       41.468       33.187       24.979     1719.601     1101.346      623.968        1.226        0.172      145.168       26.418        0.033      341.542       16.326      862.385
08/22/2013  04:53:00     -112.973      -71.328       -0.735       29.458       29.697       17.557      867.782      881.902      308.234        0.995        0.103      133.606       15.586        0.014      341.538       16.319      862.388
08/22/2013  04:54:00      -79.527      -49.794        4.967       35.372       26.330       20.745     1251.148      693.261      430.373        0.560        0.119       93.830       19.633        0.044      341.524       16.296      862.381
08/22/2013  04:55:00      -67.389      -69.261        3.033       30.303       36.544       21.920      918.289     1335.486      480.476        0.604        0.137       96.636       18.823        0.038      341.530       16.305      862.372
08/22/2013  04:56:00      -26.029      -48.338       16.149       41.156       27.529       22.678     1693.836      757.855      514.310        0.312        0.148       54.901       25.288        0.212      341.514       16.277      862.375
08/22/2013  04:57:00      -18.227      -29.561       17.830       42.533       33.033       19.857     1809.050     1091.183      394.289        0.241        0.165       34.729       27.058        0.607      341.507       16.267      862.381
08/22/2013  04:58:00      -60.566      -54.278       -1.152       34.036       24.077       23.080     1158.452      579.696      532.688        0.444        0.114       81.329       22.758        0.078      341.467       16.199      862.367
08/22/2013  04:59:00      -39.840      -55.054        5.638       35.568       25.935       19.572     1265.096      672.620      383.068        0.348        0.116       67.957       18.704        0.076      341.496       16.247      862.358
08/22/2013  05:00:00      -37.281      -36.447        2.931       25.463       24.689       13.595      648.341      609.539      184.832        0.208        0.072       52.137       17.085        0.107      341.490       16.237      862.352
08/22/2013  05:01:00      -38.751       -7.177        3.340       22.472       25.655       11.461      504.976      658.171      131.366        0.143        0.065       39.410       13.434        0.116      341.456       16.180      862.332
08/22/2013  05:02:00      -64.184       -8.841       -3.432       23.335       15.322       13.538      544.512      234.769      183.284        0.259        0.048       64.790       14.035        0.047      341.390       16.069      862.317
08/22/2013  05:03:00      -79.873       -6.525       -6.897       19.539       17.954       12.314      381.781      322.351      151.631        0.366        0.043       80.139        8.936        0.012      341.342       15.987      862.317
08/22/2013  05:04:00      -80.369       -6.087        0.517       34.324       23.479       19.060     1178.129      551.279      363.289        0.429        0.105       80.599       19.797        0.060      341.263       15.853      862.318
08/22/2013  05:05:00      -59.970      -32.121        0.177       32.870       27.345       16.317     1080.467      747.745      266.246        0.336        0.105       68.030       12.953        0.036      341.333       15.974      862.309
08/22/2013  05:06:00      -75.535      -43.904       -0.487       29.496       20.964       11.723      870.028      439.507      137.417        0.454        0.072       87.367        8.830        0.010      341.377       16.046      862.297
08/22/2013  05:07:00      -74.385      -17.221        0.448       18.660       19.609       12.470      348.209      384.497      155.496        0.336        0.044       76.352       12.198        0.026      341.276       15.876      862.285
08/22/2013  05:08:00      -94.932      -26.217      -13.123       15.519       17.238       10.078      240.825      297.160      101.572        0.526        0.032       98.485        6.663        0.005      341.290       15.901      862.289
08/22/2013  05:09:00      -87.701      -32.851      -14.846       19.781       28.827       12.299      391.277      830.981      151.262        0.518        0.069       93.652       12.908        0.019      341.339       15.982      862.279
08/22/2013  05:10:00      -51.715      -12.288        3.633       36.737       20.236       15.838     1349.583      409.484      250.854        0.242        0.100       53.155       19.254        0.131      341.222       15.784      862.270
08/22/2013  05:11:00      -70.249      -11.008       -1.968       25.557       15.307       15.675      653.155      234.304      245.710        0.310        0.057       71.107       15.062        0.045      341.220       15.781      862.264
08/22/2013  05:12:00     -100.712      -15.325       -5.264       33.946       26.106       16.276     1152.311      681.505      264.894        0.625        0.105      101.871       16.539        0.026      341.201       15.750      862.269
08/22/2013  05:13:00     -100.135      -33.806        4.450       32.504       33.841       21.439     1056.511     1145.196      459.615        0.693        0.133      105.688       15.908        0.023      341.195       15.741      862.264
08/22/2013  05:14:00      -68.515      -13.918        8.490       42.507       29.397       20.563     1806.810      864.179      422.831        0.403        0.155       69.914       21.635        0.096      341.124       15.619      862.256
08/22/2013  05:15:00      -92.525       -9.140       -1.173       38.190       27.063       22.359     1458.490      732.415      499.906        0.567        0.135       92.975       14.081        0.023      341.075       15.537      862.258
08/22/2013  05:16:00     -130.499      -54.948       -6.561       23.152       27.974       17.099      536.011      782.528      292.389        1.085        0.081      141.595        9.399        0.004      341.101       15.580      862.264
08/22/2013  05:17:00     -129.664      -68.257      -13.074       25.695       34.501       19.795      660.225     1190.321      391.856        1.194        0.112      146.533       11.905        0.007      341.145       15.654      862.264
08/22/2013  05:18:00     -138.068      -29.908       -4.893       28.315       27.149       17.756      801.739      737.052      315.266        1.092        0.093      141.271       11.663        0.007      341.103       15.582      862.249
08/22/2013  05:19:00     -105.465      -52.253        1.044       34.887       35.083       16.575     1217.110     1230.802      274.726        0.829        0.136      117.700       19.575        0.028      341.171       15.698      862.234
08/22/2013  05:20:00     -117.519      -29.766       -4.814       27.049       24.468       17.475      731.646      598.662      305.374        0.818        0.082      121.230       10.041        0.007      341.178       15.712      862.229
08/22/2013  05:21:00      -80.985      -35.717        2.773       29.416       19.694       17.852      865.321      387.853      318.680        0.471        0.079       88.512       14.724        0.028      341.188       15.727      862.243
08/22/2013  05:22:00      -95.434      -30.903       -6.215       27.390       22.846       13.967      750.236      521.953      195.084        0.578        0.073      100.312       12.494        0.016      341.186       15.724      862.251
08/22/2013  05:23:00      -60.929      -40.705       -6.434       29.025       22.725       12.090      842.467      516.435      146.165        0.346        0.075       73.275       10.359        0.020      341.248       15.828      862.258
08/22/2013  05:24:00      -64.964      -31.572      -10.037       29.819       25.790       10.889      889.153      665.124      118.581        0.350        0.084       72.230        8.564        0.014      341.263       15.852      862.271
08/22/2013  05:25:00      -42.102      -35.763        1.432       39.303       19.150       16.180     1544.748      366.715      261.787        0.261        0.109       55.241       18.695        0.115      341.308       15.930      862.288
08/22/2013  05:26:00      -24.622      -21.021        3.672       30.581       17.174       13.748      935.216      294.931      189.003        0.124        0.071       32.375       14.058        0.189      341.233       15.805      862.290
08/22/2013  05:27:00       -8.482      -24.180        9.456       15.710       12.729       15.733      246.817      162.033      247.519        0.070        0.033       25.625       13.683        0.285      341.298       15.914      862.280
08/22/2013  05:28:00      -18.024       -7.806        6.732       23.607       12.548       13.667      557.309      157.454      186.786        0.067        0.045       19.642        9.900        0.254      341.254       15.841      862.271
08/22/2013  05:29:00      -36.957      -22.020       -1.206       21.636       13.983       11.829      468.136      195.532      139.929        0.133        0.040       43.020        8.221        0.037      341.346       15.994      862.257
08/22/2013  05:30:00      -72.681      -29.944       -5.326       19.545       17.865        9.708      382.008      319.143       94.244        0.350        0.040       78.607        5.753        0.005      341.320       15.950      862.250
08/22/2013  05:31:00      -87.641      -26.859       -4.043       20.574       11.033        8.851      423.298      121.721       78.343        0.452        0.031       91.664        4.126        0.002      341.288       15.896      862.243
08/22/2013  05:32:00      -99.464      -50.902       -4.914       38.061       21.510       20.267     1448.650      462.668      410.744        0.741        0.116      111.733       21.946        0.039      341.232       15.802      862.237
08/22/2013  05:33:00     -114.673      -48.784        2.619       31.273       23.457       17.387      977.981      550.218      302.309        0.868        0.092      124.619       17.736        0.020      341.203       15.752      862.235
08/22/2013  05:34:00     -104.175      -56.957       -0.269       42.621       25.238       16.982     1816.554      636.939      288.373        0.842        0.137      118.729       11.359        0.009      341.259       15.849      862.235
08/22/2013  05:35:00     -107.493      -57.216       -8.265       37.768       21.933       16.690     1426.405      481.075      278.559        0.854        0.109      121.772        7.651        0.004      341.300       15.917      862.240
08/22/2013  05:36:00      -63.103      -43.098        2.085       39.830       25.469       19.394     1586.467      648.659      376.140        0.423        0.131       76.416       22.638        0.088      341.271       15.869      862.247
08/22/2013  05:37:00      -67.735      -48.726        0.931       54.168       26.183       17.876     2934.125      685.562      319.566        0.545        0.197       83.440       16.119        0.037      341.314       15.940      862.252
08/22/2013  05:38:00      -42.861      -56.964        3.828       27.265       28.424       18.452      743.381      807.925      340.494        0.349        0.095       71.288       13.338        0.035      341.278       15.879      862.265
08/22/2013  05:39:00       -6.544      -12.606        2.678       13.974       18.779       13.573      195.279      352.649      184.214        0.047        0.037       14.203        9.601        0.457      341.293       15.904      862.271
08/22/2013  05:40:00      -24.611        4.755       -7.194       13.652       10.868       10.354      186.369      118.110      107.200        0.055        0.021       25.066        5.225        0.043      341.303       15.921      862.280
08/22/2013  05:41:00      -27.271       -2.460       -5.497       17.356       14.180       11.460      301.214      201.065      131.328        0.071        0.032       27.382        7.659        0.078      341.374       16.043      862.285
08/22/2013  05:42:00      -63.804      -27.983      -12.603       25.261       20.377       17.778      638.138      415.216      316.074        0.319        0.068       69.671       11.268        0.026      341.381       16.054      862.277
08/22/2013  05:43:00      -32.391      -35.702        1.818       35.457       28.135       18.963     1257.208      791.576      359.609        0.237        0.120       48.206       18.034        0.140      341.316       15.946      862.278
08/22/2013  05:44:00      -14.118      -30.398       11.546       25.213       23.440       17.798      635.688      549.418      316.779        0.138        0.075       33.516       13.588        0.164      341.265       15.857      862.272
08/22/2013  05:45:00      -43.154      -40.593        1.759       27.520       32.613       19.736      757.339     1063.600      389.522        0.286        0.111       59.245        9.829        0.028      341.206       15.757      862.264
08/22/2013  05:46:00      -54.840      -48.548       -1.336       31.055       28.657       18.031      964.407      821.212      325.100        0.374        0.106       73.242        7.426        0.010      341.237       15.811      862.259
08/22/2013  05:47:00      -22.786      -65.809       -1.460       32.852       27.212       20.083     1079.223      740.506      403.334        0.354        0.111       69.642       17.281        0.062      341.266       15.860      862.251
08/22/2013  05:48:00      -12.839      -48.808       -1.939       27.474       31.331       17.046      754.794      981.632      290.556        0.229        0.101       50.468       17.379        0.119      341.309       15.933      862.247
08/22/2013  05:49:00      -18.104      -21.413        8.223       32.825       21.244       19.607     1077.453      451.301      384.448        0.138        0.096       28.040       18.953        0.457      341.318       15.947      862.243
08/22/2013  05:50:00      -43.828      -28.679        0.917       38.387       20.676       19.569     1473.545      427.507      382.964        0.251        0.114       52.377       15.396        0.086      341.315       15.943      862.231
08/22/2013  05:51:00      -75.645      -57.246        0.309       44.273       38.013       22.291     1960.082     1444.961      496.884        0.645        0.195       94.865       22.687        0.057      341.256       15.842      862.203
08/22/2013  05:52:00      -97.835      -66.376       -2.321       30.962       25.837       22.554      958.673      667.560      508.702        0.806        0.107      118.227       16.486        0.019      341.206       15.759      862.190
08/22/2013  05:53:00      -63.323      -58.751        1.854       51.612       35.521       18.991     2663.751     1261.733      360.665        0.587        0.214       86.380       18.317        0.045      341.200       15.747      862.178
08/22/2013  05:54:00      -97.947      -82.377       -3.314       44.868       30.745       22.571     2013.117      945.245      509.441        0.993        0.173      127.982       20.668        0.026      341.196       15.743      862.173
08/22/2013  05:55:00      -84.636      -73.724       -2.436       37.707       39.493       23.756     1421.801     1559.722      564.350        0.807        0.177      112.243       24.422        0.047      341.236       15.811      862.172
08/22/2013  05:56:00      -81.971      -61.070       -4.003       31.654       24.361       14.264     1001.983      593.467      203.462        0.613        0.090      102.219       13.277        0.017      341.260       15.848      862.170
08/22/2013  05:57:00      -71.563      -43.492       -5.758       13.673       19.161       10.994      186.942      367.135      120.867        0.386        0.034       83.742        3.434        0.002      341.254       15.839      862.163
08/22/2013  05:58:00      -51.189      -31.587       -6.907       24.217       15.086       12.512      586.467      227.581      156.543        0.232        0.049       60.150        9.791        0.026      341.211       15.767      862.158
08/22/2013  05:59:00      -59.606      -28.148      -14.040        6.081        8.016        6.423       36.978       64.261       41.259        0.234        0.007       65.918        4.352        0.004      341.206       15.758      862.160
08/22/2013  06:00:00      -55.206      -37.826       -5.984       17.917       15.930       11.305      321.027      253.776      127.812        0.261        0.035       66.922        8.524        0.016      341.264       15.855      862.168
08/22/2013  06:01:00      -54.653      -51.094       -6.855       30.916       14.124       11.842      955.800      199.491      140.235        0.347        0.065       74.817       14.199        0.036      341.248       15.829      862.169
08/22/2013  06:02:00      -62.488      -55.863       -7.156       22.475       28.846       14.524      505.128      832.068      210.952        0.431        0.077       83.818       15.421        0.034      341.248       15.830      862.171
08/22/2013  06:03:00      -85.225      -18.403       -5.830       13.389       14.434       10.642      179.255      208.326      113.245        0.407        0.025       87.190        6.726        0.006      341.238       15.812      862.181
08/22/2013  06:04:00      -60.432      -28.925        3.945       22.744       13.696       16.062      517.297      187.594      257.972        0.273        0.048       66.998       10.110        0.023      341.153       15.669      862.188
08/22/2013  06:05:00      -30.932      -21.391        5.196       37.336       21.737       14.866     1394.006      472.479      220.992        0.176        0.104       37.608       14.751        0.154      341.155       15.672      862.203
08/22/2013  06:06:00      -96.369      -84.094       -8.395       49.196       42.598       25.548     2420.264     1814.580      652.703        1.066        0.244      127.901       28.951        0.051      341.137       15.643      862.219
08/22/2013  06:07:00     -100.480      -85.531       -8.254       35.075       29.053       19.073     1230.245      844.101      363.774        0.996        0.122      131.954       14.767        0.013      341.120       15.612      862.234
08/22/2013  06:08:00      -47.734      -44.956        1.942       61.964       33.718       27.714     3839.509     1136.907      768.057        0.502        0.287       65.571       23.918        0.133      341.056       15.504      862.246
08/22/2013  06:09:00      -87.064      -80.430       -3.910       45.464       34.794       23.983     2067.007     1210.620      575.182        0.896        0.193      118.529       15.560        0.017      341.067       15.523      862.262
08/22/2013  06:10:00      -74.393      -37.208       11.923       57.690       45.172       31.188     3328.188     2040.503      972.677        0.670        0.317       83.179       27.955        0.113      341.019       15.441      862.262
08/22/2013  06:11:00      -44.642      -36.418        1.838       44.146       34.038       26.631     1948.840     1158.582      709.199        0.357        0.191       57.613       22.167        0.148      341.053       15.498      862.270
08/22/2013  06:12:00      -76.049      -53.678        4.873       46.573       39.034       27.464     2169.005     1523.648      754.272        0.657        0.222       93.085       21.214        0.052      341.029       15.459      862.278
08/22/2013  06:13:00      -95.554      -50.515       -2.394       54.496       35.604       21.236     2969.779     1267.619      450.962        0.819        0.234      108.085       19.158        0.031      341.044       15.485      862.290
08/22/2013  06:14:00      -82.121      -79.096       -0.089       35.132       34.389       18.674     1234.246     1182.604      348.707        0.788        0.138      114.017       12.724        0.012      341.064       15.519      862.303
08/22/2013  06:15:00       -6.558      -34.676       -2.712       23.867       19.539       14.252      569.640      381.762      203.123        0.120        0.058       35.290        7.786        0.049      341.131       15.632      862.321
08/22/2013  06:16:00      -32.132      -14.910       -2.857       20.761       16.444       15.573      431.023      270.400      242.518        0.110        0.047       35.423       14.246        0.162      341.121       15.615      862.335
08/22/2013  06:17:00      -58.544      -14.065        5.828       27.113       21.468       16.051      735.109      460.877      257.626        0.256        0.073       60.210       16.258        0.073      341.109       15.594      862.340
08/22/2013  06:18:00      -28.161      -12.041        5.292       22.177       15.258        9.111      491.839      232.802       83.002        0.089        0.040       30.628        6.286        0.042      341.137       15.640      862.352
08/22/2013  06:19:00      -37.280      -29.809       -2.171       19.763       12.449        9.976      390.564      154.966       99.512        0.146        0.032       47.732        3.117        0.004      341.238       15.813      862.355
08/22/2013  06:20:00      -33.535      -36.728      -13.235       33.948       16.512       14.733     1152.477      272.659      217.069        0.215        0.082       49.735        3.985        0.006      341.150       15.662      862.364
08/22/2013  06:21:00      -49.103      -46.751       -1.025       25.044       18.897       18.260      627.201      357.100      333.435        0.296        0.066       67.799       18.595        0.075      341.136       15.639      862.375
08/22/2013  06:22:00      -50.588      -49.041       -0.012       15.626       18.771       12.897      244.164      352.347      166.323        0.286        0.038       70.457        9.110        0.017      341.170       15.696      862.393
08/22/2013  06:23:00      -56.527      -58.491       -6.588       26.618       22.569       14.162      708.497      509.380      200.557        0.404        0.071       81.342        9.333        0.013      341.192       15.734      862.404
08/22/2013  06:24:00      -55.630      -52.140        5.315       36.813       33.174       18.760     1355.229     1100.531      351.934        0.432        0.140       76.245       23.150        0.092      341.152       15.666      862.401
08/22/2013  06:25:00      -83.490      -70.345       -6.589       21.220       25.429       19.057      450.285      646.625      363.161        0.671        0.073      109.174       11.966        0.012      341.185       15.726      862.394
08/22/2013  06:26:00      -90.314      -70.009       -7.126       15.016       17.358       14.466      225.480      301.299      209.274        0.692        0.037      114.272       11.229        0.010      341.181       15.716      862.383
08/22/2013  06:27:00      -57.783      -59.109        1.408       42.479       28.012       22.555     1804.470      784.697      508.719        0.497        0.155       82.660       28.594        0.120      341.182       15.717      862.378
08/22/2013  06:28:00      -80.692      -43.595       -3.936       16.276       34.372       16.455      264.899     1181.417      270.751        0.507        0.086       91.715        8.807        0.009      341.144       15.654      862.375
08/22/2013  06:29:00      -60.300       -8.123       -2.737       10.145       10.488        8.842      102.915      110.005       78.188        0.200        0.015       60.844        4.028        0.004      341.162       15.682      862.370
08/22/2013  06:30:00      -54.267        9.498       -7.810        9.758        9.289        8.037       95.222       86.288       64.598        0.167        0.012       55.092        4.398        0.006      341.090       15.560      862.372
08/22/2013  06:31:00      -50.222       13.965       -5.085       12.364        7.878        9.320      152.859       62.055       86.860        0.152        0.015       52.127        6.419        0.015      341.017       15.437      862.386
08/22/2013  06:32:00      -48.063       20.863       -8.350       12.879       10.267        7.729      165.880      105.408       59.737        0.157        0.017       52.396        4.847        0.009      341.017       15.438      862.400
08/22/2013  06:33:00      -56.338        9.224       -5.424       11.991        8.831        7.746      143.776       77.992       59.996        0.179        0.014       57.088        3.680        0.004      341.065       15.520      862.407
08/22/2013  06:34:00      -69.018      -23.066      -10.725       11.920       19.094       11.157      142.098      364.573      124.470        0.302        0.032       72.770        8.693        0.014      341.065       15.520      862.409
08/22/2013  06:35:00      -84.057      -36.737      -11.161       12.502       17.143        9.276      156.288      293.876       86.040        0.454        0.027       91.734        4.979        0.003      341.029       15.460      862.408
08/22/2013  06:36:00      -80.767      -46.039       -1.565       23.125       23.300       14.314      534.743      542.903      204.901        0.496        0.064       92.968       12.830        0.019      340.964       15.348      862.402
08/22/2013  06:37:00      -88.405      -16.423       -8.300       27.506       24.610       12.762      756.580      605.651      162.861        0.484        0.076       89.918       11.501        0.016      340.895       15.232      862.394
08/22/2013  06:38:00      -84.579      -18.490       -7.616       16.794       18.397       11.148      282.034      338.465      124.273        0.415        0.037       86.577        8.162        0.009      340.865       15.180      862.401
08/22/2013  06:39:00      -67.264      -30.002       -4.255       26.101       21.651       13.766      681.243      468.775      189.495        0.339        0.067       73.652       12.143        0.027      340.872       15.194      862.416
08/22/2013  06:40:00      -80.228      -28.032       -7.640       17.136       20.234       11.841      293.637      409.413      140.219        0.406        0.042       84.985        7.311        0.007      340.850       15.156      862.444
08/22/2013  06:41:00      -65.921      -11.115       -9.352       26.584       18.441       13.712      706.686      340.060      188.028        0.290        0.062       66.852       13.327        0.040      340.845       15.144      862.467
08/22/2013  06:42:00      -63.619      -25.749      -11.168       20.540       16.090       12.640      421.891      258.888      159.776        0.284        0.042       68.632        8.748        0.016      340.849       15.152      862.491
08/22/2013  06:43:00      -33.910       -5.814       -1.219       31.918       12.435       12.540     1018.764      154.631      157.244        0.126        0.067       34.405       10.946        0.101      340.807       15.083      862.504
08/22/2013  06:44:00      -15.076       -7.071        3.326       18.508       10.229       14.852      342.546      104.638      220.585        0.048        0.033       16.652       14.117        0.719      340.813       15.093      862.517
08/22/2013  06:45:00      -17.238       -1.100       -4.217       18.171        9.144       12.244      330.176       83.613      149.918        0.044        0.028       17.273       13.411        0.603      340.817       15.099      862.522
08/22/2013  06:46:00      -24.632       -2.578       -7.964        7.121        8.455        7.401       50.704       71.492       54.772        0.043        0.009       24.766        5.437        0.048      340.873       15.193      862.520
08/22/2013  06:47:00      -21.190       -6.360       -1.497        9.123        5.724        4.448       83.231       32.770       19.786        0.031        0.007       22.123        3.115        0.020      341.051       15.494      862.524
08/22/2013  06:48:00      -18.229       -2.201        2.541       18.786       12.854       12.644      352.903      165.217      159.863        0.051        0.034       18.362       12.668        0.476      341.094       15.568      862.533
08/22/2013  06:49:00      -28.308      -11.844        0.308       30.633       10.184        9.639      938.358      103.715       92.915        0.104        0.057       30.686       11.322        0.136      341.064       15.517      862.542
08/22/2013  06:50:00      -50.260      -13.171       -0.684       16.365       11.196        7.413      267.815      125.358       54.957        0.157        0.022       51.957        4.675        0.008      341.064       15.519      862.550
08/22/2013  06:51:00      -21.567        1.764       -6.079       12.298        4.837        5.054      151.236       23.399       25.545        0.035        0.010       21.639        2.671        0.015      341.062       15.517      862.550
08/22/2013  06:52:00       20.067       19.085       10.104       14.348       10.788        9.453      205.877      116.377       89.356        0.064        0.021       27.693        5.839        0.044      341.196       15.742      862.539
08/22/2013  06:53:00       27.107       31.689        9.996       14.513       12.401       12.168      210.640      153.792      148.066        0.118        0.026       41.700        9.940        0.057      341.220       15.781      862.524
08/22/2013  06:54:00       17.588       35.438       -2.525       16.401       22.992       14.428      269.004      528.642      208.177        0.129        0.050       39.563        9.614        0.059      341.212       15.769      862.513
08/22/2013  06:55:00       15.227       57.264       -7.283       17.724       25.742       14.416      314.144      662.664      207.819        0.237        0.059       59.253       16.289        0.076      341.248       15.828      862.512
08/22/2013  06:56:00        3.803       63.240       -1.765       13.042       33.577       14.941      170.087     1127.419      223.235        0.277        0.076       63.354       16.924        0.071      341.248       15.828      862.518
08/22/2013  06:57:00      -19.144       -0.323        0.713       10.651       13.189        8.682      113.445      173.957       75.373        0.036        0.018       19.146        5.575        0.085      341.215       15.774      862.533
08/22/2013  06:58:00       -8.639       -4.939        0.022        9.369        6.995        5.969       87.775       48.929       35.626        0.014        0.009        9.951        4.018        0.163      341.349       15.999      862.548
08/22/2013  06:59:00       -2.317        8.218        9.909       16.688        7.125        7.086      278.486       50.773       50.206        0.028        0.019        8.539        8.717        1.042      341.332       15.971      862.558
08/22/2013  07:00:00       57.657       41.046        8.106       25.943       18.202       16.133      673.048      331.331      260.266        0.317        0.063       70.775       15.151        0.046      341.426       16.128      862.574
08/22/2013  07:01:00       52.294       25.495        8.997       18.355       19.554       13.858      336.894      382.367      192.031        0.219        0.046       58.178       15.234        0.069      341.447       16.166      862.583
08/22/2013  07:02:00       81.274       44.911        7.573       12.446       13.443       10.538      154.901      180.718      111.048        0.456        0.022       92.857        3.458        0.001      341.397       16.082      862.594
08/22/2013  07:03:00       83.891       37.523        3.692       20.836       13.252       15.228      434.153      175.609      231.906        0.465        0.042       91.900        7.768        0.007      341.424       16.126      862.602
08/22/2013  07:04:00       56.682       36.177        6.773       16.204       15.868       11.963      262.558      251.803      143.122        0.261        0.033       67.244        6.445        0.009      341.480       16.220      862.596
08/22/2013  07:05:00       49.233       39.299        8.778       16.686       14.720       12.378      278.407      216.679      153.224        0.235        0.032       62.995        7.164        0.013      341.480       16.220      862.593
08/22/2013  07:06:00       52.625       41.766       14.283       15.693       11.356       12.728      246.276      128.957      162.004        0.263        0.027       67.185        5.802        0.007      341.520       16.289      862.607
08/22/2013  07:07:00       67.063       64.579       34.039       19.395       14.611       16.412      376.165      213.476      269.359        0.534        0.043       93.101        6.297        0.005      341.583       16.400      862.610
08/22/2013  07:08:00       75.218       53.849       31.369       24.452       17.372       22.928      597.885      301.803      525.700        0.548        0.071       92.506       12.439        0.018      341.622       16.462      862.622
08/22/2013  07:09:00       83.598       69.821       32.775       23.466       16.505       18.555      550.667      272.423      344.306        0.705        0.058      108.920        5.473        0.003      341.655       16.517      862.636
08/22/2013  07:10:00       32.363       37.704       40.403       27.702       22.881       18.148      767.384      523.528      329.355        0.286        0.081       49.689       12.607        0.064      341.820       16.798      862.643
08/22/2013  07:11:00       14.555       29.815       43.398       23.554       27.446       17.613      554.769      753.276      310.206        0.230        0.081       33.178       11.101        0.112      341.798       16.760      862.649
08/22/2013  07:12:00       12.745       25.210       18.449       30.889       26.932       17.125      954.158      725.327      293.266        0.156        0.099       28.248        9.733        0.119      341.722       16.631      862.650
08/22/2013  07:13:00        3.661        3.561       21.720       18.896       11.474       10.794      357.068      131.656      116.514        0.055        0.030        5.107        5.769        1.276      341.945       17.009      862.648
08/22/2013  07:14:00       22.152      -67.699        2.165       35.589       26.380       22.843     1266.550      695.923      521.792        0.378        0.124       71.231       13.639        0.037      341.713       16.616      862.652
08/22/2013  07:15:00       29.998      -58.122       -0.644       26.379       41.784       23.672      695.855     1745.862      560.347        0.364        0.150       65.407       19.126        0.086      341.692       16.582      862.656
08/22/2013  07:16:00       16.943      -62.584        6.690       27.102       26.202       24.575      734.496      686.566      603.950        0.314        0.101       64.837       15.341        0.056      341.679       16.558      862.650
08/22/2013  07:17:00       -9.051      -10.853        4.630       13.534       16.867       21.422      183.158      284.507      458.881        0.057        0.046       14.132        6.316        0.200      341.846       16.843      862.642
08/22/2013  07:18:00        8.072        6.190       28.134       20.740       36.094       16.803      430.145     1302.793      282.355        0.145        0.101       10.173       17.998        3.130      342.039       17.170      862.626
08/22/2013  07:19:00       33.983       31.087       26.760       35.535       32.650       26.988     1262.753     1066.052      728.344        0.295        0.153       46.056       20.217        0.193      341.821       16.800      862.633
08/22/2013  07:20:00       85.525       47.070       24.965       32.080       22.567       24.455     1029.098      509.261      598.052        0.614        0.107       97.623       14.346        0.022      341.807       16.777      862.624
08/22/2013  07:21:00       97.273       58.828       23.693       32.516       31.447       30.545     1057.304      988.890      932.991        0.823        0.149      113.678        9.551        0.007      341.702       16.598      862.614
08/22/2013  07:22:00      106.896       73.131       19.658       26.270       25.433       28.031      690.095      646.849      785.744        0.964        0.106      129.518       17.314        0.018      341.691       16.580      862.602
08/22/2013  07:23:00       61.251       66.922       42.768       47.026       16.454       33.261     2211.434      270.731     1106.289        0.682        0.179       90.721       31.071        0.117      341.790       16.748      862.594
08/22/2013  07:24:00       32.039       34.155       48.333       18.619       21.564       16.730      346.675      465.022      279.900        0.281        0.055       46.830       12.350        0.070      341.877       16.894      862.585
08/22/2013  07:25:00       28.978       37.550       48.566       26.410       20.645       14.730      697.488      426.234      216.961        0.297        0.067       47.431        7.498        0.025      341.981       17.071      862.571
08/22/2013  07:26:00       34.986       14.217       19.714       23.568       22.030       21.073      555.462      485.337      444.091        0.165        0.074       37.764       15.233        0.163      342.057       17.201      862.574
08/22/2013  07:27:00       63.454       41.632       23.522       25.054       22.447       23.442      627.701      503.851      549.539        0.400        0.084       75.893        8.991        0.014      341.943       17.007      862.571
08/22/2013  07:28:00       68.315       52.806        4.507       22.096       21.984       18.111      488.213      483.280      327.996        0.439        0.065       86.345       11.718        0.018      341.842       16.837      862.570
08/22/2013  07:29:00       75.090       47.982        9.036       28.813       21.618       18.569      830.182      467.339      344.811        0.483        0.082       89.111        6.265        0.005      341.937       16.997      862.564
08/22/2013  07:30:00       67.606       64.142       12.082       28.173       25.851       23.728      793.711      668.279      563.035        0.543        0.101       93.192       16.310        0.031      341.859       16.864      862.555
08/22/2013  07:31:00       93.316       67.023        3.509       25.721       26.271       20.235      661.572      690.155      409.475        0.749        0.088      114.891       13.757        0.014      341.796       16.758      862.550
08/22/2013  07:32:00       93.865       65.736       14.659       19.726       21.914       19.710      389.098      480.211      388.476        0.730        0.063      114.594       13.029        0.013      341.790       16.749      862.548
08/22/2013  07:33:00       80.199       51.786        8.807       20.398       18.635       16.393      416.083      347.280      268.718        0.511        0.052       95.466       12.921        0.018      341.802       16.767      862.530
08/22/2013  07:34:00       49.688       35.485        6.936       17.160       15.337       17.841      294.454      235.209      318.292        0.231        0.042       61.057        5.865        0.009      341.883       16.905      862.527
08/22/2013  07:35:00       60.543       45.126       24.575       25.925       16.013       22.616      672.107      256.408      511.501        0.387        0.072       75.510       14.224        0.035      341.987       17.081      862.526
08/22/2013  07:36:00       72.347       52.438       11.264       12.933       16.908       16.010      167.261      285.877      256.334        0.441        0.035       89.352       10.915        0.015      341.780       16.730      862.525
08/22/2013  07:37:00       90.031       55.512       26.056       22.367       24.051       24.996      500.262      578.438      624.786        0.678        0.085      105.770       18.455        0.030      341.791       16.750      862.527
08/22/2013  07:38:00       69.775       61.587       28.987       19.456       19.683       24.982      378.548      387.432      624.121        0.545        0.070       93.067        9.525        0.010      341.839       16.830      862.542
08/22/2013  07:39:00       72.891       52.721       33.140       29.545       19.709       23.128      872.934      388.432      534.895        0.549        0.090       89.960       10.391        0.013      341.974       17.060      862.556
08/22/2013  07:40:00       41.926       34.770       10.166       19.989       14.114       15.079      399.577      199.212      227.372        0.195        0.041       54.467       13.136        0.058      341.878       16.896      862.564
08/22/2013  07:41:00       10.247        9.952       17.696       23.380       31.610       24.552      546.608      999.202      602.824        0.133        0.107       14.284       13.079        0.838      342.238       17.508      862.557
08/22/2013  07:42:00       12.604        6.148       39.082       21.170       16.789       12.027      448.173      281.886      144.642        0.130        0.044       14.024        6.827        0.237      342.553       18.044      862.537
08/22/2013  07:43:00       30.444       28.900        6.121       17.198       17.717       15.431      295.771      313.903      238.107        0.132        0.042       41.977       12.483        0.088      342.019       17.136      862.525
08/22/2013  07:44:00       19.165       38.240       -1.654       15.672       21.052       16.626      245.616      443.194      276.414        0.140        0.048       42.774       10.658        0.062      342.061       17.207      862.518
08/22/2013  07:45:00        9.420       15.045       17.519       16.286       11.705       10.959      265.235      137.004      120.108        0.057        0.026       17.751        5.557        0.098      342.404       17.790      862.506
08/22/2013  07:46:00       22.585       13.864       17.263       27.241       27.691       17.261      742.066      766.791      297.939        0.140        0.090       26.501       12.408        0.219      342.405       17.791      862.509
08/22/2013  07:47:00       41.715       46.156       31.362       22.327       23.744       23.068      498.477      563.773      532.131        0.322        0.080       62.213       11.616        0.035      342.251       17.529      862.526
08/22/2013  07:48:00       16.437       19.142       21.800       19.689       15.348       16.197      387.667      235.550      262.332        0.100        0.044       25.231       12.133        0.231      342.489       17.935      862.532
08/22/2013  07:49:00        8.935        5.108       24.484       20.547       27.461       15.679      422.179      754.125      245.826        0.106        0.071       10.292       14.824        2.075      342.541       18.024      862.526
08/22/2013  07:50:00       12.232       -3.709       10.361       21.338       38.509       15.443      455.326     1482.925      238.499        0.122        0.109       12.781        9.945        0.605      342.418       17.813      862.514
08/22/2013  07:51:00       10.924       13.973       35.139       16.049       15.927        9.478      257.556      253.682       89.837        0.108        0.030       17.736        3.201        0.033      342.798       18.460      862.497
08/22/2013  07:52:00       11.260        1.272       30.289       13.737        8.933        8.094      188.716       79.799       65.514        0.069        0.017       11.332        6.925        0.373      342.808       18.477      862.485
08/22/2013  07:53:00        0.921       21.431       20.813       15.731       18.582       17.757      247.453      345.291      315.313        0.090        0.045       21.451       13.544        0.399      342.853       18.553      862.482
08/22/2013  07:54:00       18.689       27.655       22.993       23.416       22.354       19.184      548.321      499.715      368.043        0.153        0.071       33.378       13.183        0.156      342.865       18.573      862.481
08/22/2013  07:55:00       20.193       47.610       35.753       22.626       24.749       17.416      511.947      612.489      303.329        0.269        0.071       51.715       12.240        0.056      342.572       18.076      862.474
08/22/2013  07:56:00       85.744       49.486       20.786       29.090       20.555       29.460      846.235      422.518      867.917        0.618        0.107       98.999       22.746        0.053      342.333       17.669      862.483
08/22/2013  07:57:00       88.693       55.550        1.109       25.284       24.264       20.667      639.291      588.749      427.141        0.630        0.083      104.652       13.578        0.017      342.290       17.597      862.486
08/22/2013  07:58:00      106.887       54.372        1.411       31.520       41.688       37.291      993.541     1737.903     1390.633        0.925        0.206      119.922       23.729        0.039      342.362       17.718      862.475
08/22/2013  07:59:00       93.235       80.163        4.155       40.643       32.781       31.870     1651.819     1074.580     1015.717        0.944        0.187      122.959       11.418        0.009      342.401       17.786      862.474
08/22/2013  08:00:00       50.228       54.355       46.778       38.404       35.188       23.860     1474.839     1238.193      569.301        0.547        0.164       74.008       12.463        0.028      342.574       18.078      862.471
08/22/2013  08:01:00       43.773       28.648       54.744       31.933       22.210       17.298     1019.715      493.281      299.214        0.377        0.091       52.314       13.829        0.070      342.569       18.071      862.465
08/22/2013  08:02:00        3.191      -16.674       13.555       21.367       29.401       21.435      456.529      864.406      459.456        0.113        0.089       16.976       10.609        0.391      342.557       18.049      862.465
08/22/2013  08:03:00        4.589      -51.940       12.111       22.976       33.424       24.189      527.877     1117.151      585.090        0.255        0.112       52.143       15.325        0.086      342.552       18.039      862.464
08/22/2013  08:04:00        4.254      -25.416       25.203       16.044       29.775       20.786      257.397      886.563      432.057        0.144        0.079       25.770       13.893        0.291      342.841       18.533      862.460
08/22/2013  08:05:00       52.074       49.990       40.695       25.240       25.218       29.606      637.063      635.950      876.536        0.451        0.107       72.185       16.328        0.051      342.456       17.879      862.451
08/22/2013  08:06:00      101.889       47.162        2.583       26.790       28.290       24.698      717.685      800.325      610.000        0.737        0.106      112.275        8.300        0.005      342.397       17.777      862.450
08/22/2013  08:07:00       67.353       55.958       12.281       39.881       39.524       29.697     1590.485     1562.147      881.918        0.593        0.202       87.565       23.674        0.073      342.615       18.148      862.462
08/22/2013  08:08:00       93.645       63.906       21.071       28.442       20.690       23.723      808.975      428.071      562.765        0.755        0.090      113.373       17.787        0.025      342.362       17.719      862.465
08/22/2013  08:09:00       68.043       73.080       26.453       32.771       23.634       32.346     1073.923      558.550     1046.241        0.667        0.134       99.852       21.409        0.046      342.355       17.708      862.475
08/22/2013  08:10:00       76.931       53.614       35.912       30.052       24.222       29.632      903.119      586.690      878.077        0.622        0.118       93.770       17.988        0.037      342.465       17.893      862.488
08/22/2013  08:11:00       83.113       29.267        5.376       39.291       46.992       25.264     1543.750     2208.243      638.276        0.609        0.220       88.116       20.799        0.056      342.473       17.907      862.483
08/22/2013  08:12:00       16.569      -14.634       14.234       20.773       25.925       18.383      431.529      672.105      337.935        0.107        0.072       22.106       18.192        0.677      343.154       19.068      862.468
08/22/2013  08:13:00       26.754       30.947       11.840       32.645       20.286       18.945     1065.716      411.526      358.931        0.182        0.092       40.909       19.270        0.222      342.967       18.749      862.441
08/22/2013  08:14:00        1.917       50.454        5.110       16.968       37.026       23.655      287.926     1370.935      559.547        0.240        0.111       50.490       19.658        0.152      343.017       18.834      862.415
08/22/2013  08:15:00        2.083       57.429        5.638       24.214       30.993       17.446      586.302      960.561      304.370        0.259        0.093       57.467       14.097        0.060      343.177       19.106      862.396
08/22/2013  08:16:00       46.434       45.756       10.176       37.329       27.584       26.740     1393.445      760.880      715.034        0.361        0.143       65.189       19.404        0.089      343.126       19.019      862.379
08/22/2013  08:17:00       67.587       59.660        6.290       22.025       17.955       22.486      485.106      322.388      505.614        0.474        0.066       90.152       11.487        0.016      342.726       18.339      862.368
08/22/2013  08:18:00       68.434       63.471       10.364       16.787       18.430       30.647      281.807      339.680      939.214        0.519        0.078       93.337        9.465        0.010      342.585       18.096      862.365
08/22/2013  08:19:00       65.268       74.917       -2.992       25.261       23.493       25.618      638.125      551.943      656.287        0.586        0.092       99.360       11.799        0.014      342.813       18.486      862.370
08/22/2013  08:20:00       68.663       75.823        1.116       23.316       20.656       21.634      543.622      426.653      468.040        0.595        0.072      102.292       14.295        0.020      342.661       18.227      862.377
08/22/2013  08:21:00       70.502       56.926        8.696       16.835       15.982       19.062      283.417      255.437      363.372        0.459        0.045       90.615       11.942        0.017      342.667       18.237      862.385
08/22/2013  08:22:00       53.175       35.208       17.591       31.923       23.092       22.318     1019.062      533.236      498.101        0.321        0.103       63.774       13.020        0.042      342.980       18.770      862.388
08/22/2013  08:23:00       14.763       37.664       45.064       23.163       23.718       18.594      536.530      562.540      345.734        0.256        0.072       40.454        8.519        0.044      343.346       19.392      862.374
08/22/2013  08:24:00       27.992       15.525       27.262       25.437       18.514       21.871      647.020      342.765      478.333        0.162        0.073       32.009       16.385        0.262      343.479       19.620      862.359
08/22/2013  08:25:00       12.388       28.119       24.271       25.495       27.837       21.878      650.014      774.876      478.646        0.172        0.095       30.727       16.597        0.292      343.500       19.656      862.354
08/22/2013  08:26:00       14.259       48.510       21.558       24.823       36.522       23.950      616.183     1333.863      573.609        0.277        0.126       50.562       22.348        0.195      343.645       19.903      862.350
08/22/2013  08:27:00       32.662       36.847       41.914       28.489       23.522       18.301      811.650      553.266      334.911        0.294        0.085       49.240       10.756        0.048      343.627       19.874      862.349
08/22/2013  08:28:00       87.129       73.789       54.148       31.912       27.058       26.632     1018.384      732.126      709.243        0.921        0.123      114.177       19.963        0.031      342.781       18.431      862.350
08/22/2013  08:29:00       92.136       83.948       63.463       38.895       28.135       28.194     1512.783      791.567      794.876        1.133        0.155      124.645       10.175        0.007      342.789       18.444      862.347
08/22/2013  08:30:00       84.101       91.889        9.017       24.194       23.174       48.957      585.348      537.046     2396.814        0.956        0.176      124.565       28.441        0.052      342.694       18.284      862.349
08/22/2013  08:31:00       -7.037       20.459        0.568       18.692       35.444       24.221      349.374     1256.246      586.651        0.133        0.110       21.636       16.008        0.547      343.104       18.980      862.346
08/22/2013  08:32:00       15.809       17.409       13.008       22.057       20.133       21.573      486.508      405.355      465.375        0.104        0.068       23.516       15.101        0.412      343.429       19.535      862.341
08/22/2013  08:33:00       -0.232       25.879       15.054       18.700       24.009       17.807      349.686      576.445      317.072        0.107        0.062       25.880        9.952        0.148      343.684       19.969      862.342
08/22/2013  08:34:00       42.398       25.753       26.919       24.989       17.521       17.849      624.440      306.999      318.594        0.222        0.063       49.606        8.299        0.028      343.549       19.740      862.353
08/22/2013  08:35:00       -6.974       47.851       13.076       26.662       40.009       22.288      710.876     1600.737      496.772        0.266        0.140       48.357       23.707        0.240      343.405       19.493      862.368
08/22/2013  08:36:00      -30.351       38.217       16.085       17.853       35.907       22.246      318.716     1289.296      494.888        0.237        0.105       48.803       17.894        0.134      343.585       19.802      862.380
08/22/2013  08:37:00      -48.847        8.446       -0.855       20.411       16.761       17.986      416.609      280.937      323.497        0.174        0.051       49.572       10.011        0.041      343.212       19.165      862.397
08/22/2013  08:38:00      -37.077      -40.566       -0.392       27.531       33.987       13.876      757.935     1155.143      192.552        0.256        0.105       54.958       11.653        0.045      343.074       18.930      862.404
08/22/2013  08:39:00      -26.235      -65.676        4.425       30.524       27.608       17.431      931.725      762.192      303.829        0.351        0.100       70.722       14.865        0.044      343.055       18.897      862.417
08/22/2013  08:40:00      -67.289      -41.073       -9.509       15.193       30.445       11.273      230.815      926.906      127.080        0.379        0.064       78.834        8.302        0.011      343.049       18.888      862.422
08/22/2013  08:41:00      -73.747      -46.325        1.049       19.682       21.984       13.840      387.397      483.277      191.557        0.432        0.053       87.090       10.507        0.015      343.117       19.004      862.416
08/22/2013  08:42:00      -12.125       14.373       19.399       37.705       18.494       28.039     1421.695      342.039      786.176        0.164        0.127       18.805       13.010        0.479      343.967       20.452      862.399
08/22/2013  08:43:00      -14.275       -1.955       31.699       20.816       28.890       19.294      433.300      834.646      372.261        0.143        0.082       14.408       20.795        2.083      344.173       20.805      862.375
08/22/2013  08:44:00       -6.806       -0.288       32.737       20.368       28.214       22.774      414.859      796.033      518.658        0.142        0.086        6.812       20.678        9.213      344.083       20.650      862.359
08/22/2013  08:45:00       -3.298       21.411       60.374       13.162       22.293       11.139      173.250      496.959      124.074        0.245        0.040       21.663        7.557        0.122      343.997       20.504      862.346
08/22/2013  08:46:00       15.862       37.991       47.641       24.796       27.787       22.962      614.864      772.134      527.261        0.294        0.096       41.169       19.695        0.229      343.894       20.327      862.330
08/22/2013  08:47:00       30.906       21.918       38.929       40.730       33.711       28.964     1658.964     1136.418      838.920        0.329        0.182       37.889       13.784        0.132      343.855       20.259      862.324
08/22/2013  08:48:00       53.294       62.943       10.871       30.677       21.494       25.633      941.067      461.988      657.047        0.449        0.103       82.475        8.420        0.010      343.462       19.590      862.314
08/22/2013  08:49:00       10.549       36.562       46.433       38.532       38.989       24.293     1484.738     1520.112      590.145        0.360        0.180       38.054       23.740        0.389      344.142       20.751      862.302
08/22/2013  08:50:00        7.895        1.354       39.669       31.228       35.107       20.422      975.206     1232.518      417.062        0.213        0.131        8.010       20.626        6.631      344.341       21.092      862.298
08/22/2013  08:51:00       -2.469        2.597       25.552       22.515       30.993       22.000      506.943      960.562      484.002        0.131        0.098        3.584       16.607       21.475      344.113       20.701      862.298
08/22/2013  08:52:00       26.321      -78.843       -1.803       29.080       27.513       25.741      845.627      756.972      662.592        0.459        0.113       83.121       20.137        0.059      343.552       19.743      862.311
08/22/2013  08:53:00       29.199      -11.693       41.619       38.619       43.939       27.303     1491.457     1930.654      745.472        0.344        0.208       31.453       22.875        0.529      344.237       20.914      862.310
08/22/2013  08:54:00      -13.899       11.166       26.905       28.384       26.794       27.934      805.650      717.934      780.322        0.167        0.115       17.829       27.159        2.321      344.322       21.060      862.304
08/22/2013  08:55:00      -58.214      -41.933       -6.098       32.110       30.505       20.218     1031.034      930.579      408.777        0.378        0.119       71.744       16.012        0.050      343.502       19.659      862.288
08/22/2013  08:56:00      -40.007      -48.153       -3.943       19.920       18.748       16.232      396.792      351.487      263.478        0.247        0.051       62.604       12.938        0.043      343.467       19.600      862.283
08/22/2013  08:57:00      -62.706      -27.452       -8.691        6.499       13.390        7.558       42.232      179.303       57.119        0.252        0.014       68.452        5.890        0.007      343.446       19.564      862.280
08/22/2013  08:58:00      -53.400      -21.708       -6.157       12.664       21.955        8.535      160.380      482.032       72.843        0.204        0.036       57.644        6.220        0.012      343.468       19.600      862.276
08/22/2013  08:59:00      -34.198       -0.321       -0.060       15.668       16.425       12.859      245.501      269.789      165.357        0.093        0.034       34.200        9.689        0.080      343.616       19.854      862.269
08/22/2013  09:00:00      -49.343       23.159       -6.669       13.176       10.693       12.223      173.601      114.336      149.411        0.173        0.022       54.507       10.686        0.038      343.497       19.649      862.264
08/22/2013  09:01:00      -75.215        3.758       -7.030       14.729       11.034        9.043      216.951      121.752       81.780        0.307        0.021       75.309        5.694        0.006      343.483       19.629      862.275
08/22/2013  09:02:00      -49.998       15.631       -8.820       22.010       12.752        9.197      484.458      162.606       84.585        0.178        0.037       52.384        5.917        0.013      343.615       19.850      862.277
08/22/2013  09:03:00      -20.201        6.887       -3.912       16.628       15.536       15.101      276.495      241.374      228.042        0.061        0.037       21.343        6.498        0.093      344.251       20.938      862.264
08/22/2013  09:04:00      -25.459       -3.285      -13.196       16.935       11.257        8.358      286.783      126.709       69.848        0.066        0.024       25.670        2.038        0.006      343.938       20.403      862.251
08/22/2013  09:05:00      -57.548       -0.588       -4.225       19.621       19.267       13.552      384.983      371.211      183.670        0.213        0.047       57.551        7.199        0.016      343.742       20.067      862.238
08/22/2013  09:06:00      -30.051       14.261       10.008       21.289       13.528       17.408      453.223      182.994      303.055        0.107        0.047       33.263       11.677        0.123      344.080       20.646      862.212
08/22/2013  09:07:00        0.401        7.230       32.381       17.000       12.649       12.050      288.987      160.001      145.195        0.085        0.030        7.241        6.713        0.859      344.948       22.129      862.183
08/22/2013  09:08:00      -41.738       16.167        5.823       27.222       17.678       19.928      741.030      312.518      397.139        0.174        0.073       44.759       14.960        0.112      344.016       20.535      862.168
08/22/2013  09:09:00      -79.427        4.893       -9.446       15.907       17.426       15.348      253.019      303.649      235.548        0.361        0.040       79.578        9.702        0.015      343.716       20.023      862.162
08/22/2013  09:10:00      -60.006        1.040        6.182       20.959       19.127       16.952      439.282      365.839      287.367        0.237        0.055       60.015       12.449        0.043      344.023       20.548      862.164
08/22/2013  09:11:00      -29.667        4.067        6.922       15.774       11.077       18.274      248.821      122.710      333.930        0.082        0.035       29.944        7.232        0.058      344.214       20.874      862.171
08/22/2013  09:12:00      -36.606        8.354       -1.009        7.740        8.784        9.760       59.910       77.165       95.265        0.082        0.012       37.547        6.829        0.033      343.946       20.416      862.175
08/22/2013  09:13:00      -15.076       33.028       26.006       28.810       28.888       15.994      830.040      834.539      255.795        0.196        0.096       36.306       11.071        0.093      344.355       21.115      862.157
08/22/2013  09:14:00        3.013       42.328       28.425       25.240       36.622       16.693      637.034     1341.193      278.663        0.243        0.113       42.435       10.985        0.067      344.708       21.718      862.136
08/22/2013  09:15:00       -3.324       11.460       45.437       18.993       29.346       24.554      360.734      861.208      602.910        0.202        0.091       11.932       18.585        2.426      345.204       22.568      862.122
08/22/2013  09:16:00       17.072       27.494       38.029       41.325       30.634       24.934     1707.741      938.432      621.685        0.288        0.163       32.364       21.267        0.432      344.974       22.175      862.112
08/22/2013  09:17:00       37.482       56.789        0.521       43.299       31.310       25.933     1874.806      980.343      672.517        0.408        0.176       68.044       15.689        0.053      344.265       20.961      862.098
08/22/2013  09:18:00       38.430       55.773       15.760       65.209       27.358       30.778     4252.212      748.480      947.275        0.539        0.297       67.731       16.890        0.062      344.580       21.499      862.082
08/22/2013  09:19:00      106.592       83.077       18.561       39.224       24.698       23.489     1538.525      609.988      551.756        1.065        0.135      135.143       11.680        0.007      344.109       20.694      862.073
08/22/2013  09:20:00       69.489       49.733       12.195       32.154       25.834       25.707     1033.897      667.415      660.826        0.491        0.118       85.452        9.540        0.012      344.561       21.466      862.063
08/22/2013  09:21:00       29.547       35.122       17.270       37.123       39.263       25.894     1378.137     1541.567      670.483        0.300        0.180       45.898       16.513        0.129      345.047       22.300      862.071
08/22/2013  09:22:00       35.519       49.645       11.479       26.660       39.640       29.181      710.762     1571.333      851.542        0.350        0.157       61.043       24.285        0.158      344.763       21.813      862.073
08/22/2013  09:23:00       28.065       33.484        4.219       36.261       30.830       26.557     1314.836      950.517      705.292        0.245        0.149       43.690       20.062        0.211      344.915       22.073      862.070
08/22/2013  09:24:00       41.529       60.592        6.816       45.968       40.681       38.768     2113.090     1654.950     1502.921        0.536        0.264       73.457       20.712        0.080      344.726       21.750      862.062
08/22/2013  09:25:00       12.235       47.177       11.813       41.964       46.938       33.977     1760.993     2203.217     1154.427        0.382        0.256       48.738       22.851        0.220      344.917       22.076      862.057
08/22/2013  09:26:00       29.511       69.118       -0.890       40.377       33.118       37.733     1630.298     1096.798     1423.744        0.490        0.208       75.155       24.998        0.111      344.821       21.912      862.051
08/22/2013  09:27:00      110.420       67.763       13.335       52.019       31.154       35.750     2705.926      970.588     1278.060        1.096        0.248      129.555       23.676        0.033      344.714       21.728      862.046
08/22/2013  09:28:00       83.385       55.655        6.273       43.578       39.291       38.427     1899.038     1543.755     1476.605        0.750        0.246      100.253       18.938        0.036      344.514       21.387      862.042
08/22/2013  09:29:00       81.229       79.314       23.019       27.772       39.174       32.593      771.289     1534.612     1062.308        0.839        0.168      113.529        8.966        0.006      344.504       21.370      862.039
08/22/2013  09:30:00      107.240       71.143       46.298       56.969       38.086       38.643     3245.439     1450.513     1493.291        1.245        0.309      128.693       31.976        0.062      344.413       21.214      862.032
08/22/2013  09:31:00      139.277       64.341       16.087       61.803       40.097       48.433     3819.583     1607.766     2345.755        1.578        0.389      153.421       26.968        0.031      344.504       21.369      862.015
08/22/2013  09:32:00      136.251       61.240       11.742       33.597       33.387       31.611     1128.751     1114.677      999.233        1.285        0.162      149.381       15.829        0.011      344.558       21.462      861.997
08/22/2013  09:33:00      138.534       68.063       24.460       57.292       34.718       41.646     3282.425     1205.371     1734.425        1.532        0.311      154.351       33.067        0.046      344.645       21.610      861.967
08/22/2013  09:34:00       54.455       55.083       17.255       83.195       53.321       42.337     6921.425     2843.123     1792.400        0.893        0.578       77.456       33.026        0.182      344.699       21.703      861.949
08/22/2013  09:35:00       32.859       91.956        3.365       36.276       63.151       37.094     1315.929     3988.061     1375.951        0.811        0.334       97.650       34.454        0.124      344.939       22.113      861.927
08/22/2013  09:36:00       29.934       36.339       15.145       37.458       41.789       29.544     1403.086     1746.316      872.827        0.323        0.201       47.080       25.658        0.297      345.047       22.299      861.913
08/22/2013  09:37:00        7.187       84.175       -0.785       38.588       55.187       34.582     1489.047     3045.597     1195.917        0.643        0.287       84.481       36.381        0.185      344.935       22.108      861.905
08/22/2013  09:38:00       -4.773       48.327       17.231       20.172       44.066       24.532      406.901     1941.769      601.843        0.280        0.148       48.562       28.615        0.347      345.570       23.197      861.898
08/22/2013  09:39:00       33.260       23.912       15.326       33.492       28.782       26.249     1121.722      828.432      689.016        0.228        0.132       40.964       19.634        0.230      345.405       22.913      861.892
08/22/2013  09:40:00      102.127       79.035       18.690       27.228       23.937       26.119      741.356      573.003      682.222        0.951        0.100      129.137       14.926        0.013      344.649       21.619      861.883
08/22/2013  09:41:00       41.235       70.986        4.718       45.111       29.016       32.939     2035.039      841.911     1085.007        0.536        0.198       82.094       19.614        0.057      344.907       22.058      861.875
08/22/2013  09:42:00        1.808       17.498       34.626       19.002       25.342       19.056      361.070      642.239      363.131        0.144        0.068       17.591       10.271        0.341      345.764       23.529      861.867
08/22/2013  09:43:00        8.386       60.863       75.550       31.150       37.612       28.943      970.319     1414.648      837.721        0.635        0.161       61.438       17.959        0.085      345.489       23.055      861.871
08/22/2013  09:44:00        4.582       51.348       86.123       21.524       50.297       24.911      463.298     2529.764      620.582        0.684        0.181       51.553       25.225        0.239      345.389       22.882      861.874
08/22/2013  09:45:00       71.409       83.820       67.348       46.492       41.175       32.269     2161.489     1695.380     1041.279        1.078        0.245      110.114       15.593        0.020      344.972       22.170      861.876
08/22/2013  09:46:00       57.514       53.811       40.837       40.415       47.351       32.362     1633.362     2242.160     1047.293        0.640        0.246       78.762       15.587        0.039      345.401       22.906      861.867
08/22/2013  09:47:00       25.818      -53.939       23.047       38.138       62.184       33.667     1454.487     3866.874     1133.481        0.528        0.323       59.799       37.529        0.394      345.228       22.610      861.850
08/22/2013  09:48:00      105.750       90.945       66.094       41.423       36.531       42.673     1715.841     1334.511     1820.983        1.435        0.244      139.477       28.488        0.042      344.953       22.138      861.847
08/22/2013  09:49:00       71.631       48.851       47.131       64.296       67.643       40.551     4133.951     4575.562     1644.422        1.004        0.518       86.703       37.966        0.192      344.934       22.105      861.846
08/22/2013  09:50:00       35.564       -2.101       27.946       42.665       53.158       30.752     1820.281     2825.746      945.699        0.382        0.280       35.626       13.010        0.133      345.218       22.592      861.840
08/22/2013  09:51:00       84.582       51.934       20.588       44.792       34.143       31.627     2006.360     1165.720     1000.255        0.722        0.209       99.253       22.268        0.050      345.331       22.786      861.848
08/22/2013  09:52:00       89.137       71.171       18.719       28.642       29.509       27.644      820.367      870.769      764.200        0.791        0.123      114.064       15.593        0.019      345.290       22.716      861.844
08/22/2013  09:53:00      100.604       96.554       14.795       57.165       41.113       32.496     3267.877     1690.276     1056.013        1.284        0.301      139.441       16.813        0.015      345.126       22.434      861.852
08/22/2013  09:54:00      133.196       56.102        9.509       35.763       38.023       32.841     1278.957     1445.753     1078.553        1.239        0.190      144.529       21.022        0.021      344.982       22.187      861.856
08/22/2013  09:55:00       52.446       80.643        8.474       51.201       48.687       43.088     2621.571     2370.397     1856.562        0.809        0.342       96.197       38.215        0.158      345.322       22.769      861.845
08/22/2013  09:56:00       55.703       59.875       20.684       40.612       39.492       37.095     1649.373     1559.579     1376.023        0.585        0.229       81.779       26.828        0.108      345.485       23.049      861.842
08/22/2013  09:57:00       57.353      -12.443       23.648       43.916       57.990       39.146     1928.608     3362.862     1532.377        0.541        0.341       58.688       30.754        0.275      345.681       23.387      861.823
08/22/2013  09:58:00       29.961      -77.097        7.729       45.443       59.440       33.428     2065.050     3533.076     1117.421        0.681        0.336       82.714       31.367        0.144      345.446       22.983      861.819
08/22/2013  09:59:00       42.591        0.087        9.151       52.756       31.363       43.019     2783.220      983.640     1850.608        0.376        0.281       42.591       18.211        0.183      345.446       22.983      861.829
08/22/2013  10:00:00        0.118      -71.628       14.995       36.260       60.287       33.967     1314.764     3634.563     1153.731        0.573        0.305       71.628       27.368        0.146      345.755       23.513      861.841
08/22/2013  10:01:00       40.781      -63.519       -4.327       47.654       61.530       44.081     2270.909     3785.883     1943.092        0.686        0.400       75.483       30.102        0.159      345.848       23.672      861.850
08/22/2013  10:02:00       15.413      -46.949       23.453       48.539       71.684       49.807     2356.008     5138.667     2480.784        0.648        0.499       49.414       44.472        0.810      345.977       23.893      861.842
08/22/2013  10:03:00        4.383        2.592       60.590       25.205       51.366       20.519      635.301     2638.504      421.010        0.370        0.185        5.092        8.955        3.093      346.229       24.327      861.834
08/22/2013  10:04:00        3.850        4.096       56.658       29.724       66.167       31.925      883.527     4378.107     1019.230        0.476        0.314        5.622       42.994       58.495      346.177       24.237      861.826
08/22/2013  10:05:00      -20.695      -64.575       21.602       20.172       52.556       24.228      406.923     2762.138      586.992        0.441        0.188       67.810       12.939        0.036      345.806       23.600      861.840
08/22/2013  10:06:00      -10.775       -5.329       -3.510       23.071       28.473       16.295      532.262      810.731      265.517        0.088        0.080       12.021       11.216        0.871      345.910       23.780      861.845
08/22/2013  10:07:00        2.635        7.394       19.937       19.078       21.499       23.765      363.970      462.209      564.781        0.092        0.070        7.849        9.825        1.567      346.589       24.947      861.855
08/22/2013  10:08:00       18.270       21.578       31.551       34.972       25.975       25.231     1223.065      674.712      636.582        0.216        0.127       28.274       14.668        0.269      346.250       24.362      861.845
08/22/2013  10:09:00      138.937       85.532       26.285       54.632       41.605       32.347     2984.671     1730.958     1046.340        1.654        0.288      163.154       17.402        0.011      345.486       23.049      861.835
08/22/2013  10:10:00      114.203       45.220       10.167       77.511       69.746       39.723     6007.988     4864.562     1577.929        1.382        0.623      122.830       20.065        0.027      345.586       23.222      861.821
08/22/2013  10:11:00      127.107       89.486       52.086       52.319       43.739       57.419     2737.324     1913.130     3296.894        1.741        0.397      155.447       27.709        0.032      345.610       23.262      861.828
08/22/2013  10:12:00       56.515       79.609       42.901       45.511       45.241       40.620     2071.289     2046.750     1650.010        0.857        0.288       97.630       27.638        0.080      345.897       23.757      861.842
08/22/2013  10:13:00       21.623       64.341       74.700       45.409       46.463       38.454     2062.022     2158.775     1478.710        0.794        0.285       67.877       30.859        0.207      346.101       24.108      861.859
08/22/2013  10:14:00       29.810      -23.130       41.232       45.466       71.944       55.307     2067.177     5175.932     3058.876        0.671        0.515       37.731       56.974        2.280      345.943       23.836      861.861
08/22/2013  10:15:00       12.617       25.051       62.208       28.746       60.045       29.877      826.312     3605.350      892.649        0.499        0.266       28.049       19.645        0.491      346.071       24.055      861.874
08/22/2013  10:16:00       51.267      -20.698       12.500       52.768       65.737       45.582     2784.484     4321.295     2077.715        0.620        0.459       55.288       43.853        0.629      346.103       24.111      861.877
08/22/2013  10:17:00       50.075        6.198       41.553       78.262       73.668       52.373     6124.982     5426.948     2742.887        0.928        0.715       50.458       65.869        1.704      345.970       23.881      861.882
08/22/2013  10:18:00      -11.642       23.962       42.855       17.064       25.008       34.703      291.195      625.399     1204.286        0.233        0.106       26.641       18.470        0.481      346.312       24.470      861.859
08/22/2013  10:19:00       61.745       44.988       12.095       42.066       32.310       32.424     1769.539     1043.907     1051.291        0.492        0.193       76.396       23.454        0.094      345.922       23.799      861.849
08/22/2013  10:20:00       64.824       77.272       -6.689       37.154       25.958       31.846     1380.413      673.794     1014.143        0.664        0.153      100.862       13.349        0.018      345.745       23.496      861.836
08/22/2013  10:21:00       43.325       98.003       -0.170       42.457       32.012       35.099     1802.594     1024.750     1231.955        0.777        0.203      107.153       18.685        0.030      345.763       23.526      861.841
08/22/2013  10:22:00       30.001       23.211       25.932       28.292       36.316       21.688      800.419     1318.837      470.390        0.235        0.129       37.932       20.949        0.305      346.095       24.096      861.822
08/22/2013  10:23:00       48.365       45.135       35.074       71.387       34.120       35.336     5096.051     1164.181     1248.661        0.656        0.375       66.154       27.174        0.169      346.241       24.347      861.815
08/22/2013  10:24:00       73.282       49.186       22.637       59.688       43.997       39.197     3562.637     1935.754     1536.405        0.767        0.352       88.258       23.157        0.069      346.228       24.325      861.807
08/22/2013  10:25:00       60.568       50.280       -9.405       29.931       28.498       24.083      895.851      812.111      579.970        0.429        0.114       78.719       18.398        0.055      345.979       23.896      861.817
08/22/2013  10:26:00       35.102      -31.184       29.289       46.981       68.670       35.721     2207.190     4715.605     1275.965        0.563        0.410       46.953       29.186        0.386      346.086       24.081      861.829
08/22/2013  10:27:00       33.643      -56.459        9.171       39.068       75.995       27.919     1526.294     5775.186      779.465        0.624        0.404       65.723       23.009        0.123      345.968       23.879      861.824
08/22/2013  10:28:00       74.957       48.902       37.510       49.872       69.839       34.245     2487.191     4877.421     1172.692        0.898        0.427       89.498       24.468        0.075      346.051       24.020      861.815
08/22/2013  10:29:00       78.120      -60.703       16.769       58.638       57.395       47.227     3438.471     3294.162     2230.387        0.951        0.448       98.932       39.973        0.163      346.035       23.994      861.795
08/22/2013  10:30:00       18.972      -25.282       48.648       35.003       71.347       38.153     1225.220     5090.399     1455.680        0.557        0.389       31.608       47.576        2.266      346.367       24.564      861.791
08/22/2013  10:31:00       46.258      -48.034       11.913       67.226       73.229       44.506     4519.348     5362.481     1980.822        0.822        0.593       66.687       50.812        0.581      345.942       23.834      861.771
08/22/2013  10:32:00       42.230       57.399       17.976       36.266       47.893       41.194     1315.230     2293.751     1696.920        0.535        0.265       71.261       11.729        0.027      346.251       24.363      861.777
08/22/2013  10:33:00       18.534       21.712       31.508       29.229       27.707       16.271      854.359      767.705      264.748        0.185        0.094       28.547        9.881        0.120      346.630       25.015      861.767
08/22/2013  10:34:00      -17.462       20.130       15.058       29.546       15.762       19.002      872.987      248.455      361.060        0.121        0.074       26.649       16.482        0.383      346.399       24.620      861.754
08/22/2013  10:35:00       91.170       69.448       54.979       54.230       43.625       38.826     2940.851     1903.147     1507.436        1.125        0.318      114.608       29.246        0.065      346.361       24.552      861.744
08/22/2013  10:36:00       71.030       72.338       55.767       36.962       45.220       39.670     1366.218     2044.892     1573.706        0.919        0.249      101.380       15.893        0.025      346.216       24.304      861.728
08/22/2013  10:37:00      131.632       89.145       32.752       40.990       33.470       40.304     1680.146     1120.243     1624.451        1.538        0.221      158.978       24.086        0.023      346.153       24.196      861.734
08/22/2013  10:38:00      106.073       88.439        4.363       30.087       31.657       29.802      905.207     1002.149      888.188        1.094        0.140      138.105       14.314        0.011      346.114       24.128      861.733
08/22/2013  10:39:00       75.655       40.912       24.556       53.366       66.717       34.652     2847.901     4451.112     1200.788        0.825        0.425       86.009       25.294        0.086      346.331       24.503      861.736
08/22/2013  10:40:00       41.578      -41.870       35.049       57.202       81.991       57.562     3272.048     6722.499     3313.415        0.901        0.665       59.007       49.506        0.704      346.827       25.354      861.730
08/22/2013  10:41:00       38.212      -34.982       32.475       44.517       37.266       28.374     1981.783     1388.766      805.059        0.396        0.209       51.806       21.637        0.174      346.419       24.652      861.732
08/22/2013  10:42:00       13.921       -2.646       26.395       34.291       63.995       33.650     1175.853     4095.344     1132.347        0.365        0.320       14.170       13.693        0.934      346.774       25.264      861.729
08/22/2013  10:43:00       20.080      -15.664       -7.766       39.036       58.659       24.879     1523.785     3440.863      618.942        0.315        0.279       25.466       28.756        1.275      346.029       23.983      861.733
08/22/2013  10:44:00       10.220       41.858        9.374       24.201       36.701       31.664      585.684     1346.960     1002.615        0.244        0.147       43.088       31.126        0.522      346.800       25.309      861.742
08/22/2013  10:45:00      -14.658       -2.289        6.951       60.178       28.644       34.031     3621.393      820.505     1158.093        0.293        0.280       14.836       23.462        2.501      346.636       25.027      861.750
08/22/2013  10:46:00       32.562      -56.621      -15.481       38.363       61.702       29.177     1471.740     3807.166      851.297        0.532        0.307       65.316       30.803        0.222      346.262       24.384      861.754
08/22/2013  10:47:00       10.897      -29.352       -7.059       59.448       26.364       25.642     3534.096      695.051      657.528        0.296        0.244       31.310       16.497        0.278      346.246       24.356      861.758
08/22/2013  10:48:00      -84.863      -58.085       -5.450       28.148       18.019       18.928      792.302      324.690      358.282        0.604        0.074      102.838       16.436        0.026      346.015       23.958      861.742
08/22/2013  10:49:00      -46.311       13.705       -3.281       16.577       45.893       17.458      274.810     2106.204      304.779        0.251        0.134       48.297       13.749        0.081      346.228       24.325      861.737
08/22/2013  10:50:00       12.201       45.628       33.370       27.842       28.205       34.830      775.187      795.532     1213.161        0.306        0.139       47.231       21.355        0.204      347.239       26.065      861.710
08/22/2013  10:51:00       -3.631       19.375        3.440       14.438       28.102       24.440      208.442      789.703      597.296        0.100        0.080       19.712        4.239        0.046      346.939       25.549      861.693
08/22/2013  10:52:00       65.388       59.588       26.721       45.403       28.567       26.749     2061.434      816.067      715.533        0.607        0.180       88.466       16.002        0.033      346.920       25.515      861.663
08/22/2013  10:53:00       89.128       60.671       17.619       62.730       41.672       39.679     3935.027     1736.526     1574.400        0.959        0.362      107.818       27.748        0.066      346.708       25.149      861.642
08/22/2013  10:54:00       77.398       63.253       32.691       73.522       52.206       38.656     5405.544     2725.456     1494.318        1.034        0.481       99.957       27.922        0.078      346.784       25.281      861.618
08/22/2013  10:55:00       17.208      -98.246        1.523       84.773       67.237       54.349     7186.398     4520.776     2953.806        1.230        0.733       99.742       45.536        0.208      346.693       25.124      861.624
08/22/2013  10:56:00       46.572       -7.260       44.169       55.378       72.095       58.093     3066.746     5197.736     3374.766        0.790        0.582       47.134       50.826        1.163      347.185       25.972      861.631
08/22/2013  10:57:00       72.800     -110.476        3.541       58.422       91.541       53.607     3413.131     8379.765     2873.700        1.609        0.733      132.305       38.920        0.087      346.835       25.367      861.632
08/22/2013  10:58:00       36.272       30.280       76.927       37.614       99.287       46.103     1414.776     9857.929     2125.483        1.077        0.670       47.249       58.160        1.515      346.880       25.446      861.630
08/22/2013  10:59:00        6.660       27.701       44.427       30.604       76.248       44.122      936.584     5813.778     1946.770        0.574        0.435       28.490       49.013        2.960      346.811       25.327      861.622
08/22/2013  11:00:00       26.537       -8.334       54.185       34.602       50.952       44.144     1197.274     2596.063     1948.728        0.472        0.287       27.815       16.633        0.358      347.471       26.464      861.607
08/22/2013  11:01:00       22.587       12.391       50.779       40.938       40.672       31.277     1675.947     1654.237      978.232        0.377        0.215       25.762       32.577        1.599      347.078       25.789      861.609
08/22/2013  11:02:00       -3.418      -39.445       13.208       37.797       52.359       37.524     1428.583     2741.451     1408.023        0.366        0.279       39.593       27.797        0.493      346.991       25.638      861.601
08/22/2013  11:03:00      -43.780      -39.664       -0.036       27.074       32.083       22.575      733.019     1029.312      509.608        0.288        0.114       59.075       18.739        0.101      346.922       25.518      861.604
08/22/2013  11:04:00       11.537      -63.373       16.338       35.980       64.359       39.426     1294.581     4142.086     1554.437        0.570        0.350       64.415       33.443        0.270      347.036       25.715      861.601
08/22/2013  11:05:00      -70.122       41.446        7.923       39.920       39.460       29.423     1593.603     1557.070      865.737        0.536        0.201       81.454       26.470        0.106      346.824       25.350      861.588
08/22/2013  11:06:00      -48.578       36.066        7.359       56.824       49.616       39.719     3229.010     2461.776     1577.608        0.549        0.363       60.503       24.204        0.160      346.841       25.379      861.564
08/22/2013  11:07:00      -66.646        6.776      -14.476       25.193       18.194       17.309      634.676      331.028      299.601        0.298        0.063       66.989       13.107        0.038      346.325       24.492      861.553
08/22/2013  11:08:00      -55.270      -19.218       -9.449       21.855       27.964       13.975      477.637      781.982      195.295        0.248        0.073       58.515        5.055        0.007      346.418       24.652      861.524
08/22/2013  11:09:00      -72.993      -30.995       -3.966       49.821       35.993       22.767     2482.096     1295.481      518.343        0.530        0.215       79.301       17.153        0.047      346.657       25.064      861.516
08/22/2013  11:10:00      -35.956       16.347        8.228       39.978       38.457       43.158     1598.208     1478.946     1862.600        0.328        0.247       39.498       31.830        0.649      347.272       26.123      861.509
08/22/2013  11:11:00      -91.805       43.610       -9.845       61.247       29.846       28.807     3751.219      890.799      829.868        0.795        0.274      101.636       32.791        0.104      346.803       25.314      861.553
08/22/2013  11:12:00      -55.986       12.669       -7.644       33.507       20.257       15.015     1122.745      410.339      225.451        0.256        0.088       57.402       10.735        0.035      346.609       24.980      861.559
08/22/2013  11:13:00      -42.390       -8.571      -14.368       30.614       28.365       20.250      937.193      804.561      410.056        0.211        0.108       43.248       17.845        0.170      346.671       25.088      861.571
08/22/2013  11:14:00      -48.712      -13.878        6.762       51.830       37.314       24.188     2686.323     1392.303      585.083        0.364        0.233       50.651       26.478        0.273      347.318       26.201      861.567
08/22/2013  11:15:00      -36.109       52.845        5.519       32.191       41.187       30.602     1036.255     1696.365      936.463        0.390        0.183       64.004       24.174        0.143      347.305       26.179      861.568
08/22/2013  11:16:00      -34.032       14.808       11.962       45.036       30.388       35.007     2028.265      923.420     1225.505        0.285        0.209       37.114       27.842        0.563      347.439       26.410      861.549
08/22/2013  11:17:00      -52.631       17.243        5.580       52.570       27.179       26.535     2763.637      738.687      704.113        0.365        0.210       55.384       24.130        0.190      347.669       26.807      861.542
08/22/2013  11:18:00      -22.929      120.123        3.164       36.855       70.696       40.387     1358.259     4997.903     1631.102        1.147        0.399      122.292       33.947        0.077      347.175       25.957      861.521
08/22/2013  11:19:00      -47.257       52.265        1.505       44.879       58.607       33.765     2014.121     3434.788     1140.082        0.578        0.329       70.461       21.767        0.095      347.312       26.191      861.504
08/22/2013  11:20:00      -14.765      116.212        8.773       60.076       76.727       42.480     3609.145     5887.102     1804.586        1.255        0.565      117.146       44.565        0.145      347.027       25.699      861.479
08/22/2013  11:21:00      -25.205      126.505      -10.625       28.542       52.660       30.107      814.655     2773.033      906.450        1.062        0.225      128.991       25.671        0.040      347.102       25.830      861.468
08/22/2013  11:22:00        5.538       79.810        2.044       25.073       64.970       32.332      628.676     4221.144     1045.327        0.615        0.295       80.002       33.922        0.180      347.376       26.301      861.439
08/22/2013  11:23:00       47.405       55.363       14.267       42.561       36.013       31.699     1811.425     1296.950     1004.826        0.481        0.206       72.886       23.414        0.103      347.168       25.942      861.429
08/22/2013  11:24:00       27.287      119.366       -2.828       50.130       68.334       41.747     2513.034     4669.484     1742.807        1.196        0.446      122.445       44.072        0.130      347.255       26.091      861.418
08/22/2013  11:25:00       25.206      117.041      -14.374       44.119       54.168       29.165     1946.476     2934.168      850.593        1.013        0.287      119.725       29.917        0.062      347.254       26.091      861.413
08/22/2013  11:26:00      119.646       41.903       16.983       78.875       54.811       37.359     6221.284     3004.258     1395.669        1.349        0.531      126.771       34.211        0.073      347.295       26.160      861.399
08/22/2013  11:27:00      117.129       76.965       25.288       44.302       38.223       41.511     1962.637     1461.008     1723.175        1.271        0.257      140.153       21.510        0.024      346.907       25.492      861.394
08/22/2013  11:28:00       83.639       95.559       19.877       51.495       38.531       41.755     2651.710     1484.634     1743.519        1.120        0.294      126.992       28.552        0.051      346.947       25.563      861.381
08/22/2013  11:29:00       71.588       69.710       55.970       74.479       34.856       40.903     5547.098     1214.935     1673.015        1.077        0.422       99.921       19.384        0.038      347.262       26.104      861.362
08/22/2013  11:30:00      109.783       84.910       45.937       40.556       38.298       41.714     1644.776     1466.759     1740.058        1.311        0.243      138.788       20.333        0.021      347.268       26.116      861.338
08/22/2013  11:31:00      108.977       65.377        7.711       64.222       37.278       35.749     4124.455     1389.616     1278.003        1.150        0.340      127.083       29.476        0.054      347.221       26.033      861.319
08/22/2013  11:32:00       66.008        5.845        3.121       70.478       88.893       39.306     4967.146     7902.025     1544.959        0.941        0.721       66.266       25.367        0.147      347.565       26.626      861.305
08/22/2013  11:33:00       58.992       -8.500        7.118       71.729       71.002       43.488     5145.094     5041.230     1891.220        0.784        0.604       59.601       40.329        0.458      347.736       26.922      861.307
08/22/2013  11:34:00       77.432     -111.372      -24.076       51.684       56.883       48.372     2671.203     3235.667     2339.803        1.361        0.412      135.644       34.967        0.066      347.427       26.388      861.292
08/22/2013  11:35:00       60.308      -79.027       20.161       60.786       82.782       46.830     3694.891     6852.790     2193.081        1.151        0.637       99.410       53.291        0.287      347.627       26.734      861.276
08/22/2013  11:36:00       61.364       44.960       25.164       46.663      103.577       44.584     2177.438    10728.219     1987.740        1.065        0.745       76.072       15.358        0.041      347.495       26.505      861.254
08/22/2013  11:37:00       55.363       82.456        0.259       26.690       44.818       28.948      712.358     2008.688      838.010        0.671        0.178       99.318       23.544        0.056      347.307       26.182      861.243
08/22/2013  11:38:00       35.389       68.165       13.382       47.500       47.031       36.930     2256.213     2211.918     1363.820        0.595        0.292       76.804       26.772        0.122      347.708       26.874      861.215
08/22/2013  11:39:00       57.175       52.677       30.886       53.289       44.861       45.916     2839.690     2012.546     2108.293        0.698        0.348       77.742       11.021        0.020      347.917       27.234      861.197
08/22/2013  11:40:00       19.661      -39.148       31.594       42.571       67.036       58.338     1812.316     4493.796     3403.278        0.631        0.485       43.808       55.380        1.598      347.520       26.549      861.188
08/22/2013  11:41:00       56.477       30.197       28.373       54.593       46.275       38.686     2980.348     2141.352     1496.585        0.576        0.331       64.043       28.488        0.198      347.894       27.193      861.163
08/22/2013  11:42:00      132.929      115.440       94.721       85.321       57.721       56.138     7279.638     3331.727     3151.421        2.686        0.688      176.058       43.190        0.060      347.456       26.436      861.156
08/22/2013  11:43:00      115.732      121.444      123.529      101.865       86.566       75.463    10376.560     7493.635     5694.654        3.348        1.178      167.757       72.211        0.185      347.382       26.308      861.160
08/22/2013  11:44:00       44.139       20.444       64.877       72.826       62.554       47.673     5303.573     3912.982     2272.740        0.903        0.574       48.644       34.185        0.494      347.611       26.706      861.180
08/22/2013  11:45:00       81.550     -117.714      -10.214       73.923      104.725       49.881     5464.599    10967.409     2488.091        1.976        0.946      143.203       60.216        0.177      347.584       26.658      861.202
08/22/2013  11:46:00       58.562     -114.882       18.144       41.060      140.715       46.472     1685.934    19800.756     2159.602        2.030        1.182      128.947       63.399        0.242      347.525       26.557      861.193
08/22/2013  11:47:00      103.225      108.447       64.644       96.099       79.860       71.218     9235.022     6377.613     5071.968        2.364        1.034      149.721       69.048        0.213      347.546       26.592      861.164
08/22/2013  11:48:00      116.966      -37.846       53.514       81.751      114.194       74.107     6683.159    13040.317     5491.895        2.159        1.261      122.936       80.028        0.424      347.571       26.636      861.149
08/22/2013  11:49:00       49.833      -66.816       17.623       43.043       84.768       49.042     1852.678     7185.534     2405.090        0.935        0.572       83.352       40.766        0.239      347.705       26.869      861.112
08/22/2013  11:50:00       41.740       23.632       44.262       79.559       59.944       39.541     6329.698     3593.248     1563.520        0.787        0.574       47.966       32.713        0.465      348.019       27.410      861.079
08/22/2013  11:51:00       41.298       32.144       15.314       58.631       59.786       41.911     3437.573     3574.351     1756.507        0.587        0.438       52.333       26.223        0.251      347.896       27.199      861.060
08/22/2013  11:52:00       95.081       69.320       35.393       75.784       46.412       51.291     5743.219     2154.107     2630.791        1.281        0.526      117.668       18.789        0.025      347.718       26.889      861.045
08/22/2013  11:53:00       57.061       33.049        3.255       43.233       46.415       34.784     1869.052     2154.387     1209.936        0.480        0.262       65.941       16.305        0.061      347.661       26.792      861.024
08/22/2013  11:54:00      160.925      113.549       38.622       54.238       54.355       49.376     2941.795     2954.477     2437.964        2.431        0.417      196.953       15.149        0.006      347.545       26.591      861.008
08/22/2013  11:55:00       62.468       42.279       32.825       63.242       53.799       33.276     3999.562     2894.376     1107.282        0.738        0.400       75.431       22.220        0.087      348.293       27.883      860.999
08/22/2013  11:56:00       27.484       -6.384       32.511       60.116       58.905       51.844     3613.986     3469.792     2687.813        0.581        0.489       28.215       45.495        2.600      348.380       28.034      860.982
08/22/2013  11:57:00       23.488       24.809       45.333       49.717       63.808       31.334     2471.753     4071.412      981.796        0.537        0.376       34.164       33.936        0.987      348.320       27.930      860.978
08/22/2013  11:58:00       65.173       48.192        0.784       57.694       58.093       36.201     3328.635     3374.766     1310.499        0.729        0.401       81.055       19.391        0.057      347.951       27.292      860.969
08/22/2013  11:59:00      170.808      103.515       22.625       75.922       56.069       54.756     5764.098     3143.775     2998.252        2.615        0.595      199.727       33.341        0.028      347.600       26.685      860.944
08/22/2013  12:00:00       79.595       50.287       12.864       79.537       49.496       35.355     6326.165     2449.890     1249.963        0.953        0.501       94.149       26.993        0.082      348.049       27.462      860.941
08/22/2013  12:01:00       22.884       21.678       10.766       39.561       29.916       29.764     1565.065      894.970      885.902        0.223        0.167       31.522       13.293        0.178      348.421       28.105      860.930
08/22/2013  12:02:00       25.771       15.915       -3.540       34.688       40.817       27.392     1203.272     1666.060      750.299        0.227        0.181       30.289       15.396        0.258      348.282       27.866      860.906
08/22/2013  12:03:00       31.241       -0.328       36.413       63.518       66.887       34.135     4034.536     4473.852     1165.212        0.599        0.484       31.243       41.371        1.753      348.506       28.252      860.885
08/22/2013  12:04:00      116.390      -36.118       58.330       99.686      103.940       69.801     9937.388    10803.468     4872.154        2.193        1.281      121.866       65.941        0.293      348.349       27.977      860.860
08/22/2013  12:05:00       46.873       38.305       26.146       80.952       69.241       33.064     6553.185     4794.276     1093.205        0.839        0.622       60.534       36.667        0.367      348.402       28.072      860.859
08/22/2013  12:06:00        4.348      -89.887       -6.265       37.564       35.916       26.670     1411.044     1289.978      711.265        0.577        0.171       89.992       23.016        0.065      348.259       27.825      860.836
08/22/2013  12:07:00      -62.162      -45.413       18.364       79.147       54.052       32.997     6264.281     2921.631     1088.785        0.827        0.514       76.984       37.789        0.241      348.567       28.359      860.816
08/22/2013  12:08:00      -67.295      -15.493        5.543       44.482       42.531       26.028     1978.670     1808.848      677.452        0.463        0.223       69.055       21.427        0.096      348.006       27.387      860.793
08/22/2013  12:09:00       82.124     -152.303      -23.006      102.546      104.607       62.867    10515.665    10942.700     3952.306        2.794        1.271      173.033       68.432        0.156      348.194       27.710      860.780
08/22/2013  12:10:00       35.273     -170.703      -14.095       59.102       94.452       58.296     3493.018     8921.188     3398.460        2.319        0.791      174.309       61.492        0.124      347.831       27.084      860.768
08/22/2013  12:11:00       66.487     -130.558        7.352       58.134       91.157       53.245     3379.545     8309.617     2835.060        1.802        0.726      146.513       47.531        0.105      347.889       27.185      860.783
08/22/2013  12:12:00       10.027       19.998       46.538       47.424       53.954       45.029     2249.002     2911.006     2027.591        0.493        0.359       22.371       35.895        2.575      348.286       27.871      860.806
08/22/2013  12:13:00       28.461      -65.228        3.490       45.916       78.881       44.694     2108.243     6222.154     1997.536        0.770        0.516       71.167       39.888        0.314      348.026       27.423      860.797
08/22/2013  12:14:00       43.194      -31.384       46.487       55.022       72.159       53.438     3027.376     5206.953     2855.590        0.805        0.554       53.392       43.893        0.676      348.344       27.971      860.799
08/22/2013  12:15:00       24.866      -39.927       18.661       57.524       74.914       38.583     3308.986     5612.075     1488.685        0.648        0.520       47.037       35.884        0.582      347.898       27.200      860.788
08/22/2013  12:16:00       74.570      -74.574      -14.508       38.154       45.107       23.178     1455.700     2034.661      537.237        0.768        0.201      105.461        4.793        0.002      347.397       26.337      860.782
08/22/2013  12:17:00       17.065      -25.091        8.045       32.975       52.143       27.594     1087.328     2718.911      761.439        0.278        0.228       30.344       24.428        0.648      347.990       27.361      860.759
08/22/2013  12:18:00       37.152     -133.129       19.271       63.474       81.225       46.775     4028.896     6597.425     2187.901        1.614        0.641      138.216       52.276        0.143      347.905       27.211      860.725
08/22/2013  12:19:00       -3.743      -29.795        1.202       48.526       50.335       37.794     2354.774     2533.579     1428.405        0.361        0.316       30.029       33.635        1.255      348.196       27.715      860.707
08/22/2013  12:20:00       -7.885       20.370       25.752       34.598       20.525       19.675     1197.018      421.266      387.106        0.157        0.100       21.843       17.544        0.645      348.551       28.330      860.688
08/22/2013  12:21:00      -80.836       39.893        1.846       48.824       39.350       26.999     2383.812     1548.440      728.944        0.639        0.233       90.144       17.704        0.039      348.272       27.846      860.677
08/22/2013  12:22:00     -127.418        4.098       -8.703       86.183       99.062       46.797     7427.442     9813.295     2189.955        1.788        0.972      127.484       35.583        0.078      348.211       27.741      860.641
08/22/2013  12:23:00     -187.124     -156.616       -0.872      108.347       79.621       53.699    11739.044     6339.566     2883.563        4.025        1.048      244.016       43.669        0.032      348.008       27.386      860.664
08/22/2013  12:24:00      -87.050      -89.772        6.217       64.521       50.282       39.751     4163.024     2528.300     1580.133        1.197        0.414      125.047       36.666        0.086      348.157       27.648      860.674
08/22/2013  12:25:00      -43.378     -134.843      -12.059       91.423       73.765       51.785     8358.173     5441.263     2681.680        1.834        0.824      141.648       35.692        0.063      348.215       27.747      860.666
08/22/2013  12:26:00      -47.736     -102.334       14.876      122.950       91.897       58.352    15116.613     8445.056     3404.984        1.996        1.348      112.921       56.079        0.247      348.297       27.889      860.658
08/22/2013  12:27:00      -29.008     -199.033      -34.187       69.763       78.256       42.436     4866.867     6124.077     1800.785        2.721        0.640      201.135       40.356        0.040      348.073       27.500      860.682
08/22/2013  12:28:00      -13.264     -137.809      -13.595       50.308       63.202       41.391     2530.871     3994.553     1713.229        1.379        0.412      138.446       35.872        0.067      348.151       27.636      860.683
08/22/2013  12:29:00      -56.069     -120.437        2.590       42.449       27.369       27.944     1801.890      749.066      780.841        1.049        0.167      132.849       18.250        0.019      348.037       27.441      860.665
08/22/2013  12:30:00       -1.237      -50.335       34.457       44.554       76.065       48.612     1985.087     5785.832     2363.111        0.693        0.507       50.351       13.450        0.071      348.536       28.303      860.647
08/22/2013  12:31:00       14.867       11.253       37.159       29.020       39.606       29.625      842.133     1568.652      877.651        0.251        0.164       18.646       11.376        0.372      348.675       28.544      860.656
08/22/2013  12:32:00      -19.548       42.600       -1.323       29.567       63.143       38.304      874.198     3986.987     1467.183        0.426        0.316       46.871       21.604        0.212      348.205       27.732      860.633
08/22/2013  12:33:00       27.813      -10.204       24.216       26.464       30.734       23.454      700.344      944.564      550.080        0.183        0.110       29.625       11.180        0.142      348.395       28.061      860.627
08/22/2013  12:34:00       14.540      -24.040       28.481       39.144       39.455       27.868     1532.244     1556.689      776.645        0.273        0.193       28.095       17.590        0.392      348.178       27.685      860.622
08/22/2013  12:35:00        6.570      -17.097       34.408       29.043       78.929       40.362      843.477     6229.769     1629.079        0.511        0.435       18.316       52.530        8.226      348.638       28.481      860.609
08/22/2013  12:36:00       45.832      -79.601       -8.071       55.400       69.503       34.010     3069.147     4830.712     1156.660        0.878        0.453       91.853       29.516        0.103      348.230       27.775      860.582
08/22/2013  12:37:00       14.756      -20.620       13.445       35.911       46.468       26.934     1289.566     2159.250      725.439        0.250        0.209       25.356       22.500        0.787      348.592       28.401      860.558
08/22/2013  12:38:00      -35.791      -16.516       16.593       46.719       48.829       39.581     2182.635     2384.305     1566.661        0.398        0.307       39.418       36.219        0.844      348.744       28.663      860.551
08/22/2013  12:39:00       17.831      -33.511       46.178       35.851       54.661       32.034     1285.279     2987.789     1026.178        0.444        0.265       37.960       22.180        0.341      348.841       28.834      860.536
08/22/2013  12:40:00      -35.962      -55.421       29.555       34.356       48.162       33.502     1180.312     2319.579     1122.398        0.493        0.231       66.066       15.872        0.058      348.475       28.198      860.545
08/22/2013  12:41:00      -30.209      -32.275       -0.733       30.345       41.943       17.176      920.815     1759.250      295.018        0.246        0.149       44.208       19.285        0.190      348.731       28.642      860.536
08/22/2013  12:42:00      -13.323      -46.492       33.034       33.666       40.797       27.255     1133.387     1664.391      742.841        0.348        0.177       48.364       23.692        0.240      349.034       29.166      860.512
08/22/2013  12:43:00        4.094     -100.441       12.226       35.551       47.518       38.771     1263.886     2257.919     1503.153        0.764        0.251      100.525       33.742        0.113      348.715       28.613      860.499
08/22/2013  12:44:00      127.438     -233.752      -14.952      128.425      103.901       56.106    16492.949    10795.376     3147.913        5.076        1.522      266.234       53.567        0.040      348.525       28.281      860.501
08/22/2013  12:45:00       62.750      -15.488       96.906       89.097      120.172       72.592     7938.279    14441.340     5269.616        2.060        1.382       64.633       79.260        1.504      348.844       28.835      860.477
08/22/2013  12:46:00      109.042     -118.958       36.607       93.845      174.965       80.508     8806.790    30612.687     6481.553        3.663        2.295      161.373       97.366        0.364      348.598       28.410      860.474
08/22/2013  12:47:00      138.634     -229.140      -11.891       86.239      111.128       55.367     7437.234    12349.377     3065.523        4.736        1.143      267.814       59.541        0.049      348.160       27.651      860.496
08/22/2013  12:48:00       17.352       23.798       62.686       51.671       43.285       36.218     2669.918     1873.630     1311.735        0.533        0.293       29.453       21.490        0.532      348.547       28.323      860.497
08/22/2013  12:49:00       34.596      -40.163       17.125       59.316       68.539       37.741     3518.347     4697.556     1424.351        0.637        0.482       53.009       47.001        0.786      348.521       28.278      860.478
08/22/2013  12:50:00       10.231      -38.599        6.936       60.691       47.165       31.398     3683.352     2224.555      985.830        0.427        0.345       39.932       18.623        0.217      348.772       28.714      860.484
08/22/2013  12:51:00       35.591      -47.506       30.126       86.390      128.911       52.622     7463.272    16618.111     2769.055        1.564        1.343       59.360       58.757        0.980      348.977       29.067      860.491
08/22/2013  12:52:00      137.494      -36.165       89.259      151.076      226.459      116.711    22823.926    51283.854    13621.524        5.794        4.386      142.170      165.266        1.351      348.560       28.342      860.430
08/22/2013  12:53:00       75.308     -104.915       32.581       77.397      139.001       71.968     5990.259    19321.334     5179.455        2.411        1.525      129.145       82.613        0.409      348.435       28.125      860.429
08/22/2013  12:54:00      100.592     -164.343      -11.241      102.406      116.019       76.866    10486.931    13460.440     5908.358        3.355        1.493      192.685       73.337        0.145      348.585       28.387      860.421
08/22/2013  12:55:00       70.108       10.053       93.192      115.280      133.830       99.335    13289.414    17910.541     9867.473        2.738        2.053       70.825       99.897        1.989      348.542       28.312      860.380
08/22/2013  12:56:00      100.850        4.585       42.219      108.162      115.368       75.241    11699.007    13309.737     5661.211        2.132        1.533      100.954       81.162        0.646      348.604       28.419      860.352
08/22/2013  12:57:00      210.031     -242.066      -13.675      193.353      229.124      100.044    37385.199    52497.914    10008.837       10.138        4.995      320.483      141.094        0.194      348.573       28.364      860.331
08/22/2013  12:58:00      207.783     -295.478      -68.015      152.462      110.353       48.485    23244.777    12177.696     2350.824        8.643        1.889      361.222       47.599        0.017      348.315       27.917      860.331
08/22/2013  12:59:00      134.413     -200.145      -22.199       94.456       76.142       62.443     8921.952     5797.665     3899.116        3.862        0.931      241.091       56.652        0.055      348.666       28.526      860.348
08/22/2013  13:00:00       18.180        1.505       86.075       81.372      114.892       57.077     6621.360    13200.218     3257.763        1.541        1.154       18.242       64.481       12.494      348.810       28.776      860.341
08/22/2013  13:01:00      100.404        6.149       64.859      105.871       81.626       62.861    11208.729     6662.771     3951.513        1.807        1.091      100.592       55.052        0.300      348.520       28.273      860.347
08/22/2013  13:02:00      129.233     -115.451      -13.526       80.794       90.532       52.913     6527.720     8195.995     2799.749        2.387        0.876      173.292       46.772        0.073      348.343       27.967      860.346
08/22/2013  13:03:00      110.581     -132.687       14.911       83.626      119.904       51.325     6993.379    14376.979     2634.303        2.703        1.200      172.725       63.182        0.134      348.527       28.287      860.338
08/22/2013  13:04:00       83.571     -142.792       -3.108       49.173       74.133       38.528     2418.029     5495.708     1484.385        1.839        0.470      165.450       38.052        0.053      348.485       28.215      860.319
08/22/2013  13:05:00       20.512        5.534       50.885       52.803       63.407       40.224     2788.160     4020.479     1617.936        0.573        0.421       21.245       33.290        2.455      348.975       29.065      860.313
08/22/2013  13:06:00       58.909      -62.031       13.468       59.930       43.420       49.949     3591.639     1885.306     2494.898        0.773        0.399       85.546       33.582        0.154      348.218       27.754      860.332
08/22/2013  13:07:00      -49.174      -99.118       12.248       96.433       65.606       47.275     9299.343     4304.169     2234.949        1.411        0.792      110.646       40.177        0.132      348.751       28.673      860.364
08/22/2013  13:08:00      -15.426      -18.698       41.436       74.848       83.079       65.887     5602.257     6902.124     4341.040        0.957        0.842       24.240       60.243        6.176      349.041       29.176      860.360
08/22/2013  13:09:00       23.354      -29.319       33.220       36.156       73.935       40.571     1307.240     5466.374     1646.002        0.546        0.421       37.483       47.139        1.582      349.003       29.113      860.343
08/22/2013  13:10:00       45.461      -77.230       44.891       91.357      135.881       74.457     8346.172    18463.549     5543.833        2.119        1.618       89.617       78.486        0.767      348.729       28.636      860.323
08/22/2013  13:11:00      100.263     -115.284       20.036      110.584       94.154       64.100    12228.777     8864.968     4108.788        2.447        1.260      152.784       55.628        0.133      348.633       28.468      860.314
08/22/2013  13:12:00      136.774      -95.515       53.213      130.914      203.756      127.527    17138.593    41516.604    16263.248        5.278        3.746      166.824      137.888        0.683      348.756       28.683      860.282
08/22/2013  13:13:00      118.512     -206.556       -8.260      110.271      144.438       66.421    12159.710    20862.234     4411.814        4.710        1.872      238.140       72.833        0.094      348.696       28.576      860.289
08/22/2013  13:14:00      160.654     -129.334       36.187      125.759      136.348       96.874    15815.321    18590.734     9384.572        4.381        2.190      206.245       98.985        0.230      348.780       28.724      860.247
08/22/2013  13:15:00      142.610     -215.852      -18.541      102.558      142.790       80.254    10518.117    20388.953     6440.753        5.230        1.867      258.708       86.013        0.111      348.652       28.502      860.256
08/22/2013  13:16:00       80.260     -185.126      -16.668       71.249       75.343       38.982     5076.359     5676.580     1519.589        2.663        0.614      201.775       32.641        0.026      348.545       28.317      860.269
08/22/2013  13:17:00      -33.490     -114.386       -5.984       70.555       71.062       37.788     4978.015     5049.813     1427.958        1.285        0.573      119.188       19.023        0.025      348.532       28.296      860.296
08/22/2013  13:18:00      -24.231       11.708        7.644       34.453       25.536       24.916     1186.991      652.082      620.787        0.162        0.123       26.911       10.589        0.155      348.729       28.638      860.275
08/22/2013  13:19:00      -13.152       38.428       34.962       32.863       35.661       25.723     1079.971     1271.693      661.657        0.294        0.151       40.617       14.944        0.135      348.746       28.669      860.262
08/22/2013  13:20:00       21.835      -43.893       26.118       34.669       65.169       30.303     1201.958     4246.990      918.263        0.473        0.318       49.024       20.583        0.176      348.760       28.691      860.256
08/22/2013  13:21:00       -0.253      -12.225       11.035       43.529       21.158       22.728     1894.759      447.676      516.556        0.156        0.143       12.227       18.103        2.192      348.665       28.526      860.250
08/22/2013  13:22:00      -74.854      -24.651       -5.598       47.078       78.259       28.026     2216.328     6124.473      785.451        0.768        0.456       78.809       18.517        0.055      348.749       28.672      860.252
08/22/2013  13:23:00      -77.865     -103.336        4.364      128.157       85.142       44.170    16424.195     7249.203     1950.947        2.119        1.281      129.388       44.474        0.118      348.778       28.721      860.246
08/22/2013  13:24:00     -283.763     -103.098       16.607      127.173      121.743       63.660    16172.927    14821.374     4052.657        6.323        1.752      301.911       61.221        0.041      348.773       28.710      860.210
08/22/2013  13:25:00     -251.111      -51.992       -4.812      109.026       85.997       50.877    11886.673     7395.489     2588.435        4.382        1.094      256.437       53.391        0.043      348.605       28.420      860.224
08/22/2013  13:26:00     -173.120      -39.024       -5.163       98.128       64.758       37.621     9629.191     4193.545     1415.360        2.338        0.762      177.464       48.872        0.076      348.460       28.168      860.199
08/22/2013  13:27:00     -301.455      -97.287      -22.923       79.462       69.658       36.702     6314.168     4852.253     1347.046        5.669        0.626      316.764       31.921        0.010      348.262       27.825      860.169
08/22/2013  13:28:00      -55.213      -30.958       11.198      113.288       65.052       37.211    12834.162     4231.797     1384.637        1.129        0.923       63.300       39.660        0.393      348.574       28.368      860.144
08/22/2013  13:29:00     -167.505       45.729      -18.055       80.774      122.629       42.556     6524.384    15037.856     1811.051        2.692        1.169      173.634       49.577        0.082      348.543       28.314      860.137
08/22/2013  13:30:00      -65.079      120.347       -4.258       83.607       64.574       42.128     6990.085     4169.771     1774.757        1.583        0.647      136.816       36.068        0.069      348.656       28.509      860.132
08/22/2013  13:31:00      -10.792       43.992       25.129       36.730       61.664       37.716     1349.120     3802.446     1422.518        0.463        0.329       45.296       32.236        0.506      349.168       29.397      860.120
08/22/2013  13:32:00       24.223       60.709        5.205       36.168       44.458       29.648     1308.091     1976.511      878.992        0.423        0.208       65.363       22.654        0.120      348.858       28.861      860.096
08/22/2013  13:33:00       11.224       78.194       14.114       37.639       44.724       30.627     1416.711     2000.275      937.994        0.540        0.218       78.995       20.209        0.065      348.947       29.015      860.087
08/22/2013  13:34:00       41.187       65.387       11.041      122.589       65.966       54.188    15028.063     4351.478     2936.321        1.420        1.116       77.278       56.785        0.540      348.597       28.409      860.072
08/22/2013  13:35:00      118.598      128.667      123.312      111.986       98.141      105.765    12540.969     9631.655    11186.265        3.959        1.668      174.987       90.895        0.270      348.713       28.606      860.025
08/22/2013  13:36:00       67.109     -131.596       34.235       76.536      162.831       89.870     5857.728    26513.890     8076.541        3.171        2.022      147.720      101.619        0.473      348.856       28.856      860.053
08/22/2013  13:37:00       81.952     -220.837      -17.366       50.194       77.789       44.557     2519.464     6051.077     1985.322        3.317        0.528      235.553       38.313        0.026      348.448       28.149      860.117
08/22/2013  13:38:00       80.816     -105.614       23.574       58.469       85.016       49.147     3418.670     7227.793     2415.448        1.565        0.653      132.987       50.523        0.144      348.686       28.562      860.152
08/22/2013  13:39:00       34.055      -15.485       50.189       72.523       96.829       51.382     5259.616     9375.923     2640.149        1.059        0.864       37.411       60.623        2.626      348.807       28.774      860.129
08/22/2013  13:40:00        7.950       -6.413       28.559       37.199       44.499       40.532     1383.756     1980.195     1642.812        0.296        0.250       10.215       24.047        5.542      348.698       28.585      860.094
08/22/2013  13:41:00       57.244       32.629       63.034       62.412       56.090       45.261     3895.213     3146.061     2048.532        0.870        0.454       65.890       47.238        0.514      348.309       27.911      860.062
08/22/2013  13:42:00       95.878      -44.417       13.022       54.191       72.874       45.461     2936.643     5310.606     2066.686        1.082        0.516      105.666       39.749        0.142      348.262       27.829      860.045
08/22/2013  13:43:00       29.873      -16.429       27.647       42.517       48.563       29.922     1807.700     2358.339      895.334        0.349        0.253       34.092       35.315        1.073      348.846       28.841      860.057
08/22/2013  13:44:00        6.401      -39.525       13.029       29.597       37.885       22.290      875.990     1435.287      496.859        0.229        0.140       40.040       14.873        0.138      349.097       29.276      860.055
08/22/2013  13:45:00        0.389      -48.191        9.503       49.716       32.912       32.305     2471.710     1083.189     1043.592        0.350        0.230       48.192       19.585        0.165      349.033       29.164      860.046
08/22/2013  13:46:00       78.049     -121.605       22.881      122.221      149.949       52.043    14937.975    22484.699     2708.510        3.076        2.007      144.497       68.510        0.225      348.963       29.041      860.061
08/22/2013  13:47:00      138.466     -162.403       53.161      165.081      201.372      107.543    27251.830    40550.883    11565.486        6.386        3.968      213.419      119.936        0.316      348.784       28.730      860.012
08/22/2013  13:48:00      122.631     -206.227       23.225      123.694      193.090       96.353    15300.270    37283.877     9283.812        5.998        3.093      239.933      113.345        0.223      348.648       28.494      860.009
08/22/2013  13:49:00      140.078     -151.662       44.500      171.333      173.553      114.950    29355.019    30120.727    13213.468        5.863        3.634      206.454      131.467        0.405      348.810       28.776      859.972
08/22/2013  13:50:00      176.337      -61.997       75.834      159.551      142.786      106.144    25456.495    20387.945    11266.453        4.889        2.856      186.918      114.393        0.375      348.934       28.990      859.973
08/22/2013  13:51:00      122.408     -125.268        0.603       98.685      145.431       81.475     9738.724    21150.160     6638.157        3.410        1.876      175.145       87.216        0.248      348.963       29.040      859.982
08/22/2013  13:52:00      178.655     -197.540      -15.035      125.354      157.070       84.691    15713.613    24670.938     7172.644        5.935        2.378      266.345       99.551        0.140      348.890       28.913      859.978
08/22/2013  13:53:00       69.435     -222.798        9.904      109.008      173.827       83.760    11882.791    30215.656     7015.671        5.183        2.456      233.367       85.452        0.134      348.820       28.792      860.003
08/22/2013  13:54:00       12.285     -110.052        3.205       67.063       84.909       57.165     4497.425     7209.618     3267.848        1.362        0.749      110.735       42.061        0.144      348.992       29.092      860.032
08/22/2013  13:55:00       42.311     -115.743       13.242       84.097      104.411       71.338     7072.287    10901.723     5089.122        1.921        1.153      123.234       57.053        0.214      348.783       28.729      860.036
08/22/2013  13:56:00       30.426     -183.178       -2.498      108.704      103.393       69.530    11816.570    10690.213     4834.480        3.091        1.367      185.687       58.298        0.099      348.593       28.399      860.050
08/22/2013  13:57:00       -2.651      -45.965        9.685       72.240       89.919       55.887     5218.639     8085.394     3123.409        0.932        0.821       46.041       48.798        1.123      348.666       28.527      860.021
08/22/2013  13:58:00       18.951     -115.569        8.816       82.296       67.863       46.066     6772.655     4605.439     2122.067        1.364        0.675      117.113       41.889        0.128      348.680       28.553      860.047
08/22/2013  13:59:00       13.658      -74.529       26.873       35.759       72.528       50.723     1278.702     5260.295     2572.806        0.779        0.456       75.770       48.668        0.413      348.822       28.799      860.037
08/22/2013  14:00:00       19.308      -48.856        9.875       58.331       63.120       43.097     3402.523     3984.154     1857.344        0.605        0.462       52.533       37.527        0.510      349.058       29.208      860.039
08/22/2013  14:01:00      -12.457      -59.141       10.064       72.116       68.027       48.380     5200.684     4627.703     2340.596        0.796        0.608       60.439       41.557        0.473      348.917       28.965      860.015
08/22/2013  14:02:00        8.430     -112.920       -6.640       81.038       68.405       42.688     6567.079     4679.196     1822.293        1.297        0.653      113.234       24.993        0.049      348.796       28.752      860.033
08/22/2013  14:03:00      -14.026     -148.097        0.213      185.969      136.146       77.473    34584.474    18535.796     6002.009        4.062        2.956      148.760       61.571        0.171      348.630       28.464      860.025
08/22/2013  14:04:00      -85.083     -114.864       -4.788       77.473      105.445       52.736     6002.075    11118.624     2781.116        2.018        0.995      142.943       36.760        0.066      348.533       28.297      860.036
08/22/2013  14:05:00      -86.285     -163.853      -16.552      123.350      100.259       62.073    15215.335    10051.807     3853.081        3.184        1.456      185.183       68.384        0.136      348.610       28.429      860.003
08/22/2013  14:06:00     -143.568     -133.245      -12.771      106.907       81.914       53.066    11429.174     6709.925     2816.021        2.974        1.048      195.873       48.953        0.062      348.646       28.491      859.994
08/22/2013  14:07:00      -65.383     -103.174        5.879       94.975       53.212       45.796     9020.244     2831.554     2097.295        1.445        0.697      122.146       40.924        0.112      348.704       28.595      859.974
08/22/2013  14:08:00     -131.536     -106.632        0.051      127.641       77.618       52.059    16292.103     6024.592     2710.119        2.685        1.251      169.328       54.474        0.103      348.615       28.436      859.951
08/22/2013  14:09:00     -144.261      -88.009       25.106      126.327       93.919       57.054    15958.617     8820.826     3255.108        2.861        1.402      168.988       62.188        0.135      348.702       28.589      859.934
08/22/2013  14:10:00     -121.583     -146.505       -6.584      121.528       87.665       51.116    14769.069     7685.139     2612.894        3.067        1.253      190.384       53.694        0.080      348.702       28.588      859.915
08/22/2013  14:11:00      100.352     -191.800       11.700      107.717      125.484       64.158    11602.907    15746.333     4116.300        3.922        1.573      216.467       58.738        0.074      348.712       28.604      859.917
08/22/2013  14:12:00       -6.724     -115.415        7.832       79.528       57.180       41.020     6324.676     3269.547     1682.673        1.235        0.564      115.610       29.899        0.067      348.842       28.833      859.894
08/22/2013  14:13:00      -67.797      -73.430       -2.734       53.246       50.442       31.320     2835.141     2544.408      980.916        0.818        0.318       99.942       17.596        0.031      348.962       29.040      859.888
08/22/2013  14:14:00      -43.507      -13.886        9.974       82.516       52.971       33.282     6808.914     2805.959     1107.662        0.645        0.536       45.669       28.084        0.378      349.039       29.174      859.891
08/22/2013  14:15:00      -38.735      -52.080       18.817       92.912       75.201       48.106     8632.645     5655.186     2314.164        1.058        0.830       64.906       26.216        0.163      348.936       28.995      859.867
08/22/2013  14:16:00       19.454      -60.302       21.130       50.695       82.666       39.848     2569.980     6833.707     1587.827        0.772        0.550       63.363       48.792        0.593      348.983       29.076      859.889
08/22/2013  14:17:00      -20.581      -24.725       22.745       25.038       41.340       22.186      626.920     1709.011      492.200        0.219        0.141       32.170       18.712        0.338      349.080       29.245      859.883
08/22/2013  14:18:00       15.955      -54.373       18.114       63.307       69.585       48.224     4007.725     4842.131     2325.509        0.736        0.559       56.665       40.791        0.518      349.074       29.235      859.866
08/22/2013  14:19:00      -55.670     -122.133       15.779       98.922      110.080       66.788     9785.464    12117.677     4460.581        2.231        1.318      134.222       41.364        0.095      348.956       29.028      859.857
08/22/2013  14:20:00       10.678      -96.741       -5.207       55.391       61.507       40.292     3068.210     3783.169     1623.480        0.899        0.424       97.328       36.426        0.140      348.931       28.988      859.890
08/22/2013  14:21:00      -15.896     -191.353       -1.661       98.768      145.157       62.476     9755.071    21070.515     3903.197        3.579        1.736      192.012       70.403        0.134      348.805       28.768      859.884
08/22/2013  14:22:00       46.738     -107.108       17.730       88.206      102.468       57.910     7780.358    10499.780     3353.612        1.780        1.082      116.861       54.034        0.214      348.790       28.742      859.868
08/22/2013  14:23:00       25.611      -43.204       23.157       54.163       61.665       43.826     2933.672     3802.551     1920.719        0.586        0.433       50.224       38.105        0.576      348.743       28.660      859.844
08/22/2013  14:24:00       27.933      -84.057        6.881       65.034       80.463       59.652     4229.457     6474.229     3558.312        1.108        0.713       88.576       50.691        0.328      348.520       28.275      859.804
08/22/2013  14:25:00       71.784     -136.062       -5.760       74.322      103.690       56.271     5523.768    10751.695     3166.479        2.157        0.972      153.837       49.669        0.104      348.713       28.609      859.783
08/22/2013  14:26:00      -22.424     -116.963       -5.107       88.906      136.529       55.480     7904.347    18640.067     3078.084        2.191        1.481      119.093       63.808        0.287      348.878       28.894      859.781
08/22/2013  14:27:00       90.702     -173.022       -1.240       94.892      149.624       60.082     9004.548    22387.292     3609.797        3.658        1.750      195.354       59.839        0.094      348.881       28.900      859.808
08/22/2013  14:28:00      -62.468     -155.528      -25.063       93.312       87.108       51.309     8707.171     7587.739     2632.593        2.382        0.946      167.605       35.598        0.045      348.819       28.791      859.791
08/22/2013  14:29:00        5.566      -90.832       -4.519       95.971      102.580       61.852     9210.434    10522.712     3825.728        1.593        1.178       91.003       39.959        0.193      348.808       28.774      859.769
08/22/2013  14:30:00      -32.540     -180.780       -3.201       98.533       63.716       51.777     9708.827     4059.708     2680.809        2.510        0.822      183.685       33.425        0.033      348.824       28.798      859.745
08/22/2013  14:31:00      -27.414     -159.389      -26.450       71.846       84.389       45.128     5161.894     7121.528     2036.580        2.059        0.716      161.729       35.249        0.048      348.855       28.854      859.768
08/22/2013  14:32:00      -48.012      -90.629        5.523       94.039       80.512       39.150     8843.308     6482.219     1532.719        1.370        0.843      102.561       37.592        0.134      348.997       29.099      859.739
08/22/2013  14:33:00      -17.565      -31.090       15.192       49.654       52.341       34.768     2465.565     2739.562     1208.797        0.396        0.321       35.709       24.736        0.480      349.061       29.213      859.697
08/22/2013  14:34:00      -53.118     -106.523       13.778       72.829       49.242       42.937     5304.131     2424.726     1843.588        1.196        0.479      119.032       28.898        0.059      349.062       29.214      859.685
08/22/2013  14:35:00      -60.476      -39.952       22.375      111.929       77.636       38.847    12528.030     6027.421     1509.093        1.291        1.003       72.481       33.722        0.216      348.954       29.025      859.680
08/22/2013  14:36:00      -63.448      -70.217       12.739       88.360       77.016       39.123     7807.542     5931.424     1530.629        1.219        0.763       94.637       37.603        0.158      348.939       28.999      859.671
08/22/2013  14:37:00      -83.453      -89.471        9.113       92.590       86.069       40.073     8572.912     7407.821     1605.876        1.632        0.879      122.349       51.699        0.179      348.798       28.755      859.646
08/22/2013  14:38:00     -203.383     -123.400      -12.661       49.818       44.820       34.162     2481.804     2008.804     1167.066        3.120        0.283      237.891       26.423        0.012      348.695       28.574      859.642
08/22/2013  14:39:00      -95.811      -54.466       19.869       96.551       52.155       31.185     9322.037     2720.187      972.478        1.278        0.651      110.210       33.107        0.090      348.876       28.892      859.599
08/22/2013  14:40:00      -43.502      -14.732        7.650       34.864       48.289       31.872     1215.516     2331.863     1015.833        0.336        0.228       45.929       32.411        0.498      349.001       29.109      859.580
08/22/2013  14:41:00        4.821      -26.845       11.303       44.467       52.091       30.066     1977.325     2713.438      903.935        0.323        0.280       27.274       32.373        1.409      349.067       29.223      859.569
08/22/2013  14:42:00      -12.463       -7.943       23.168       29.646       54.756       25.188      878.904     2998.228      634.436        0.263        0.226       14.779       11.466        0.602      348.922       28.972      859.553
08/22/2013  14:43:00      -20.076      -25.273        0.529       66.507       44.125       30.011     4423.180     1947.025      900.652        0.416        0.364       32.277       25.109        0.605      348.876       28.891      859.546
08/22/2013  14:44:00      -28.524      -13.686       34.620       62.970       72.831       31.348     3965.231     5304.401      982.674        0.622        0.513       31.637       23.273        0.541      349.056       29.204      859.561
08/22/2013  14:45:00      -18.706      -60.049       51.313       71.950      104.544       52.662     5176.849    10929.494     2773.279        1.273        0.944       62.895       55.561        0.780      348.913       28.956      859.549
08/22/2013  14:46:00      -35.600     -105.226       -2.728       63.634       67.317       53.608     4049.343     4531.553     2873.802        1.190        0.573      111.085       40.465        0.133      348.860       28.865      859.563
08/22/2013  14:47:00     -256.877     -149.426      -16.014      134.839      122.098       54.411    18181.444    14908.019     2960.561        6.230        1.803      297.176       65.907        0.049      348.781       28.726      859.521
08/22/2013  14:48:00      -95.784     -149.497       -1.248       99.790       95.805       44.258     9958.030     9178.684     1958.733        2.631        1.055      177.549       38.043        0.046      348.900       28.931      859.526
08/22/2013  14:49:00      -45.531     -148.311       -0.196      112.858      115.045       44.984    12737.026    13235.278     2023.528        2.603        1.400      155.143       45.062        0.084      348.880       28.896      859.550
08/22/2013  14:50:00       23.782      -60.964       22.465       61.029       93.444       62.281     3724.566     8731.712     3878.877        1.056        0.817       65.439       64.620        0.975      348.787       28.738      859.504
08/22/2013  14:51:00       36.831     -109.272       20.507       77.956       86.505       64.078     6077.165     7483.171     4105.958        1.569        0.883      115.312       59.733        0.268      348.644       28.488      859.485
08/22/2013  14:52:00      -39.381     -110.631      -12.125       46.580       46.281       40.534     2169.674     2141.925     1642.965        0.994        0.298      117.432       17.198        0.021      348.785       28.735      859.497
08/22/2013  14:53:00       10.841      -28.791       18.543       53.644       71.194       38.710     2877.645     5068.579     1498.501        0.537        0.472       30.764       43.210        1.973      348.918       28.966      859.499
08/22/2013  14:54:00      -19.103      -74.828        4.987       40.417       87.218       43.058     1633.567     7606.938     1853.974        0.854        0.555       77.228       50.957        0.435      348.769       28.705      859.484
08/22/2013  14:55:00       80.267     -101.160       12.892       90.382       86.150       39.347     8168.926     7421.883     1548.176        1.699        0.857      129.136       12.394        0.009      348.581       28.381      859.474
08/22/2013  14:56:00      -43.403     -160.231       -7.226       99.226       85.860       50.449     9845.729     7372.013     2545.115        2.368        0.988      166.005       37.966        0.052      348.795       28.751      859.458
08/22/2013  14:57:00      -36.714     -187.382       18.653       86.072      118.362       62.671     7408.319    14009.638     3927.610        3.107        1.267      190.945       47.321        0.061      348.779       28.723      859.435
08/22/2013  14:58:00     -174.061     -322.939       -7.222      109.744      134.037       76.848    12043.685    17965.901     5905.638        8.527        1.796      366.861       73.618        0.040      348.732       28.642      859.442
08/22/2013  14:59:00     -133.911     -157.117        2.569      117.728      138.879       54.470    13859.850    19287.438     2966.966        3.936        1.806      206.441       56.508        0.075      348.801       28.761      859.414
08/22/2013  15:00:00     -195.160      -62.690       -7.185      104.783       77.126       42.443    10979.415     5948.438     1801.388        3.040        0.936      204.981       41.183        0.040      348.886       28.906      859.405
08/22/2013  15:01:00     -220.237      -73.738       -2.971       85.203       96.485       46.022     7259.609     9309.414     2118.036        3.632        0.934      232.254       39.381        0.029      348.902       28.934      859.391
08/22/2013  15:02:00     -152.090      -57.571       19.894      118.263       97.531       59.855    13986.204     9512.379     3582.590        2.696        1.354      162.621       67.771        0.174      348.983       29.076      859.381
08/22/2013  15:03:00     -241.112     -193.442       -2.344      124.823      100.064       68.131    15580.676    10012.897     4641.865        6.289        1.512      309.120       44.947        0.021      348.757       28.683      859.379
08/22/2013  15:04:00     -134.690     -101.879        5.750      109.511       60.593       45.826    11992.741     3671.553     2100.048        2.316        0.888      168.880       53.992        0.102      348.765       28.697      859.393
08/22/2013  15:05:00     -256.323     -160.100        8.769      170.384      107.596       49.778    29030.784    11576.916     2477.835        6.724        2.154      302.214       53.165        0.031      348.874       28.885      859.401
08/22/2013  15:06:00     -321.107     -238.220       -4.664      142.534      127.437       70.496    20315.835    16240.276     4969.739       10.070        2.076      399.823       71.660        0.032      348.768       28.702      859.403
08/22/2013  15:07:00     -209.703     -118.147       -2.347      162.027      106.027       60.820    26252.665    11241.737     3699.097        4.956        2.060      240.695       64.487        0.072      348.793       28.745      859.393
08/22/2013  15:08:00     -353.803     -235.368      -10.985      142.554      128.563       62.575    20321.508    16528.389     3915.580       11.072        2.038      424.941       52.523        0.015      348.746       28.664      859.372
08/22/2013  15:09:00     -305.339     -219.724      -18.249      132.211      127.619       63.142    17479.681    16286.542     3986.881        8.979        1.888      376.179       65.775        0.031      348.875       28.886      859.361
08/22/2013  15:10:00     -124.557      -69.096        1.077      105.849       71.022       43.246    11204.001     5044.073     1870.215        1.920        0.906      142.438       35.360        0.062      348.940       28.999      859.363
08/22/2013  15:11:00      -54.977      -62.917       13.349       82.897       76.414       34.957     6871.922     5839.055     1222.017        1.054        0.697       83.553       43.247        0.268      349.033       29.162      859.349
08/22/2013  15:12:00     -145.437     -186.512        8.181      102.247      105.794       58.551    10454.392    11192.384     3428.165        4.054        1.254      236.513       49.245        0.043      348.903       28.935      859.355
08/22/2013  15:13:00     -185.141     -135.969       -4.881       93.524       66.271       44.779     8746.823     4391.793     2005.140        3.396        0.757      229.705       35.330        0.024      348.890       28.914      859.326
08/22/2013  15:14:00     -110.778     -105.217       -0.644      105.944       84.072       49.783    11224.074     7068.087     2478.394        2.205        1.039      152.782       47.985        0.099      348.988       29.084      859.326
08/22/2013  15:15:00       63.219      -99.871       31.054       71.801      108.924       63.540     5155.435    11864.443     4037.362        1.799        1.053      118.198       73.949        0.391      348.986       29.080      859.321
08/22/2013  15:16:00      -25.583     -118.282        2.026       63.721       41.822       38.209     4060.315     1749.076     1459.936        1.096        0.363      121.017       24.606        0.041      348.925       28.977      859.328
08/22/2013  15:17:00        9.655     -100.841        4.922       57.241       66.714       45.569     3276.495     4450.706     2076.491        1.004        0.490      101.302       37.265        0.135      348.988       29.085      859.332
08/22/2013  15:18:00       23.208     -193.992        2.891      110.275       92.728       60.874    12160.476     8598.467     3705.628        3.132        1.223      195.375       49.329        0.064      348.847       28.838      859.334
08/22/2013  15:19:00        1.495      -78.463        6.792       57.765       74.027       49.724     3336.836     5479.949     2472.469        0.875        0.564       78.478       40.101        0.261      348.755       28.683      859.283
08/22/2013  15:20:00      -24.641      -53.241       15.433       66.583       87.964       36.618     4433.317     7737.659     1340.866        0.859        0.676       58.667       46.421        0.626      349.045       29.184      859.301
08/22/2013  15:21:00      -23.935      -10.546       24.834       46.626       52.029       28.409     2173.941     2707.026      807.047        0.349        0.284       26.155       23.172        0.785      349.040       29.178      859.291
08/22/2013  15:22:00      -29.343      -48.324        6.871       96.659       66.028       45.854     9342.896     4359.713     2102.566        0.952        0.790       56.535       35.675        0.398      348.987       29.084      859.288
08/22/2013  15:23:00       15.205      -53.921        4.831       42.785       68.593       41.592     1830.523     4704.998     1729.866        0.571        0.413       56.024       31.576        0.318      348.995       29.098      859.264
08/22/2013  15:24:00      -27.602     -175.893      -16.755      110.796       62.866       42.344    12275.822     3952.144     1792.993        2.500        0.901      178.046       23.198        0.017      348.921       28.967      859.250
08/22/2013  15:25:00      -53.627     -137.213       -1.208      125.808      129.064       56.573    15827.664    16657.456     3200.474        2.869        1.784      147.321       55.022        0.139      349.011       29.123      859.237
08/22/2013  15:26:00       85.392     -185.294      -15.460      102.379       98.573       56.440    10481.477     9716.649     3185.469        3.262        1.169      204.024       53.050        0.068      348.925       28.973      859.252
08/22/2013  15:27:00      -91.708      -55.356       13.760      100.405       55.879       32.989    10081.200     3122.475     1088.280        1.298        0.715      107.119       37.711        0.124      349.034       29.166      859.263
08/22/2013  15:28:00      -70.558      -71.982        9.993       92.770       40.551       30.875     8606.353     1644.375      953.244        1.073        0.560      100.796       38.586        0.147      349.090       29.263      859.264
08/22/2013  15:29:00     -354.170      -45.081      -36.283      190.851      118.110       55.285    36424.004    13950.011     3056.380        9.110        2.672      357.027       71.319        0.040      348.911       28.950      859.204
08/22/2013  15:30:00     -235.391     -183.561       -5.789      181.412      157.525       73.693    32910.359    24814.210     5430.649        7.614        3.158      298.502       84.825        0.081      349.030       29.156      859.230
08/22/2013  15:31:00     -261.078     -212.276       -7.685      128.725      110.458       68.980    16570.254    12200.929     4758.198        7.340        1.676      336.486       60.580        0.032      348.853       28.848      859.218
08/22/2013  15:32:00     -246.222     -104.732       -3.421      176.530      103.713       64.550    31162.741    10756.475     4166.659        5.884        2.304      267.571       70.999        0.070      348.923       28.970      859.203
08/22/2013  15:33:00     -276.595      -81.499       -6.975      169.701      133.036       76.442    28798.367    17698.541     5843.380        6.776        2.617      288.352       77.995        0.073      348.918       28.962      859.154
08/22/2013  15:34:00     -161.855      -81.618        1.250      116.836      100.892       60.653    13650.729    10179.240     3678.772        3.018        1.375      181.270       60.029        0.110      349.072       29.228      859.145
08/22/2013  15:35:00     -118.461      -74.316        2.879       76.692       70.682       38.203     5881.618     4995.911     1459.439        1.595        0.617      139.842        7.166        0.003      349.159       29.380      859.138
08/22/2013  15:36:00     -118.946       -0.664       -4.941       73.679       37.543       30.599     5428.640     1409.473      936.329        1.097        0.389      118.948       26.622        0.050      349.250       29.540      859.113
08/22/2013  15:37:00      -22.797      -46.399        9.271       86.648       71.785       33.402     7507.835     5153.088     1115.691        0.827        0.689       51.697       30.584        0.350      349.164       29.390      859.114
08/22/2013  15:38:00       17.896      -41.984       48.959       57.477      133.565       65.761     3303.597    17839.511     4324.567        1.497        1.273       45.639       76.332        2.797      348.914       28.958      859.084
08/22/2013  15:39:00       12.138     -113.458       -1.656       84.795       62.140       49.526     7190.161     3861.424     2452.816        1.326        0.675      114.105       35.316        0.096      349.081       29.247      859.104
08/22/2013  15:40:00      -22.923      -21.386       24.926      121.813       54.432       57.165    14838.378     2962.842     3267.804        1.133        1.053       31.350       32.575        1.080      349.071       29.230      859.091
08/22/2013  15:41:00        5.104      -71.589        9.260       66.909       60.540       52.299     4476.870     3665.104     2735.229        0.806        0.544       71.771       24.438        0.116      348.867       28.877      859.093
08/22/2013  15:42:00      -26.828      -66.662        4.166       64.154       68.628       41.701     4115.733     4709.862     1738.957        0.787        0.528       71.858       34.708        0.233      348.981       29.074      859.100
08/22/2013  15:43:00       -0.902      -56.961       33.153       59.580       46.146       50.863     3549.834     2129.442     2587.065        0.630        0.413       56.968       36.361        0.407      349.088       29.260      859.096
08/22/2013  15:44:00     -134.413     -125.729       -1.232       94.316       63.700       43.595     8895.425     4057.679     1900.486        2.436        0.743      184.051       37.142        0.041      348.914       28.955      859.107
08/22/2013  15:45:00     -160.265     -118.896       10.683      114.781       77.971       46.679    13174.584     6079.479     2178.887        3.068        1.072      199.552       39.575        0.039      348.974       29.060      859.119
08/22/2013  15:46:00      -78.441      -58.451        0.417       72.245       81.076       39.735     5219.342     6573.366     1578.831        1.147        0.669       97.824       35.895        0.135      349.089       29.262      859.129
08/22/2013  15:47:00     -120.627     -137.627        2.563       99.758       81.815       43.261     9951.747     6693.723     1871.503        2.600        0.926      183.009       43.909        0.058      349.071       29.227      859.123
08/22/2013  15:48:00     -180.573      -71.203        7.350       98.929       90.827       50.110     9786.889     8249.536     2511.050        2.914        1.027      194.105       56.661        0.085      349.139       29.344      859.115
08/22/2013  15:49:00     -233.820      -41.460       -3.007       80.177      100.582       53.826     6428.330    10116.736     2897.207        3.792        0.972      237.467       46.469        0.038      348.984       29.075      859.101
08/22/2013  15:50:00      -36.854      -42.831       10.954       46.941       76.796       30.223     2203.440     5897.620      913.425        0.616        0.451       56.504       24.195        0.183      348.876       28.892      859.080
08/22/2013  15:51:00      -22.191      -77.357        4.369       67.564       93.768       40.311     4564.918     8792.385     1624.982        1.074        0.749       80.477       44.319        0.303      348.982       29.075      859.044
08/22/2013  15:52:00       37.030     -121.117       -9.271       67.219       87.130       52.065     4518.327     7591.613     2710.796        1.547        0.741      126.652       49.144        0.151      348.881       28.899      859.041
08/22/2013  15:53:00      -20.710      -77.980        6.967       48.093       49.543       32.211     2312.961     2454.466     1037.526        0.618        0.290       80.683       15.889        0.039      349.030       29.159      859.028
08/22/2013  15:54:00       -6.355       -9.169       37.018       31.152       47.601       30.538      970.444     2265.852      932.570        0.283        0.208       11.155        8.383        0.565      348.879       28.897      859.005
08/22/2013  15:55:00       12.734     -105.674       13.859       68.707       80.495       61.523     4720.590     6479.522     3785.031        1.325        0.749      106.438       35.408        0.111      349.125       29.322      859.014
08/22/2013  15:56:00      -16.335     -107.311      -13.997       91.927       76.801       34.747     8450.491     5898.459     1207.337        1.376        0.778      108.547       18.951        0.030      348.954       29.027      858.991
08/22/2013  15:57:00       -8.635      -43.011       16.026       41.651       66.160       47.577     1734.790     4377.202     2263.529        0.528        0.419       43.869       29.543        0.454      349.054       29.200      858.988
08/22/2013  15:58:00       29.152      -92.032        8.980       53.362       72.582       46.305     2847.451     5268.194     2144.163        0.983        0.513       96.539       44.051        0.208      348.984       29.078      858.976
08/22/2013  15:59:00       79.211      -53.061       20.854       74.384       77.292       45.962     5532.956     5974.123     2112.465        1.157        0.681       95.341       46.777        0.241      348.758       28.688      858.969
08/22/2013  16:00:00       60.880      -74.685       12.836       65.218       87.971       42.407     4253.429     7738.870     1798.394        1.162        0.690       96.355       41.388        0.185      348.754       28.679      858.959
08/22/2013  16:01:00       67.743      -70.126       21.103       50.698       61.012       37.637     2570.279     3722.459     1416.534        0.883        0.385       97.503       34.615        0.126      348.769       28.708      858.955
08/22/2013  16:02:00       26.553      -23.894       42.602       46.906       76.784       50.278     2200.170     5895.771     2527.881        0.686        0.531       35.720       53.032        2.204      348.885       28.908      858.945
08/22/2013  16:03:00        0.385      -53.929       17.500       68.944       94.846       62.215     4753.301     8995.700     3870.720        1.041        0.881       53.930       62.622        1.348      348.954       29.027      858.951
08/22/2013  16:04:00      176.977     -157.402       37.492      115.612      175.646       85.273    13366.087    30851.463     7271.554        5.449        2.574      236.846      105.146        0.197      348.706       28.595      858.936
08/22/2013  16:05:00       17.308      -33.550       63.323       65.287      131.114       86.267     4262.420    17190.889     7442.016        1.716        1.445       37.751       87.489        5.371      348.719       28.620      858.910
08/22/2013  16:06:00      120.007     -176.565        5.224      103.220      139.476       82.914    10654.304    19453.553     6874.702        4.129        1.849      213.487       98.741        0.214      348.922       28.969      858.889
08/22/2013  16:07:00      114.801      -25.490       62.532      113.090      154.554       96.509    12789.372    23887.065     9314.063        3.186        2.300      117.597      106.429        0.819      348.913       28.952      858.896
08/22/2013  16:08:00       94.192      -83.512       61.814      122.755      154.677       97.343    15068.856    23924.972     9475.703        3.406        2.423      125.883      109.637        0.759      348.825       28.803      858.880
08/22/2013  16:09:00       22.042        1.371       72.957       67.806      116.066       71.401     4597.608    13471.377     5098.084        1.448        1.158       22.085       73.927       11.205      348.863       28.870      858.886
08/22/2013  16:10:00       80.317     -151.251        2.632       73.247      117.114       59.831     5365.073    13715.711     3579.762        2.599        1.133      171.254       61.506        0.129      348.917       28.962      858.874
08/22/2013  16:11:00       75.933     -156.318       -5.992       48.218       52.397       33.715     2325.006     2745.443     1136.675        1.822        0.310      173.784       29.057        0.028      348.949       29.017      858.876
08/22/2013  16:12:00       56.146      -20.674       50.316       59.732       90.512       54.178     3567.904     8192.485     2935.209        1.040        0.735       59.831       53.546        0.801      348.767       28.703      858.859
08/22/2013  16:13:00      138.775     -189.857       -0.411      107.635      174.993       72.277    11585.275    30622.448     5224.004        5.136        2.372      235.168       97.662        0.172      348.881       28.899      858.823
08/22/2013  16:14:00       61.273       20.221       55.697       83.679      114.116       77.387     7002.251    13022.354     5988.670        1.663        1.301       64.524       89.594        1.928      348.849       28.845      858.804
08/22/2013  16:15:00       86.667      -41.245       30.017       89.459      113.569       66.274     8002.963    12897.818     4392.287        1.770        1.265       95.981       64.217        0.448      348.507       28.251      858.773
08/22/2013  16:16:00        8.779     -119.098        8.876       73.044      124.302       53.191     5335.369    15450.897     2829.233        1.897        1.181      119.421       59.163        0.245      348.857       28.857      858.726
08/22/2013  16:17:00       32.897     -182.509        8.815      143.775      123.095       88.554    20671.255    15152.463     7841.799        3.906        2.183      185.451       70.477        0.144      348.907       28.943      858.704
08/22/2013  16:18:00       40.603     -166.490       65.393      129.024      117.378       86.118    16647.194    13777.659     7416.259        3.574        1.892      171.370       75.156        0.192      348.984       29.077      858.686
08/22/2013  16:19:00     -212.185     -162.772        5.814      124.942      100.514       59.948    15610.625    10103.118     3593.765        5.042        1.465      267.427       56.720        0.045      348.917       28.961      858.785
08/22/2013  16:20:00     -171.127     -213.847       -5.007      140.510      139.954       56.450    19743.168    19587.232     3186.585        5.877        2.126      273.889       59.202        0.047      348.869       28.879      858.799
08/22/2013  16:21:00      -92.460     -247.268       -9.091       95.418      106.341       56.780     9104.561    11308.469     3223.938        4.670        1.182      263.989       44.497        0.028      348.819       28.790      858.788
08/22/2013  16:22:00     -111.299      -97.019       25.389       98.535       98.789       54.530     9709.213     9759.211     2973.531        2.244        1.122      147.649       62.160        0.177      348.944       29.007      858.764
08/22/2013  16:23:00      -10.415     -132.624        0.253       67.691       54.884       43.560     4582.054     3012.219     1897.497        1.359        0.475      133.032       39.363        0.088      348.955       29.027      858.785
08/22/2013  16:24:00      -29.767     -166.910        3.221       73.655       69.818       54.620     5424.991     4874.552     2983.373        2.102        0.664      169.544       30.336        0.032      348.949       29.016      858.823
08/22/2013  16:25:00      -30.037      -85.815       -3.932      108.430       93.336       69.721    11757.172     8711.640     4860.956        1.680        1.266       90.920       61.120        0.452      348.935       28.995      858.820
08/22/2013  16:26:00     -149.773      -82.625        8.722       91.397       82.722       43.615     8353.416     6842.929     1902.268        2.321        0.855      171.052       45.495        0.071      348.967       29.047      858.798
08/22/2013  16:27:00       35.660      -54.105        7.002       65.299       89.660       43.212     4263.970     8038.841     1867.289        0.921        0.709       64.800       51.433        0.630      349.020       29.140      858.804
08/22/2013  16:28:00      105.366     -143.125      -15.374       72.066       81.181       54.883     5193.487     6590.317     3012.101        2.331        0.740      177.727       47.330        0.071      348.770       28.706      858.793
08/22/2013  16:29:00       49.668      -91.904       17.632       46.000       87.200       51.605     2115.998     7603.793     2663.024        1.180        0.619      104.466       55.807        0.285      348.824       28.801      858.791
08/22/2013  16:30:00      -24.407     -103.098        1.414       83.870       97.071       48.699     7034.169     9422.736     2371.627        1.502        0.941      105.948       47.057        0.197      349.060       29.210      858.792
08/22/2013  16:31:00      -83.724      -62.200       -2.532       74.612       60.690       46.246     5566.934     3683.309     2138.714        1.114        0.569      104.300       37.061        0.126      349.125       29.324      858.792
08/22/2013  16:32:00     -216.339     -199.706       -0.442      101.558      103.629       52.345    10314.034    10739.009     2739.986        5.524        1.190      294.424       43.111        0.021      348.949       29.016      858.815
08/22/2013  16:33:00      -65.496     -120.163       12.080       99.788       84.067       42.623     9957.568     7067.247     1816.753        1.886        0.942      136.854       36.194        0.070      349.023       29.144      858.813
08/22/2013  16:34:00       17.241     -171.162       -1.569       97.439      155.627       63.470     9494.388    24219.786     4028.479        3.366        1.887      172.028       57.645        0.112      348.867       28.875      858.813
08/22/2013  16:35:00      -15.746     -244.467        5.965      107.089      100.617       64.700    11468.148    10123.726     4186.122        4.291        1.289      244.974       59.341        0.059      348.709       28.600      858.772
08/22/2013  16:36:00      -34.496     -137.423        4.490      104.764       80.683       60.800    10975.461     6509.756     3696.618        2.064        1.059      141.687       34.267        0.058      348.873       28.885      858.802
08/22/2013  16:37:00     -142.269     -233.259       -7.617      107.425      109.088       52.782    11540.218    11900.223     2785.987        5.046        1.311      273.222       43.641        0.026      348.810       28.774      858.819
08/22/2013  16:38:00      -91.337     -172.263       -0.356       61.358       88.652       42.576     3764.813     7859.115     1812.711        2.572        0.672      194.979       47.329        0.059      348.862       28.867      858.821
08/22/2013  16:39:00     -118.386      -74.239        9.840       99.966       72.747       46.286     9993.110     5292.146     2142.428        1.852        0.871      139.738       46.617        0.111      349.027       29.152      858.817
08/22/2013  16:40:00     -165.559     -145.609        6.958      102.052       83.450       52.372    10414.650     6963.848     2742.785        3.439        1.006      220.480       49.305        0.050      348.979       29.067      858.830
08/22/2013  16:41:00     -121.361     -107.810       12.068       83.176      102.662       49.118     6918.260    10539.483     2412.592        2.318        0.994      162.332       52.643        0.105      348.959       29.035      858.806
08/22/2013  16:42:00     -108.793     -190.990       -5.097       71.617       89.035       43.874     5128.987     7927.187     1924.969        3.166        0.749      219.802       39.120        0.032      348.790       28.741      858.791
08/22/2013  16:43:00       15.062     -101.751       -9.259       46.516       75.234       38.690     2163.755     5660.162     1496.939        0.999        0.466      102.860       30.773        0.090      348.814       28.783      858.772
08/22/2013  16:44:00       79.774     -170.237      -31.635       94.203      110.865       77.703     8874.224    12291.028     6037.772        3.177        1.360      188.001       63.956        0.116      348.752       28.677      858.747
08/22/2013  16:45:00       34.425     -184.149      -15.453      104.087      124.325       71.985    10834.032    15456.801     5181.852        3.340        1.574      187.339       70.800        0.143      348.713       28.609      858.733
08/22/2013  16:46:00      -59.529     -169.702      -28.184       68.841       67.202       48.277     4739.088     4516.086     2330.690        2.236        0.579      179.840       16.500        0.008      348.845       28.837      858.738
08/22/2013  16:47:00     -185.857     -164.536       -0.103      149.042      100.257       55.154    22213.544    10051.435     3041.944        4.846        1.765      248.224       52.231        0.044      348.885       28.906      858.734
08/22/2013  16:48:00     -166.938     -209.896       -2.575       97.586      143.484       60.293     9522.994    20587.659     3635.223        5.283        1.687      268.188       47.701        0.032      348.845       28.833      858.749
08/22/2013  16:49:00      -18.170     -156.777       -0.126      134.987      125.471       65.236    18221.567    15742.932     4255.688        3.156        1.911      157.826       53.682        0.116      348.848       28.841      858.728
08/22/2013  16:50:00       60.665     -285.942      -12.083      119.734      143.833       65.337    14336.199    20687.959     4268.925        6.243        1.965      292.306       61.336        0.044      348.663       28.521      858.731
08/22/2013  16:51:00       24.319     -174.813      -21.702      107.564      130.792       49.212    11570.018    17106.564     2421.814        3.135        1.555      176.496       55.143        0.098      348.705       28.592      858.716
08/22/2013  16:52:00       -8.419      -45.420       -1.331       30.739       27.238       19.077      944.907      741.906      363.924        0.209        0.103       46.193        9.399        0.041      348.857       28.858      858.696
08/22/2013  16:53:00     -103.720     -144.501      -10.198       75.793       52.687       32.200     5744.542     2775.968     1036.846        2.065        0.478      177.872       26.424        0.022      348.791       28.744      858.695
08/22/2013  16:54:00     -301.327      -45.978      -23.689      107.814       85.770       43.533    11623.824     7356.424     1895.149        5.717        1.044      304.814       37.355        0.015      348.723       28.624      858.689
08/22/2013  16:55:00     -298.963      -79.770      -11.700      132.975      112.327       64.735    17682.234    12617.415     4190.615        6.518        1.725      309.423       56.490        0.033      348.805       28.766      858.663
08/22/2013  16:56:00     -357.921     -245.770       -9.069      232.673      213.650       94.862    54136.822    45646.256     8998.857       14.867        5.439      434.178      108.188        0.062      348.773       28.710      858.657
08/22/2013  16:57:00     -158.270     -238.789       11.588      168.282      169.400       79.328    28318.682    28696.285     6292.904        7.275        3.165      286.478       89.157        0.097      348.713       28.606      858.668
08/22/2013  16:58:00     -262.084     -132.265       -4.558      143.230      130.174       65.371    20514.745    16945.266     4273.392        6.396        2.087      293.568       74.047        0.064      348.660       28.514      858.676
08/22/2013  16:59:00     -219.488      -93.469        1.483      129.369       80.039       64.892    16736.301     6406.279     4210.970        4.213        1.368      238.561       72.212        0.092      348.624       28.452      858.652
08/22/2013  17:00:00     -204.908     -107.430      -10.170       62.127       80.859       42.214     3859.708     6538.237     1782.045        3.290        0.609      231.362       34.116        0.022      348.662       28.516      858.641
08/22/2013  17:01:00      -87.078      -70.243       10.273       92.950      101.248       52.535     8639.704    10251.139     2759.971        1.713        1.083      111.878       62.116        0.308      348.795       28.751      858.623
08/22/2013  17:02:00     -249.302     -187.510      -11.888      135.832      111.607       74.166    18450.307    12456.121     5500.558        6.692        1.820      311.948       77.230        0.061      348.736       28.648      858.610
08/22/2013  17:03:00     -182.003     -144.970       -1.745      126.698      137.152       69.953    16052.322    18810.662     4893.471        4.694        1.988      232.683       79.413        0.116      348.692       28.570      858.579
08/22/2013  17:04:00     -194.179     -127.728       -0.466      157.255       87.465       66.598    24729.097     7650.043     4435.279        4.541        1.841      232.422       71.313        0.094      348.770       28.704      858.582
08/22/2013  17:05:00     -239.288      -26.862        1.264      161.538      112.874       63.359    26094.396    12740.471     4014.380        5.041        2.142      240.791       63.933        0.070      348.842       28.829      858.584
08/22/2013  17:06:00     -324.206      -58.677      -13.005      159.848      133.989       58.994    25551.325    17953.163     3480.348        7.785        2.349      329.473       71.225        0.047      348.624       28.453      858.550
08/22/2013  17:07:00     -135.663      -80.339        8.277      120.907       96.363       62.810    14618.446     9285.883     3945.116        2.638        1.392      157.666       66.116        0.176      348.666       28.526      858.535
08/22/2013  17:08:00     -182.335      -90.353       -7.647      119.989       78.415       48.394    14397.263     6148.838     2341.974        3.217        1.144      203.494       50.841        0.062      348.711       28.603      858.507
08/22/2013  17:09:00      -96.813      -50.465       12.524       91.456       86.936       50.127     8364.128     7557.902     2512.685        1.525        0.922      109.176       46.245        0.179      348.786       28.735      858.528
08/22/2013  17:10:00     -192.040      -93.581       16.855      148.927      108.806       74.351    22179.332    11838.679     5528.102        4.273        1.977      213.628       83.583        0.153      348.762       28.694      858.528
08/22/2013  17:11:00     -160.146     -133.555       22.273      147.735      113.467       59.942    21825.606    12874.787     3592.992        4.113        1.915      208.528       63.716        0.093      348.778       28.719      858.516
08/22/2013  17:12:00     -434.428     -154.408       -6.050      227.079      164.110       81.774    51564.947    26932.097     6687.001       14.888        4.259      461.053       98.267        0.045      348.727       28.631      858.494
08/22/2013  17:13:00     -440.233     -156.666      -26.067      158.721      190.612       82.907    25192.342    36332.830     6873.614       14.370        3.420      467.279       76.134        0.027      348.600       28.410      858.483
08/22/2013  17:14:00     -385.179     -153.714       -7.038      147.627      158.473       78.661    21793.856    25113.595     6187.576       11.256        2.655      414.718       76.251        0.034      348.626       28.455      858.479
08/22/2013  17:15:00     -397.166     -177.516       -4.714      208.692      143.039       74.798    43552.358    20460.211     5594.756       12.943        3.480      435.032       88.501        0.041      348.557       28.337      858.471
08/22/2013  17:16:00     -301.997     -148.380        0.770      226.468      140.195       95.160    51287.858    19654.533     9055.490        9.660        4.000      336.480      106.624        0.100      348.578       28.371      858.449
08/22/2013  17:17:00     -255.025     -194.392       -8.394      162.137      155.262       67.160    26288.416    24106.374     4510.504        7.889        2.745      320.665       72.526        0.051      348.628       28.460      858.435
08/22/2013  17:18:00     -178.093     -170.014        9.151      143.582      117.078       79.442    20615.744    13707.287     6310.968        5.066        2.032      246.215       80.838        0.108      348.610       28.429      858.403
08/22/2013  17:19:00     -145.834       17.363        0.806      129.435      107.787       47.716    16753.468    11617.941     2276.786        2.610        1.532      146.864       47.730        0.106      348.772       28.709      858.391
08/22/2013  17:20:00     -172.248     -111.602        0.331      134.535       96.383       56.197    18099.554     9289.757     3158.145        3.633        1.527      205.242       67.845        0.109      348.763       28.695      858.375
08/22/2013  17:21:00     -383.484     -114.493      -14.612      178.608      135.472       75.725    31900.686    18352.746     5734.314       10.818        2.799      400.211       73.565        0.034      348.688       28.563      858.366
08/22/2013  17:22:00     -435.103      -96.818      -13.557      180.932      141.945       87.760    32736.491    20148.493     7701.833       12.972        3.029      445.744       89.756        0.041      348.656       28.508      858.375
08/22/2013  17:23:00     -451.618      -98.880       -4.577      198.189      169.937       86.264    39279.005    28878.571     7441.403       14.467        3.780      462.316       90.200        0.038      348.570       28.358      858.388
08/22/2013  17:24:00     -368.575     -177.552        1.634      243.637      170.288      104.518    59358.855    28998.047    10923.975       13.331        4.964      409.112      129.498        0.100      348.545       28.315      858.391
08/22/2013  17:25:00     -274.059      -21.239       -8.108      163.172      113.505       67.667    26624.967    12883.276     4578.874        5.985        2.204      274.880       81.540        0.088      348.599       28.408      858.441
08/22/2013  17:26:00     -163.989      -12.735       15.165      139.564      125.310       62.761    19478.104    15702.578     3938.956        3.320        1.956      164.483       69.050        0.176      348.598       28.408      858.453
08/22/2013  17:27:00     -163.705     -106.653        4.850      125.459      110.452       63.929    15739.928    12199.599     4086.910        3.511        1.601      195.382       63.752        0.106      348.589       28.392      858.476
08/22/2013  17:28:00     -106.628      -93.651        7.774      145.493       93.627       51.500    21168.085     8765.987     2652.232        2.639        1.629      141.916       67.338        0.225      348.603       28.417      858.484
08/22/2013  17:29:00     -107.080      -82.510       19.711      127.691       90.432       52.155    16305.094     8177.958     2720.139        2.293        1.360      135.181       53.413        0.156      348.621       28.449      858.464
08/22/2013  17:30:00     -253.417     -183.877       12.344      242.193      208.731       99.232    58657.658    43568.777     9846.916       10.511        5.604      313.098      117.752        0.141      348.548       28.322      858.448
08/22/2013  17:31:00     -332.907     -213.605       -9.074      185.345      132.926       77.567    34352.820    17669.236     6016.632       10.728        2.902      395.543       98.360        0.062      348.528       28.287      858.447
08/22/2013  17:32:00     -288.206     -159.399        2.678      137.732       86.002       73.992    18969.973     7396.415     5474.851        7.015        1.592      329.349       76.999        0.055      348.499       28.236      858.459
08/22/2013  17:33:00     -263.153     -193.222       -5.980      110.347      131.394       57.413    12176.426    17264.295     3296.286        6.967        1.637      326.472       56.533        0.030      348.505       28.245      858.445
08/22/2013  17:34:00     -222.476      -71.282       -5.336      144.597      123.969       70.388    20908.264    15368.275     4954.486        4.791        2.062      233.616       70.257        0.090      348.534       28.298      858.446
08/22/2013  17:35:00     -188.745     -139.351        5.689      129.126      113.934       54.831    16673.635    12980.910     3006.409        4.386        1.633      234.613       63.793        0.074      348.529       28.287      858.454
08/22/2013  17:36:00     -299.595     -163.630        2.580      191.905      141.566       74.445    36827.642    20040.893     5541.992        8.946        3.121      341.368       85.109        0.062      348.482       28.208      858.459
08/22/2013  17:37:00     -237.215      -71.147        5.319      181.807      134.247       70.664    33053.942    18022.133     4993.384        5.871        2.803      247.655       84.880        0.117      348.472       28.189      858.452
08/22/2013  17:38:00     -403.820     -207.446      -16.885      197.443      152.964       87.591    38983.817    23397.954     7672.155       13.821        3.503      453.987       86.545        0.036      348.429       28.117      858.452
08/22/2013  17:39:00     -294.433      -29.869      -15.638      157.297      123.896       63.837    24742.316    15350.165     4075.176        6.599        2.208      295.944       48.953        0.027      348.452       28.154      858.455
08/22/2013  17:40:00     -122.667      -55.843       20.152      124.513      116.004       69.065    15503.577    13457.040     4770.002        2.615        1.687      134.780       74.162        0.303      348.484       28.213      858.461
08/22/2013  17:41:00     -273.763     -124.075       -9.524      169.341      151.832       74.797    28676.542    23052.984     5594.623        7.387        2.866      300.567       88.742        0.087      348.431       28.120      858.478
08/22/2013  17:42:00     -252.659     -131.898       -5.837      151.712      110.574       74.844    23016.392    12226.509     5601.612        6.105        2.042      285.015       70.877        0.062      348.410       28.083      858.479
08/22/2013  17:43:00     -104.429      -41.257       17.445      101.479       91.608       44.784    10298.046     8392.076     2005.573        1.680        1.035      112.283       42.880        0.146      348.439       28.135      858.480
08/22/2013  17:44:00     -241.566     -148.738      -16.597      102.708       83.848       50.199    10548.854     7030.485     2519.904        5.042        1.005      283.685       43.034        0.023      348.443       28.141      858.477
08/22/2013  17:45:00     -132.117     -111.245       10.518      100.303      110.327       55.016    10060.774    12171.954     3026.760        2.760        1.263      172.714       43.778        0.064      348.464       28.176      858.476
08/22/2013  17:46:00     -295.216     -162.163        4.528      170.507      151.195       86.963    29072.467    22859.950     7562.621        8.647        2.975      336.823       85.994        0.065      348.408       28.079      858.483
08/22/2013  17:47:00     -290.448     -121.239        1.528      135.687      137.361       61.843    18410.987    18868.030     3824.547        7.008        2.055      314.737       58.661        0.035      348.413       28.086      858.476
08/22/2013  17:48:00     -231.009     -196.803       -4.651      116.141       99.790       69.596    13488.844     9957.945     4843.600        6.020        1.415      303.474       63.135        0.043      348.439       28.133      858.487
08/22/2013  17:49:00     -247.093      -85.425        4.172      109.598       89.983       48.700    12011.793     8096.897     2371.734        4.542        1.124      261.443       49.786        0.036      348.458       28.167      858.500
08/22/2013  17:50:00     -184.069     -127.420        0.007       98.661       70.259       46.270     9733.963     4936.268     2140.889        3.346        0.841      223.869       40.236        0.032      348.471       28.188      858.497
08/22/2013  17:51:00     -114.823      -77.423        7.537       96.620       67.620       42.140     9335.342     4572.487     1775.741        1.746        0.784      138.487       46.633        0.113      348.486       28.215      858.522
08/22/2013  17:52:00     -157.505     -136.338       -6.527       88.023       63.426       47.452     7748.018     4022.864     2251.646        2.873        0.701      208.317       45.678        0.048      348.471       28.188      858.524
08/22/2013  17:53:00     -143.052      -77.705       -3.601       78.386       68.607       44.083     6144.334     4706.935     1943.345        1.965        0.640      162.794       38.907        0.057      348.475       28.197      858.524
08/22/2013  17:54:00     -185.123     -116.949        7.460       84.252      110.807       53.068     7098.361    12278.283     2816.265        3.509        1.110      218.969       45.766        0.044      348.462       28.173      858.513
08/22/2013  17:55:00      -69.972     -177.287        1.897       56.931       58.522       36.132     3241.146     3424.816     1305.499        2.215        0.399      190.596       26.790        0.020      348.471       28.189      858.526
08/22/2013  17:56:00     -132.214     -118.067       -8.351       89.733       95.068       37.867     8052.049     9038.012     1433.929        2.500        0.926      177.258       36.575        0.043      348.475       28.197      858.536
08/22/2013  17:57:00     -156.165     -119.511        6.038       73.493       92.386       41.266     5401.222     8535.257     1702.900        2.717        0.782      196.648       35.266        0.032      348.481       28.206      858.548
08/22/2013  17:58:00     -159.457      -67.818        8.649      145.694      117.297       61.142    21226.866    13758.673     3738.380        3.441        1.936      173.279       65.159        0.141      348.435       28.126      858.562
08/22/2013  17:59:00     -330.750     -126.927       -9.647      173.476      152.956       82.341    30094.058    23395.673     6780.086        9.292        3.013      354.269      101.132        0.081      348.368       28.009      858.537
08/22/2013  18:00:00     -241.807     -193.963       -4.831      150.714      124.953       70.483    22714.680    15613.182     4967.894        6.970        2.165      309.988       64.539        0.043      348.356       27.988      858.542
08/22/2013  18:01:00     -261.174     -141.556      -21.044      169.380      131.160       65.620    28689.738    17203.027     4305.965        6.944        2.510      297.069       75.760        0.065      348.327       27.939      858.549
08/22/2013  18:02:00     -195.376     -104.791       19.638      178.649      133.088       73.966    31915.498    17712.383     5471.026        5.231        2.755      221.704       85.687        0.149      348.316       27.920      858.550
08/22/2013  18:03:00     -340.630     -128.771      -10.237      165.934      135.565       81.026    27534.029    18377.787     6565.148        9.259        2.624      364.157       74.074        0.041      348.288       27.871      858.534
08/22/2013  18:04:00     -308.843     -167.345       -3.855      141.153      135.433       84.421    19924.281    18342.103     7126.914        8.439        2.270      351.267       79.988        0.052      348.279       27.853      858.519
08/22/2013  18:05:00     -331.360      -94.497      -12.771      183.150      130.054       80.767    33543.828    16913.952     6523.287        8.793        2.849      344.571       92.654        0.072      348.265       27.829      858.533
08/22/2013  18:06:00     -166.715      -55.942        1.323       98.537       91.517       54.714     9709.544     8375.394     2993.575        2.600        1.054      175.850       53.135        0.091      348.299       27.890      858.549
08/22/2013  18:07:00     -150.208     -109.926        3.779      106.007       93.787       42.763    11237.590     8796.043     1828.708        2.826        1.093      186.135       40.778        0.048      348.301       27.893      858.570
08/22/2013  18:08:00     -163.279     -100.047       -8.980       70.834       58.582       37.263     5017.514     3431.842     1388.524        2.329        0.492      191.493       35.052        0.034      348.324       27.935      858.584
08/22/2013  18:09:00     -215.357      -88.918       -2.358      117.110       78.644       46.938    13714.707     6184.875     2203.158        3.819        1.105      232.991       54.512        0.055      348.328       27.941      858.564
08/22/2013  18:10:00     -245.046     -238.842       -2.102      132.534      149.392       73.360    17565.209    22317.921     5381.722        8.117        2.263      342.188       68.979        0.041      348.311       27.908      858.550
08/22/2013  18:11:00     -330.581     -247.728       -5.725      179.445      132.486       79.041    32200.564    17552.459     6247.492       11.333        2.800      413.102       89.213        0.047      348.302       27.894      858.564
08/22/2013  18:12:00     -311.044     -275.003      -16.846      158.658      138.146       72.287    25172.245    19084.454     5225.383       11.106        2.474      415.181       71.563        0.030      348.299       27.889      858.567
08/22/2013  18:13:00     -151.049     -179.339       22.163      122.453      185.325       62.025    14994.779    34345.196     3847.046        5.432        2.659      234.475       76.879        0.108      348.301       27.893      858.577
08/22/2013  18:14:00     -252.919     -193.251        0.396      112.746      108.113       61.403    12711.708    11688.509     3770.377        6.474        1.409      318.298       49.145        0.024      348.274       27.845      858.576
08/22/2013  18:15:00     -304.887     -179.799       -4.349      115.870      105.701       70.918    13425.846    11172.720     5029.318        7.746        1.481      353.955       66.076        0.035      348.274       27.845      858.564
08/22/2013  18:16:00     -244.130     -171.200       -2.069       86.589      107.231       51.570     7497.720    11498.525     2659.512        5.528        1.083      298.176       44.316        0.022      348.278       27.850      858.573
08/22/2013  18:17:00     -251.758     -177.865        2.830      105.088       85.972       55.889    11043.447     7391.244     3123.620        5.829        1.078      308.250       49.580        0.026      348.255       27.812      858.557
08/22/2013  18:18:00     -219.340      -63.704        3.296      151.939       93.494       59.755    23085.384     8741.209     3570.666        4.378        1.770      228.404       68.324        0.089      348.242       27.792      858.550
08/22/2013  18:19:00     -146.011     -157.824        3.649      107.758       71.800       47.513    11611.701     5155.310     2257.456        3.263        0.951      215.006       56.440        0.069      348.253       27.810      858.545
08/22/2013  18:20:00     -184.397     -152.712        2.746      155.214       92.449       61.767    24091.331     8546.823     3815.223        4.689        1.823      239.423       70.564        0.087      348.223       27.760      858.538
08/22/2013  18:21:00     -145.559     -127.014        7.707      121.073       96.208       64.445    14658.791     9256.041     4153.202        3.272        1.403      193.183       65.267        0.114      348.203       27.723      858.553
08/22/2013  18:22:00     -413.356     -250.895      -15.418      209.102      143.884       91.252    43723.624    20702.565     8326.984       15.339        3.638      483.541      111.093        0.053      348.141       27.617      858.549
08/22/2013  18:23:00     -244.807     -116.166       -0.686      173.668      112.441       56.821    30160.655    12643.083     3228.653        5.972        2.302      270.971       58.003        0.046      348.125       27.590      858.534
08/22/2013  18:24:00     -288.505     -194.817       -6.924      132.549      103.589       61.104    17569.348    10730.645     3733.712        7.663        1.602      348.122       64.495        0.034      348.129       27.597      858.534
08/22/2013  18:25:00     -245.872     -173.295      -18.157      141.268       93.353       66.486    19956.598     8714.785     4420.346        6.195        1.655      300.806       70.659        0.055      348.129       27.596      858.542
08/22/2013  18:26:00     -243.277     -191.701       -5.339      137.572      147.285       83.582    18926.189    21692.938     6985.950        7.178        2.380      309.730       93.290        0.091      348.118       27.577      858.545
08/22/2013  18:27:00     -318.199     -125.150        2.228      155.783      124.711       68.494    24268.314    15552.951     4691.484        8.071        2.226      341.926       76.240        0.050      348.085       27.519      858.531
08/22/2013  18:28:00     -253.182     -137.253        5.971      171.513      139.375       64.037    29416.724    19425.457     4100.713        6.795        2.647      287.992       65.584        0.052      348.095       27.538      858.535
08/22/2013  18:29:00     -256.905     -173.050      -16.108      140.610      122.634       66.732    19771.166    15039.149     4453.109        6.773        1.963      309.753       69.445        0.050      348.090       27.528      858.528
08/22/2013  18:30:00     -190.603       -6.019       18.921      118.673       90.163       55.818    14083.390     8129.405     3115.616        3.102        1.266      190.698       64.574        0.115      348.071       27.495      858.554
08/22/2013  18:31:00     -157.793     -142.698        1.615      128.457       99.248       45.021    16501.184     9850.208     2026.909        3.682        1.419      212.747       54.150        0.065      348.090       27.528      858.555
08/22/2013  18:32:00     -168.557     -127.528       -5.706      106.272      103.880       61.433    11293.792    10791.069     3774.004        3.528        1.293      211.364       60.562        0.082      348.063       27.482      858.548
08/22/2013  18:33:00     -198.107     -143.542       -7.318      126.494      114.934       59.551    16000.845    13209.909     3546.304        4.633        1.638      244.644       66.033        0.073      348.062       27.480      858.560
08/22/2013  18:34:00     -170.302     -166.515        4.577      148.174      107.194       81.600    21955.509    11490.502     6658.486        4.842        2.005      238.180       90.119        0.143      348.041       27.444      858.560
08/22/2013  18:35:00     -147.385     -120.814        5.155      122.785       72.274       56.863    15076.270     5223.557     3233.434        2.994        1.177      190.574       64.692        0.115      348.067       27.489      858.573
08/22/2013  18:36:00     -195.779      -69.239       -5.402      130.972       92.365       50.934    17153.560     8531.260     2594.319        3.571        1.414      207.662       59.371        0.082      348.088       27.524      858.575
08/22/2013  18:37:00     -280.021      -44.943        7.623      129.012      115.283       54.948    16644.155    13290.266     3019.330        5.672        1.648      283.605       58.174        0.042      348.078       27.508      858.562
08/22/2013  18:38:00     -237.690      -98.329      -12.472      112.031       89.235       52.436    12551.048     7962.846     2749.504        4.479        1.163      257.226       54.200        0.044      348.080       27.511      858.554
08/22/2013  18:39:00     -277.635      -66.794      -14.418      150.889      143.439       64.891    22767.428    20574.623     4210.856        6.464        2.378      285.557       72.420        0.064      348.052       27.463      858.562
08/22/2013  18:40:00     -276.773      -28.824      -13.584      109.556       90.858       54.930    12002.618     8255.141     3017.268        5.044        1.164      278.270       42.958        0.024      348.056       27.470      858.565
08/22/2013  18:41:00     -390.400      -69.848      -21.551      138.381      105.299       72.663    19149.400    11087.785     5279.950        9.663        1.776      396.599       69.507        0.031      348.025       27.417      858.547
08/22/2013  18:42:00     -280.079      -70.078       -3.684      117.724       97.039       66.265    13859.004     9416.649     4391.029        5.551        1.383      288.713       68.896        0.057      348.034       27.432      858.562
08/22/2013  18:43:00     -127.369      -22.577       11.902      133.419       55.415       53.010    17800.559     3070.833     2810.043        2.027        1.184      129.355       60.938        0.222      348.074       27.503      858.589
08/22/2013  18:44:00     -344.480      -80.959      -22.057      187.068      102.905       55.506    34994.312    10589.417     3080.931        8.718        2.433      353.866       61.307        0.030      348.030       27.427      858.598
08/22/2013  18:45:00     -193.949      -68.408       -2.894      106.495       71.335       47.158    11341.227     5088.692     2223.846        3.048        0.933      205.660       47.522        0.053      348.053       27.466      858.629
08/22/2013  18:46:00     -203.349      -81.730       -3.579      139.825      103.995       59.523    19551.159    10814.873     3542.981        4.097        1.695      219.159       70.728        0.104      348.038       27.439      858.626
08/22/2013  18:47:00     -213.787     -143.416        3.539      117.918      102.424       68.178    13904.761    10490.745     4648.307        4.766        1.452      257.436       66.600        0.067      348.030       27.426      858.619
08/22/2013  18:48:00     -171.128      -89.424       14.697      121.101       87.771       59.018    14665.349     7703.708     3483.082        3.167        1.293      193.084       61.232        0.101      348.033       27.431      858.633
08/22/2013  18:49:00     -192.783      -51.060      -11.631       92.861       84.088       47.388     8623.074     7070.874     2245.665        2.892        0.897      199.430       50.741        0.065      348.019       27.406      858.648
08/22/2013  18:50:00     -100.567      -46.669        5.696       89.805       76.189       32.929     8064.927     5804.816     1084.315        1.364        0.748      110.868       41.951        0.143      348.032       27.431      858.640
08/22/2013  18:51:00     -150.717     -105.656       -6.422      128.064       62.654       42.867    16400.452     3925.478     1837.604        2.804        1.108      184.062       58.052        0.099      347.996       27.369      858.629
08/22/2013  18:52:00     -184.393     -126.766        7.680      139.600      128.393       69.247    19488.253    16484.780     4795.116        4.544        2.038      223.764       69.626        0.097      347.939       27.268      858.617
08/22/2013  18:53:00     -289.166      -84.171       -7.326      167.685      182.511       83.161    28118.128    33310.413     6915.689        7.954        3.417      301.168       84.706        0.079      347.911       27.218      858.600
08/22/2013  18:54:00     -203.241      -77.168       -7.863      140.225       93.290       52.342    19662.974     8703.062     2739.725        3.921        1.555      217.398       54.242        0.062      347.892       27.188      858.604
08/22/2013  18:55:00     -239.433      -45.898       -8.535      161.719       99.787       54.671    26152.996     9957.427     2988.924        4.930        1.955      243.792       70.380        0.083      347.881       27.169      858.593
08/22/2013  18:56:00     -240.496      -84.994      -10.296       98.372       86.267       53.143     9676.980     7441.935     2824.183        4.255        0.997      255.073       46.212        0.033      347.861       27.134      858.587
08/22/2013  18:57:00     -139.281      -42.703       14.418      112.596      103.664       51.721    12677.853    10746.170     2675.023        2.376        1.305      145.681       42.980        0.087      347.862       27.136      858.597
08/22/2013  18:58:00     -184.175     -105.687        3.816      164.647      116.935       70.126    27108.503    13673.695     4917.665        4.539        2.285      212.344       89.387        0.177      347.851       27.116      858.603
08/22/2013  18:59:00     -242.507     -188.835      -34.931      140.643       88.102       63.100    19780.495     7761.996     3981.657        6.360        1.576      307.357       70.248        0.052      347.832       27.082      858.612
08/22/2013  19:00:00     -363.462     -115.745      -11.506      178.554      133.256       83.899    31881.583    17757.266     7038.984       10.115        2.834      381.447       86.530        0.051      347.807       27.041      858.608
08/22/2013  19:01:00     -340.356      -30.814       -6.338      147.356      117.933       70.855    21713.797    13908.289     5020.422        7.873        2.032      341.748       77.289        0.051      347.781       26.995      858.621
08/22/2013  19:02:00     -193.266      -25.126        2.546      110.135       83.440       57.501    12129.690     6962.248     3306.418        3.019        1.120      194.893       56.336        0.084      347.792       27.016      858.644
08/22/2013  19:03:00     -381.080     -125.326      -37.819      133.862      102.839       65.672    17919.020    10575.855     4312.872        9.758        1.640      401.159       72.007        0.032      347.786       27.004      858.656
08/22/2013  19:04:00     -351.709      -61.982      -24.324      119.616      152.603       59.884    14307.908    23287.759     3586.068        8.465        2.059      357.129       63.920        0.032      347.757       26.955      858.659
08/22/2013  19:05:00     -153.237      -36.270        9.099      112.696       89.598       49.332    12700.283     8027.812     2433.642        2.402        1.158      157.471       47.113        0.090      347.720       26.891      858.671
08/22/2013  19:06:00     -202.047       18.275       13.823      106.450       90.557       52.643    11331.549     8200.487     2771.330        3.182        1.115      202.872       45.765        0.051      347.739       26.924      858.675
08/22/2013  19:07:00     -196.976      -85.524        5.358      124.474      106.538       51.376    15493.663    11350.321     2639.463        3.781        1.474      214.741       56.585        0.069      347.700       26.855      858.692
08/22/2013  19:08:00     -279.070      -91.322      -19.660      146.571      111.188       75.337    21483.102    12362.666     5675.594        6.306        1.976      293.632       80.893        0.076      347.704       26.864      858.705
08/22/2013  19:09:00     -237.163     -137.705       -5.449      139.320      108.284       63.834    19410.087    11725.447     4074.736        5.522        1.761      274.242       70.186        0.065      347.696       26.850      858.716
08/22/2013  19:10:00     -241.308      -99.341        5.324      195.993      124.754       70.389    38413.087    15563.524     4954.623        6.352        2.947      260.957       81.377        0.097      347.681       26.823      858.726
08/22/2013  19:11:00     -245.532      -65.438       -0.176      161.215      103.246       53.767    25990.239    10659.679     2890.925        5.205        1.977      254.102       69.933        0.076      347.675       26.813      858.741
08/22/2013  19:12:00     -307.693     -166.236       -9.426      183.986      122.457       70.861    33850.705    14995.689     5021.212        8.812        2.693      349.728       87.357        0.062      347.667       26.798      858.749
08/22/2013  19:13:00     -294.815      -75.471       -9.961      165.654       88.730       71.459    27441.346     7873.076     5106.381        6.656        2.021      304.322       87.321        0.082      347.660       26.786      858.782
08/22/2013  19:14:00     -150.655      -82.309        6.218      140.328      123.477       61.321    19691.992    15246.517     3760.257        3.410        1.935      171.673       72.452        0.178      347.661       26.790      858.804
08/22/2013  19:15:00     -222.896     -143.633        8.992      135.593      136.587       64.722    18385.454    18655.909     4188.965        5.581        2.062      265.167       70.793        0.071      347.637       26.748      858.813
08/22/2013  19:16:00     -238.145      -87.276        3.140      162.323      122.322       72.239    26348.619    14962.775     5218.427        5.543        2.326      253.634       79.518        0.098      347.614       26.708      858.795
08/22/2013  19:17:00     -411.759      -18.423      -35.086      216.666      148.222       87.300    46944.294    21969.657     7621.289       12.381        3.827      412.171       96.885        0.055      347.584       26.657      858.804
08/22/2013  19:18:00     -454.809     -192.288      -19.446      143.480      143.451       84.153    20586.601    20578.170     7081.708       14.622        2.412      493.787       81.096        0.027      347.565       26.625      858.802
08/22/2013  19:19:00     -305.865     -126.929        1.529      163.742      158.683       78.537    26811.332    25180.184     6167.993        8.390        2.908      331.156       82.391        0.062      347.539       26.579      858.810
08/22/2013  19:20:00     -320.138     -174.212       -7.545      232.661      156.109       82.368    54130.919    24369.950     6784.524       10.908        4.264      364.470      108.343        0.088      347.528       26.559      858.809
08/22/2013  19:21:00     -272.199      -45.615       -9.694      109.848       85.984       59.707    12066.692     7393.247     3564.983        4.964        1.151      275.995       59.564        0.047      347.506       26.519      858.822
08/22/2013  19:22:00     -173.565      -56.797       10.839      158.847       82.263       56.139    25232.295     6767.235     3151.581        3.430        1.758      182.621       75.356        0.170      347.470       26.462      858.823
08/22/2013  19:23:00     -161.521     -117.144        4.769      115.621      109.519       72.151    13368.262    11994.309     5205.832        3.520        1.528      199.529       71.573        0.129      347.475       26.469      858.816
08/22/2013  19:24:00     -345.661      -84.488      -22.670      156.590      106.975       60.845    24520.564    11443.603     3702.114        8.339        1.983      355.836       72.098        0.041      347.443       26.411      858.814
08/22/2013  19:25:00     -301.199      -68.229       -4.858      201.133      139.554       73.837    40454.549    19475.244     5451.841        8.038        3.269      308.830       92.064        0.089      347.407       26.350      858.826
08/22/2013  19:26:00     -324.872     -129.699      -18.667      149.742      129.964       70.121    22422.646    16890.628     4916.945        8.346        2.212      349.805       68.615        0.038      347.409       26.353      858.829
08/22/2013  19:27:00     -331.270      -93.264      -17.124      124.917      112.676       59.406    15604.353    12695.831     3529.122        7.527        1.591      344.148       66.431        0.037      347.407       26.349      858.830
08/22/2013  19:28:00     -304.821      -55.151        6.031      157.251      146.535       77.994    24727.810    21472.637     6083.126        7.413        2.614      309.770       73.849        0.057      347.359       26.266      858.839
08/22/2013  19:29:00     -364.710     -123.546       -9.182      175.414      168.707       76.355    30770.095    28462.076     5830.098       10.670        3.253      385.068       77.429        0.040      347.362       26.273      858.864
08/22/2013  19:30:00     -337.484     -190.660       -0.599      149.121      116.908       73.630    22236.940    13667.514     5421.313        9.578        2.066      387.617       76.127        0.039      347.353       26.257      858.891
08/22/2013  19:31:00     -218.095     -177.083       -0.353      170.380      118.502       85.303    29029.320    14042.618     7276.583        6.463        2.517      280.934       95.265        0.115      347.341       26.238      858.911
08/22/2013  19:32:00     -338.079     -190.559      -13.274      194.798      141.463       81.230    37946.401    20011.835     6598.375       10.766        3.228      388.085       91.534        0.056      347.331       26.219      858.916
08/22/2013  19:33:00     -282.649     -103.441        0.858      143.817      126.973       71.404    20683.396    16122.211     5098.461        6.624        2.095      300.982       71.755        0.057      347.300       26.166      858.931
08/22/2013  19:34:00     -290.766     -149.009       -2.067      126.425      136.698       62.979    15983.296    18686.392     3966.323        7.269        1.932      326.724       54.564        0.028      347.286       26.143      858.949
08/22/2013  19:35:00     -209.212     -122.151       16.005      149.974      146.179       82.063    22492.282    21368.442     6734.382        5.476        2.530      242.262       89.559        0.137      347.259       26.095      858.950
08/22/2013  19:36:00     -248.351     -126.470        6.303      193.212      105.905       68.705    37330.939    11215.842     4720.366        6.548        2.663      278.699       92.497        0.110      347.261       26.099      858.962
08/22/2013  19:37:00     -169.630      -85.534        6.788      123.567      119.099       73.032    15268.852    14184.571     5333.654        3.546        1.739      189.975       69.538        0.134      347.240       26.063      858.968
08/22/2013  19:38:00     -371.822      -27.331      -21.345      206.418      101.551       77.813    42608.594    10312.571     6054.834        9.921        2.949      372.825       94.844        0.065      347.178       25.956      858.991
08/22/2013  19:39:00     -207.729     -117.473      -12.306      137.441       98.847       83.461    18890.124     9770.741     6965.751        4.636        1.781      238.645       74.414        0.097      347.159       25.923      859.002
08/22/2013  19:40:00     -243.856     -144.048      -13.590      140.256      111.646       63.208    19671.832    12464.748     3995.233        5.826        1.807      283.224       65.356        0.053      347.157       25.919      859.006
08/22/2013  19:41:00     -272.560      -55.535        0.621      123.947      128.231       74.718    15362.866    16443.262     5582.811        5.737        1.869      278.160       68.784        0.061      347.114       25.845      859.009
08/22/2013  19:42:00     -422.793     -163.962      -24.769      161.039      130.587       80.473    25933.485    17052.849     6475.837       12.785        2.473      453.472       71.484        0.025      347.136       25.883      859.023
08/22/2013  19:43:00     -240.586     -122.613       15.034      201.312      135.633       82.766    40526.320    18396.235     6850.237        6.945        3.289      270.028       98.219        0.132      347.072       25.773      859.021
08/22/2013  19:44:00     -294.896     -161.688      -14.405      116.792      100.578       60.317    13640.269    10116.017     3638.177        7.035        1.370      336.313       63.354        0.035      347.106       25.831      859.037
08/22/2013  19:45:00     -292.726      -50.516        9.358      169.738      130.623       66.581    28811.104    17062.432     4432.988        6.931        2.515      297.053       74.813        0.063      347.030       25.701      859.030
08/22/2013  19:46:00     -218.473      -85.965      -17.700       82.794       73.862       45.710     6854.835     5455.611     2089.381        3.491        0.720      234.777       36.305        0.024      347.042       25.722      859.050
08/22/2013  19:47:00     -220.794      -88.156       -4.809      172.127      115.040       73.152    29627.718    13234.311     5351.252        5.237        2.411      237.742       79.269        0.111      347.035       25.709      859.045
08/22/2013  19:48:00     -207.690     -139.257        3.052      180.704      144.928       67.960    32653.902    21004.170     4618.531        6.040        2.914      250.055       87.813        0.123      346.990       25.632      859.053
08/22/2013  19:49:00     -270.845     -142.844       -8.504      100.618      106.044       53.427    10124.023    11245.279     2854.397        5.902        1.211      306.205       50.363        0.027      347.007       25.660      859.061
08/22/2013  19:50:00     -264.274      -20.165        4.689      137.937       94.820       61.047    19026.544     8990.882     3726.782        5.100        1.587      265.042       56.087        0.045      346.964       25.588      859.082
08/22/2013  19:51:00     -240.574     -158.412       -2.823      146.901      107.101       61.527    21579.960    11470.626     3785.512        5.990        1.842      288.045       58.449        0.041      346.968       25.594      859.081
08/22/2013  19:52:00     -284.063     -174.465       -8.265      151.671       83.511       59.901    23004.137     6974.161     3588.149        7.238        1.678      333.362       68.901        0.043      346.977       25.611      859.092
08/22/2013  19:53:00     -325.747      -49.757       -3.131      178.359       96.558       64.106    31811.847     9323.370     4109.618        7.691        2.262      329.525       75.686        0.053      346.923       25.516      859.105
08/22/2013  19:54:00     -278.118      -23.605        2.911      127.666      117.551       67.846    16298.701    13818.347     4603.093        5.631        1.736      279.118       74.537        0.071      346.916       25.504      859.118
08/22/2013  19:55:00     -222.842      -67.514       -5.055      121.078       98.258       56.905    14659.851     9654.642     3238.161        4.089        1.378      232.845       69.448        0.089      346.891       25.462      859.130
08/22/2013  19:56:00     -361.294      -92.048       -6.683      133.736      150.031       68.889    17885.263    22509.407     4745.716        9.209        2.257      372.835       70.200        0.035      346.901       25.478      859.133
08/22/2013  19:57:00     -341.172     -107.900      -26.864      148.186      106.491       64.438    21959.205    11340.329     4152.226        8.310        1.873      357.828       69.965        0.038      346.914       25.500      859.137
08/22/2013  19:58:00     -248.858     -123.628        5.596      152.180      136.047       61.531    23158.647    18508.705     3786.069        6.134        2.273      277.874       63.151        0.052      346.876       25.435      859.153
08/22/2013  19:59:00     -280.385      -85.693       -2.440      165.705      109.421       65.486    27458.289    11972.886     4288.384        6.484        2.186      293.188       73.268        0.062      346.869       25.424      859.159
08/22/2013  20:00:00     -262.171      -63.785       -8.860      124.912      127.357       67.113    15602.956    16219.788     4504.123        5.460        1.816      269.819       47.189        0.031      346.842       25.377      859.176
08/22/2013  20:01:00     -252.068     -177.729        0.829      149.799      123.975       63.603    22439.624    15369.785     4045.367        6.848        2.093      308.424       65.200        0.045      346.842       25.378      859.177
08/22/2013  20:02:00     -213.283     -127.681        1.201      156.852      110.000       43.607    24602.472    12099.936     1901.612        5.019        1.930      248.581       56.703        0.052      346.817       25.334      859.197
08/22/2013  20:03:00     -158.001     -134.839        7.237      118.934      115.334       66.832    14145.275    13301.966     4466.490        3.755        1.596      207.716       54.670        0.069      346.788       25.283      859.206
08/22/2013  20:04:00     -260.005     -100.570        0.642      119.759      111.816       58.575    14342.154    12502.799     3431.075        5.399        1.514      278.777       52.482        0.035      346.782       25.273      859.215
08/22/2013  20:05:00     -221.069      -67.631      -12.085       86.660       73.697       35.836     7509.879     5431.268     1284.201        3.391        0.711      231.183       32.568        0.020      346.739       25.200      859.220
08/22/2013  20:06:00     -287.511      -61.759      -11.379      149.724      113.805       67.302    22417.275    12951.640     4529.604        6.325        1.995      294.069       76.844        0.068      346.765       25.245      859.227
08/22/2013  20:07:00     -255.979     -116.491      -32.748      127.503      109.090       62.992    16256.967    11900.530     3968.050        5.614        1.606      281.239       58.411        0.043      346.765       25.244      859.243
08/22/2013  20:08:00     -207.919      -64.341        3.123      179.289      113.407       65.110    32144.543    12861.094     4239.365        4.830        2.462      217.647       75.284        0.120      346.717       25.161      859.271
08/22/2013  20:09:00     -394.530     -132.399      -31.918      144.356      139.749       64.565    20838.752    19529.716     4168.576       10.936        2.227      416.153       61.963        0.022      346.781       25.272      859.266
08/22/2013  20:10:00     -210.359     -113.641       -3.633      148.021       94.485       55.256    21910.247     8927.399     3053.236        4.553        1.695      239.093       70.395        0.087      346.708       25.146      859.294
08/22/2013  20:11:00     -164.052     -131.910        3.895      124.361      115.372       70.302    15465.590    13310.732     4942.359        3.902        1.686      210.507       61.726        0.086      346.682       25.103      859.292
08/22/2013  20:12:00     -241.011     -171.664       -7.172      174.859      118.857       73.279    30575.578    14127.090     5369.800        6.883        2.504      295.897       85.420        0.083      346.718       25.164      859.298
08/22/2013  20:13:00     -248.075     -103.762       -6.099      152.906      124.251       63.173    23380.323    15438.324     3990.828        5.757        2.140      268.901       65.341        0.059      346.720       25.166      859.308
08/22/2013  20:14:00     -345.089     -105.711       -8.296      170.328      118.363       69.730    29011.531    14009.701     4862.299        8.910        2.394      360.917       69.278        0.037      346.706       25.142      859.335
08/22/2013  20:15:00     -303.778      -73.661        2.085      203.253      108.062       67.730    41311.951    11677.455     4587.419        7.763        2.879      312.581       79.755        0.065      346.668       25.077      859.346
08/22/2013  20:16:00     -299.609     -133.382      -10.118      163.708      110.282       64.237    26800.157    12162.083     4126.365        7.537        2.154      327.957       75.720        0.053      346.647       25.041      859.364
08/22/2013  20:17:00     -241.361      -20.325        0.631      141.291       99.461       57.425    19963.081     9892.526     3297.609        4.591        1.658      242.215       63.278        0.068      346.623       25.001      859.374
08/22/2013  20:18:00     -283.109      -66.940      -19.446      173.860      118.305       73.148    30227.306    13996.106     5350.613        6.728        2.479      290.915       83.169        0.082      346.576       24.919      859.378
08/22/2013  20:19:00     -229.734      -56.438        0.245      112.353      102.395       56.045    12623.102    10484.783     3141.011        4.110        1.312      236.565       53.747        0.052      346.559       24.890      859.378
08/22/2013  20:20:00     -207.721      -44.206        0.375      105.312       83.491       42.174    11090.716     6970.805     1778.634        3.247        0.992      212.373       39.214        0.034      346.489       24.770      859.391
08/22/2013  20:21:00     -172.425      -77.771       -7.095      140.647      114.197       58.326    19781.509    13041.026     3401.902        3.602        1.811      189.153       67.020        0.126      346.507       24.803      859.413
08/22/2013  20:22:00     -245.643        7.198        3.496      119.527      104.988       48.053    14286.588    11022.387     2309.104        4.401        1.381      245.749       45.142        0.034      346.511       24.807      859.424
08/22/2013  20:23:00     -188.952      -22.767       -1.297      171.516       85.049       52.331    29417.796     7233.258     2738.488        3.780        1.969      190.318       70.310        0.136      346.444       24.694      859.442
08/22/2013  20:24:00     -329.079      -23.039      -22.083      128.807       78.002       52.972    16591.118     6084.254     2806.085        6.739        1.274      329.885       42.655        0.017      346.501       24.791      859.463
08/22/2013  20:25:00     -107.200      -29.090       -0.087       95.836       93.863       43.828     9184.576     8810.321     1920.885        1.612        0.996      111.077       39.006        0.123      346.420       24.654      859.477
08/22/2013  20:26:00     -125.695      -67.307        9.899       69.919       76.173       40.161     4888.658     5802.257     1612.916        1.636        0.615      142.582       33.461        0.055      346.411       24.639      859.502
08/22/2013  20:27:00     -245.039     -147.689       -0.452      100.781       95.629       55.512    10156.815     9144.965     3081.559        5.212        1.119      286.105       47.571        0.028      346.442       24.691      859.493
08/22/2013  20:28:00     -185.969      -48.694       -7.985      126.649       85.218       47.666    16039.880     7262.187     2272.006        3.129        1.279      192.238       45.453        0.056      346.397       24.612      859.501
08/22/2013  20:29:00     -165.883      -40.933        1.294       56.987       69.482       36.366     3247.540     4827.719     1322.454        1.929        0.470      170.859       25.952        0.023      346.363       24.555      859.520
08/22/2013  20:30:00     -163.427      -34.930       -4.555       86.186       93.372       52.551     7427.971     8718.406     2761.599        2.343        0.945      167.118       50.865        0.093      346.344       24.521      859.523
08/22/2013  20:31:00     -123.218      -36.119        3.415       84.955       73.581       37.197     7217.414     5414.099     1383.608        1.525        0.701      128.403       35.510        0.076      346.323       24.487      859.510
08/22/2013  20:32:00     -237.078      -89.076      -14.485      110.976      112.303       44.109    12315.677    12611.976     1945.628        4.561        1.344      253.260       34.712        0.019      346.324       24.487      859.534
08/22/2013  20:33:00     -195.825      -82.123       -1.836      156.184       87.854       45.783    24393.395     7718.269     2096.112        3.965        1.710      212.348       63.022        0.088      346.315       24.473      859.555
08/22/2013  20:34:00     -398.763      -44.730      -21.817      175.254       93.910       58.989    30713.870     8819.151     3479.745       10.224        2.151      401.263       70.691        0.031      346.345       24.521      859.589
08/22/2013  20:35:00     -302.127     -115.219       -8.848      166.101      116.242       62.430    27589.400    13512.277     3897.471        7.481        2.250      323.352       67.161        0.043      346.331       24.498      859.622
08/22/2013  20:36:00     -155.670      -44.440       12.827      131.980      101.533       63.512    17418.732    10308.862     4033.836        2.906        1.588      161.889       69.631        0.185      346.298       24.442      859.640
08/22/2013  20:37:00     -145.817      -50.678       -9.920      103.523      105.766       55.366    10717.023    11186.471     3065.377        2.444        1.248      154.372       53.920        0.122      346.342       24.518      859.660
08/22/2013  20:38:00     -128.532      -47.986        4.011      108.896       67.052       53.256    11858.258     4496.010     2836.181        1.901        0.960      137.197       58.197        0.180      346.317       24.474      859.660
08/22/2013  20:39:00     -112.543      -30.613       -7.188       62.368       52.729       31.393     3889.753     2780.375      985.490        1.065        0.383      116.633       33.265        0.081      346.270       24.398      859.659
08/22/2013  20:40:00     -174.328      -16.172        7.636      132.906       93.506       47.727    17664.086     8743.366     2277.886        2.969        1.434      175.076       54.546        0.097      346.221       24.310      859.674
08/22/2013  20:41:00     -199.307     -112.222      -10.918      120.769       72.982       50.999    14585.084     5326.318     2600.947        3.747        1.126      228.729       61.673        0.073      346.259       24.376      859.687
08/22/2013  20:42:00      -49.812      -45.483       20.119       85.188       71.730       40.202     7256.968     5145.178     1616.221        0.948        0.701       67.453       47.455        0.495      346.164       24.213      859.696
08/22/2013  20:43:00     -123.213      -50.309       13.782      105.994       82.903       52.610    11234.759     6872.863     2767.787        1.939        1.044      133.088       56.972        0.183      346.188       24.252      859.709
08/22/2013  20:44:00     -237.988      -63.343       -9.615      100.450       59.745       36.254    10090.280     3569.491     1314.368        3.786        0.749      246.273       46.878        0.036      346.198       24.269      859.719
08/22/2013  20:45:00     -164.289      -92.472       -3.432       94.958       76.649       47.014     9017.086     5875.013     2210.343        2.633        0.855      188.526       32.058        0.029      346.161       24.206      859.740
08/22/2013  20:46:00     -236.818     -109.210       -5.417      150.842       89.472       65.518    22753.460     8005.295     4292.630        5.154        1.753      260.786       68.608        0.069      346.165       24.213      859.748
08/22/2013  20:47:00     -283.190      -63.134      -14.572      202.335      115.367       63.002    40939.605    13309.619     3969.314        7.130        2.911      290.143       84.999        0.086      346.122       24.142      859.756
08/22/2013  20:48:00     -274.379     -113.040       -6.959      171.279      153.518       76.668    29336.484    23567.874     5878.017        7.344        2.939      296.752       91.151        0.094      346.139       24.167      859.766
08/22/2013  20:49:00     -272.873      -61.202        8.870      144.553      109.730       55.679    20895.601    12040.678     3100.179        5.715        1.802      279.653       63.744        0.052      346.076       24.059      859.782
08/22/2013  20:50:00     -226.713      -77.157        0.218       80.295       91.037       54.518     6447.242     8287.660     2972.193        3.753        0.885      239.483       46.850        0.038      346.113       24.123      859.804
08/22/2013  20:51:00     -219.994     -112.657      -11.085      108.502       84.984       50.243    11772.772     7222.287     2524.331        4.136        1.076      247.162       51.238        0.043      346.084       24.075      859.832
08/22/2013  20:52:00     -225.780      -45.534       -9.241      153.856       92.192       71.703    23671.596     8499.399     5141.348        4.522        1.866      230.326       82.723        0.129      346.054       24.024      859.837
08/22/2013  20:53:00     -302.343      -60.098      -17.195      133.084       91.260       59.171    17711.285     8328.342     3501.225        6.243        1.477      308.259       61.906        0.040      346.065       24.041      859.848
08/22/2013  20:54:00     -322.558     -127.545       -9.968      170.221      178.218       76.539    28975.211    31761.724     5858.288        9.349        3.330      346.859       89.904        0.067      346.060       24.034      859.842
08/22/2013  20:55:00     -205.877      -87.095       -3.272      137.761       88.814       67.537    18978.104     7888.013     4561.296        4.070        1.571      223.542       72.184        0.104      346.009       23.946      859.828
08/22/2013  20:56:00     -395.384      -78.437       -9.132      184.239      129.977       77.302    33944.004    16893.939     5975.550       10.968        2.841      403.089       78.119        0.038      346.022       23.968      859.813
08/22/2013  20:57:00     -307.394      -74.680       -5.229      179.242      152.182       75.296    32127.816    23159.308     5669.548        8.052        3.048      316.336       85.955        0.074      345.974       23.886      859.827
08/22/2013  20:58:00     -300.758      -89.359       -7.436      150.501      105.541       56.195    22650.558    11138.851     3157.848        6.772        1.847      313.752       71.214        0.052      345.944       23.835      859.860
08/22/2013  20:59:00     -211.954      -85.260        5.777      148.622      106.308       70.384    22088.470    11301.497     4953.908        4.528        1.917      228.459       80.239        0.123      345.942       23.830      859.894
08/22/2013  21:00:00     -187.364      -96.886        3.247      107.589       88.945       55.120    11575.407     7911.284     3038.160        3.351        1.126      210.932       51.535        0.060      345.931       23.812      859.908
08/22/2013  21:01:00     -291.163     -158.741       -4.434      128.638      147.264       63.646    16547.627    21686.777     4050.758        7.613        2.114      331.624       69.625        0.044      345.939       23.825      859.894
08/22/2013  21:02:00     -329.834      -33.969       -8.868      128.508       81.037       61.997    16514.207     6567.034     3843.610        6.847        1.346      331.579       68.671        0.043      345.874       23.714      859.887
08/22/2013  21:03:00     -323.406      -56.277      -23.662      153.073       91.903       64.171    23431.422     8446.115     4117.918        7.215        1.800      328.266       65.778        0.040      345.891       23.742      859.878
08/22/2013  21:04:00     -242.697      -48.435       -0.258      187.253       83.557       61.966    35063.861     6981.797     3839.736        5.356        2.294      247.483       85.622        0.120      345.864       23.697      859.907
08/22/2013  21:05:00     -293.042      -81.492       -3.398      101.500       99.242       59.488    10302.186     9849.065     3538.881        5.810        1.185      304.162       60.282        0.039      345.815       23.613      859.914
08/22/2013  21:06:00     -350.445     -123.055      -12.317      124.932      104.352       55.145    15607.961    10889.277     3040.947        8.382        1.477      371.422       56.347        0.023      345.797       23.582      859.916
08/22/2013  21:07:00     -277.189      -46.483      -15.537      103.098       86.491       52.407    10629.298     7480.657     2746.459        5.004        1.043      281.059       49.885        0.032      345.773       23.538      859.901
08/22/2013  21:08:00     -292.892      -77.808      -10.918      132.274      123.123       57.190    17496.416    15159.210     3270.714        6.394        1.796      303.050       65.771        0.047      345.768       23.531      859.897
08/22/2013  21:09:00     -235.609      -57.679       -8.639      129.907       97.922       52.616    16875.929     9588.798     2768.413        4.407        1.462      242.567       58.925        0.059      345.753       23.506      859.919
08/22/2013  21:10:00     -187.092     -131.128       -5.403       91.228       96.004       51.699     8322.579     9216.820     2672.770        3.622        1.011      228.468       47.999        0.044      345.774       23.542      859.934
08/22/2013  21:11:00     -155.171      -60.382        1.928      153.882       92.815       55.487    23679.562     8614.544     3078.822        3.154        1.769      166.505       69.665        0.175      345.707       23.429      859.935
08/22/2013  21:12:00     -261.090      -70.510       -9.753      112.943       93.198       53.248    12756.148     8685.935     2835.368        4.875        1.214      270.443       50.932        0.035      345.710       23.432      859.927
08/22/2013  21:13:00     -304.442      -45.525      -13.578       93.620       75.346       45.779     8764.731     5677.039     2095.715        5.574        0.827      307.827       46.977        0.023      345.677       23.375      859.917
08/22/2013  21:14:00     -212.041     -116.232       -3.160       93.203       75.592       55.042     8686.826     5714.077     3029.596        3.795        0.872      241.808       49.511        0.042      345.685       23.390      859.936
08/22/2013  21:15:00     -151.354      -96.928        3.318      102.965       67.195       42.623    10601.856     4515.138     1816.734        2.462        0.847      179.731       49.596        0.076      345.652       23.333      859.966
08/22/2013  21:16:00     -120.940      -33.872       11.899      106.726      106.594       52.728    11390.446    11362.203     2780.203        2.072        1.277      125.593       55.077        0.192      345.617       23.273      859.977
08/22/2013  21:17:00     -273.555      -77.880       -8.597      127.617      107.669       58.467    16286.023    11592.582     3418.444        5.613        1.565      284.425       59.431        0.044      345.679       23.378      859.981
08/22/2013  21:18:00     -220.628      -87.101      -10.658      106.045      115.630       54.109    11245.541    13370.217     2927.808        4.196        1.377      237.199       43.200        0.033      345.649       23.327      859.995
08/22/2013  21:19:00     -166.860      -17.987       -9.446       89.067       68.624       38.692     7933.013     4709.307     1497.102        2.119        0.707      167.827       32.755        0.038      345.612       23.266      860.032
08/22/2013  21:20:00     -199.213       -2.226      -14.518      106.708       65.667       40.395    11386.526     4312.140     1631.757        2.861        0.867      199.225       32.756        0.027      345.605       23.252      860.053
08/22/2013  21:21:00     -168.947      -31.349       -5.460      104.893      102.478       59.278    11002.644    10501.797     3513.928        2.728        1.251      171.830       60.721        0.125      345.572       23.195      860.053
08/22/2013  21:22:00     -277.919       -4.442      -15.179      172.724       94.918       58.809    29833.495     9009.416     3458.522        5.989        2.115      277.955       74.923        0.073      345.596       23.234      860.064
08/22/2013  21:23:00      -34.592      -73.111        3.313       88.636       55.466       39.989     7856.270     3076.514     1599.103        0.954        0.627       80.881       35.185        0.189      345.578       23.209      860.074
08/22/2013  21:24:00      -64.752      -41.060        4.492       70.831       73.187       37.482     5017.091     5356.298     1404.916        0.884        0.589       76.673       34.027        0.197      345.573       23.197      860.074
08/22/2013  21:25:00     -227.961      -85.456       -3.061      131.831       88.224       42.221    17379.309     7783.543     1782.632        4.311        1.347      243.452       31.714        0.017      345.567       23.188      860.104
08/22/2013  21:26:00     -219.740      -93.462       -0.568      135.614      115.395       62.175    18391.279    13316.097     3865.729        4.629        1.779      238.790       60.146        0.063      345.609       23.259      860.123
08/22/2013  21:27:00     -104.917      -55.791        1.148      122.706       73.716       65.686    15056.690     5433.977     4314.638        1.946        1.240      118.828       66.608        0.314      345.532       23.129      860.129
08/22/2013  21:28:00     -215.458      -41.397       -8.310       69.706       98.079       42.360     4858.988     9619.459     1794.367        3.224        0.814      219.399       36.998        0.028      345.625       23.285      860.146
08/22/2013  21:29:00     -184.988      -32.974       -1.472       93.409       96.051       51.674     8725.334     9225.797     2670.247        2.796        1.031      187.903       53.116        0.080      345.551       23.158      860.160
08/22/2013  21:30:00     -201.459     -129.838      -11.691       86.507       78.898       50.076     7483.417     6224.824     2507.614        3.690        0.811      239.674       42.507        0.031      345.568       23.189      860.198
08/22/2013  21:31:00     -126.612      -29.815       11.260       96.049       76.046       37.509     9225.462     5782.990     1406.914        1.673        0.821      130.075       42.768        0.108      345.530       23.124      860.215
08/22/2013  21:32:00     -218.470      -67.739      -13.105       97.960      130.925       53.076     9596.248    17141.343     2817.092        4.102        1.478      228.731       56.791        0.062      345.559       23.173      860.213
08/22/2013  21:33:00     -147.930      -47.423       -0.807       86.921       87.374       38.680     7555.191     7634.196     1496.113        2.041        0.834      155.346       46.554        0.090      345.502       23.076      860.207
08/22/2013  21:34:00     -122.262      -36.176       -0.302      117.911       92.516       49.482    13903.099     8559.237     2448.475        2.058        1.246      127.502       58.560        0.211      345.503       23.078      860.230
08/22/2013  21:35:00      -78.242      -23.370       13.688       94.009       68.164       37.764     8837.706     4646.313     1426.115        1.088        0.746       81.657       45.001        0.304      345.417       22.931      860.260
08/22/2013  21:36:00      -94.726      -34.899        0.231       61.797       39.679       26.697     3818.898     1574.435      712.738        0.815        0.305      100.951       29.548        0.086      345.482       23.044      860.280
08/22/2013  21:37:00      -70.956      -10.298        5.300       57.603       50.043       33.763     3318.105     2504.273     1139.950        0.606        0.348       71.700       35.834        0.250      345.417       22.930      860.308
08/22/2013  21:38:00     -134.351      -35.338        6.734       89.439       69.122       40.732     7999.375     4777.836     1659.066        1.689        0.722      138.920       47.245        0.116      345.437       22.966      860.301
08/22/2013  21:39:00     -110.018      -55.520       -5.668       61.261       66.110       28.905     3752.863     4370.525      835.484        1.209        0.448      123.233       23.788        0.037      345.493       23.061      860.286
08/22/2013  21:40:00      -33.841      -44.779        7.534       58.402       30.351       26.096     3410.773      921.177      680.977        0.411        0.251       56.128       30.156        0.289      345.362       22.837      860.294
08/22/2013  21:41:00      -11.474      -84.368        9.693       29.044       34.444       20.295      843.533     1186.384      411.875        0.489        0.122       85.144       15.107        0.031      345.394       22.892      860.304
08/22/2013  21:42:00      -28.802      -92.744       -2.307       37.414       48.271       26.625     1399.782     2330.071      708.875        0.694        0.222       97.114       22.941        0.056      345.366       22.845      860.308
08/22/2013  21:43:00      -25.952      -65.942        0.093       20.568       21.588       21.050      423.043      466.044      443.114        0.318        0.067       70.865       11.829        0.028      345.354       22.825      860.316
08/22/2013  21:44:00       -0.793      -73.169        2.314       36.329       36.733       23.872     1319.803     1349.329      569.861        0.430        0.162       73.174       17.132        0.055      345.290       22.715      860.325
08/22/2013  21:45:00        7.664      -30.018       21.623       30.571       42.170       20.850      934.590     1778.340      434.706        0.229        0.157       30.981       19.600        0.400      344.958       22.148      860.315
08/22/2013  21:46:00      -31.523      -35.791       13.038       27.999       26.676       15.125      783.919      711.618      228.760        0.208        0.086       47.694       15.053        0.100      345.124       22.430      860.317
08/22/2013  21:47:00      -17.370      -55.570       10.105       43.473       57.509       27.461     1889.912     3307.246      754.109        0.472        0.298       58.221       23.147        0.158      345.061       22.323      860.314
08/22/2013  21:48:00       -6.598      -96.112        6.206       37.839       64.543       24.353     1431.757     4165.803      593.087        0.775        0.310       96.339       28.511        0.088      345.123       22.430      860.335
08/22/2013  21:49:00      -75.769      -71.676       -2.270       87.633       51.483       38.158     7679.606     2650.517     1456.045        1.133        0.589      104.300       35.102        0.113      345.155       22.484      860.363
08/22/2013  21:50:00      -85.773      -87.822       -0.589       43.062       49.312       28.765     1854.317     2431.697      827.397        1.009        0.256      122.759       24.590        0.040      345.142       22.462      860.390
08/22/2013  21:51:00      -88.684      -97.192        4.692       67.775       63.531       39.240     4593.502     4036.239     1539.754        1.375        0.508      131.571       34.200        0.068      345.243       22.633      860.376
08/22/2013  21:52:00      -79.946     -136.165       -3.795       31.879       52.041       19.966     1016.286     2708.258      398.649        1.453        0.206      157.900       13.998        0.008      345.458       23.001      860.353
08/22/2013  21:53:00      -36.139     -175.672       11.193       44.447       57.551       33.180     1975.569     3312.142     1100.918        1.934        0.319      179.350       20.565        0.013      345.346       22.810      860.360
08/22/2013  21:54:00       -0.424     -117.614        6.497       38.618      105.291       34.747     1491.371    11086.117     1207.351        1.383        0.689      117.615       36.738        0.098      345.300       22.731      860.347
08/22/2013  21:55:00       30.048      -77.033       15.942       47.490       79.161       37.842     2255.303     6266.423     1432.038        0.852        0.498       82.686       30.510        0.136      345.190       22.544      860.353
08/22/2013  21:56:00      -95.097     -166.884      -11.875       56.096       37.081       27.266     3146.795     1374.971      743.409        2.115        0.263      192.078       28.004        0.021      345.377       22.863      860.384
08/22/2013  21:57:00     -143.755      -85.205        0.140       72.160       61.413       33.619     5207.129     3771.558     1130.239        1.902        0.505      167.109       26.458        0.025      345.256       22.655      860.409
08/22/2013  21:58:00     -128.175      -59.720        7.648      104.551       86.181       41.006    10930.851     7427.218     1681.503        2.004        1.002      141.405       51.269        0.131      345.265       22.670      860.418
08/22/2013  21:59:00      -55.023       55.781       -8.415       38.324       52.938       29.610     1468.735     2802.483      876.742        0.568        0.257       78.352       24.914        0.101      345.371       22.852      860.385
08/22/2013  22:00:00        5.679       77.521       -0.084       33.727       47.868       30.772     1137.527     2291.314      946.916        0.521        0.219       77.729       25.147        0.105      345.346       22.811      860.341
08/22/2013  22:01:00      -53.119       27.595      -10.120       40.907       37.928       24.540     1673.364     1438.534      602.217        0.370        0.186       59.859       13.517        0.051      345.340       22.800      860.356
08/22/2013  22:02:00       42.733      -98.510       -1.142       36.638       48.028       27.072     1342.339     2306.664      732.906        0.796        0.219      107.380       23.910        0.050      345.183       22.532      860.402
08/22/2013  22:03:00      -47.400     -100.211        6.783       77.299       84.656       28.137     5975.176     7166.679      791.710        1.313        0.697      110.856       38.158        0.118      345.174       22.516      860.421
08/22/2013  22:04:00     -153.359     -116.534       -2.594       67.143       53.772       32.547     4508.171     2891.446     1059.314        2.278        0.423      192.612       30.755        0.025      345.212       22.581      860.420
08/22/2013  22:05:00      -27.573     -135.728        4.000       63.157       54.052       28.131     3988.803     2921.634      791.357        1.345        0.385      138.501       27.545        0.040      345.255       22.653      860.428
08/22/2013  22:06:00      -44.439      -79.636       -0.135       52.682       73.737       27.722     2775.414     5437.082      768.528        0.865        0.449       91.196       38.707        0.180      345.131       22.441      860.441
08/22/2013  22:07:00      -55.032      -70.663       -1.548       35.673       39.671       18.510     1272.558     1573.749      342.607        0.561        0.159       89.564       10.066        0.013      345.202       22.563      860.434
08/22/2013  22:08:00     -113.726      -40.773       -4.521       61.748       43.244       27.089     3812.836     1870.028      733.803        1.052        0.321      120.814       34.685        0.082      345.207       22.571      860.429
08/22/2013  22:09:00      -42.706      -24.670       14.049       46.872       44.076       24.326     2196.973     1942.655      591.741        0.368        0.237       49.319       24.628        0.249      345.013       22.242      860.407
08/22/2013  22:10:00      -59.139      -44.457        9.712       75.825       53.911       38.754     5749.502     2906.401     1501.895        0.786        0.508       73.986       34.893        0.222      345.041       22.290      860.425
08/22/2013  22:11:00      -96.662      -49.712       -2.972       44.322       50.104       25.641     1964.462     2510.371      657.468        0.848        0.257      108.696       22.981        0.045      345.109       22.405      860.422
08/22/2013  22:12:00     -250.158      -82.158      -11.732       88.171       66.721       38.137     7774.054     4451.685     1454.401        4.157        0.684      263.304       38.505        0.021      345.164       22.497      860.418
08/22/2013  22:13:00      -95.349      -81.999       19.901      102.681       64.506       43.629    10543.288     4160.984     1903.459        1.641        0.830      125.759       44.242        0.124      345.021       22.254      860.424
08/22/2013  22:14:00     -131.940     -135.395      -12.481       74.616       66.730       38.929     5567.576     4452.937     1515.502        2.371        0.577      189.050       41.948        0.049      344.986       22.191      860.416
08/22/2013  22:15:00     -121.704     -117.471        1.642       59.928       55.966       38.092     3591.326     3132.179     1450.988        1.839        0.409      169.149       37.971        0.050      345.023       22.257      860.383
08/22/2013  22:16:00     -201.133     -121.565       -1.673       78.348       82.424       41.328     6138.440     6793.770     1708.042        3.494        0.732      235.016       42.499        0.033      344.986       22.189      860.376
08/22/2013  22:17:00     -238.453      -82.791       -5.392      122.597       91.867       48.749    15029.996     8439.504     2376.448        4.479        1.292      252.417       68.479        0.074      345.102       22.389      860.395
08/22/2013  22:18:00      -84.521      -91.867       23.627       79.945       87.647       51.267     6391.219     7682.014     2628.347        1.642        0.835      124.833       50.594        0.164      344.987       22.195      860.403
08/22/2013  22:19:00     -139.868      -49.486       -1.460       82.824       81.088       40.644     6859.752     6575.313     1651.968        1.855        0.754      148.364       44.799        0.091      344.984       22.190      860.381
08/22/2013  22:20:00     -199.838      -53.851       -5.639       75.178       53.592       35.831     5651.800     2872.095     1283.856        2.634        0.490      206.966       38.715        0.035      345.167       22.500      860.367
08/22/2013  22:21:00     -106.697      -95.629       -0.723       75.558       64.302       47.238     5708.994     4134.741     2231.469        1.630        0.604      143.280       45.682        0.102      345.011       22.234      860.401
08/22/2013  22:22:00     -133.814     -112.561       -3.846       81.497       65.519       39.709     6641.710     4292.747     1576.844        2.155        0.626      174.860       43.274        0.061      344.929       22.094      860.408
08/22/2013  22:23:00     -158.736     -106.456        4.003       78.205       71.699       42.301     6115.976     5140.747     1789.349        2.479        0.652      191.128       29.137        0.023      344.964       22.155      860.394
08/22/2013  22:24:00     -155.949     -129.076       13.713      105.769       88.474       54.876    11187.169     7827.701     3011.399        3.159        1.101      202.436       63.858        0.100      344.975       22.173      860.388
08/22/2013  22:25:00     -177.990     -148.286      -12.167       78.619       59.690       32.109     6180.922     3562.840     1031.006        3.229        0.539      231.666       33.742        0.021      345.021       22.250      860.396
08/22/2013  22:26:00     -114.224     -184.181        3.096       94.221       85.886       56.318     8877.532     7376.451     3171.771        3.320        0.971      216.725       51.504        0.056      345.052       22.305      860.397
08/22/2013  22:27:00     -151.147     -128.449        6.381       93.485       81.056       42.727     8739.470     6570.098     1825.627        2.826        0.857      198.355       46.387        0.055      345.001       22.218      860.421
08/22/2013  22:28:00     -183.506      -12.143       -1.703       87.133      114.306       51.110     7592.207    13065.972     2612.217        2.854        1.164      183.908       52.790        0.082      344.957       22.141      860.427
08/22/2013  22:29:00      -67.223      -40.553       -2.267       74.967       71.558       36.063     5620.064     5120.503     1300.525        0.910        0.602       78.507       32.326        0.170      344.910       22.063      860.430
08/22/2013  22:30:00     -149.484      -25.303        3.443       89.391       79.611       42.026     7990.797     6337.868     1766.170        1.954        0.805      151.610       47.719        0.099      344.954       22.138      860.436
08/22/2013  22:31:00     -139.231      -52.386       16.319      112.895       78.207       47.844    12745.272     6116.352     2289.072        2.177        1.058      148.760       56.762        0.146      345.000       22.217      860.440
08/22/2013  22:32:00     -122.635      -26.049        4.535       63.615       40.208       28.006     4046.827     1616.645      784.340        1.109        0.322      125.371       32.620        0.068      344.906       22.058      860.464
08/22/2013  22:33:00     -132.931      -81.185        1.473       68.501       43.425       30.783     4692.321     1885.689      947.605        1.589        0.376      155.761       33.285        0.046      345.063       22.327      860.524
08/22/2013  22:34:00     -166.860      -57.772      -14.605       77.853       42.658       25.538     6061.095     1819.670      652.191        1.996        0.427      176.578       15.512        0.008      345.079       22.351      860.524
08/22/2013  22:35:00      -70.626      -40.678       -1.051       42.547       37.502       24.023     1810.263     1406.434      577.114        0.522        0.190       81.503       23.125        0.080      345.059       22.320      860.499
08/22/2013  22:36:00      -76.956     -120.671       -2.423      101.934       79.055       48.156    10390.617     6249.723     2318.960        1.972        0.948      143.121       44.500        0.097      345.115       22.414      860.492
08/22/2013  22:37:00      -85.631      -94.369       -3.236       52.660       45.069       28.480     2773.114     2031.234      811.109        1.093        0.281      127.429       28.600        0.050      345.082       22.360      860.511
08/22/2013  22:38:00      -10.018      -95.418      -15.760       40.494       35.710       32.333     1639.749     1275.191     1045.423        0.671        0.198       95.942       24.948        0.068      344.777       21.836      860.546
08/22/2013  22:39:00       -4.603      -35.389        9.111       26.785       28.649       30.930      717.454      820.741      956.671        0.193        0.125       35.688       16.833        0.222      344.653       21.625      860.557
08/22/2013  22:40:00      -27.386      -18.399       -0.837       23.662       24.885       19.591      559.890      619.286      383.821        0.133        0.078       32.993       14.406        0.191      344.744       21.780      860.573
08/22/2013  22:41:00       -9.164      -37.051        4.378       20.451       32.151       23.471      418.258     1033.710      550.897        0.174        0.100       38.168       24.648        0.417      344.667       21.649      860.570
08/22/2013  22:42:00       19.331      -36.130       11.724       28.948       34.910       19.930      838.003     1218.713      397.197        0.213        0.123       40.977       18.770        0.210      344.500       21.364      860.567
08/22/2013  22:43:00      -19.165      -26.741       -5.443       32.472       31.979       16.802     1054.411     1022.685      282.302        0.174        0.118       32.900       13.608        0.171      344.622       21.571      860.574
08/22/2013  22:44:00      -23.099      -17.815       12.920       22.130       24.475       20.136      489.742      599.025      405.473        0.126        0.075       29.171       11.648        0.159      344.535       21.424      860.588
08/22/2013  22:45:00      -32.927      -83.811       -2.255       22.473       46.719       13.492      505.037     2182.619      182.031        0.549        0.143       90.047       10.265        0.013      344.568       21.481      860.590
08/22/2013  22:46:00      -23.974      -21.940       10.842       25.274       57.356       21.910      638.794     3289.763      480.059        0.279        0.220       32.498       19.879        0.374      344.613       21.555      860.590
08/22/2013  22:47:00       -5.011        5.081        9.485       12.215       16.989       11.868      149.203      288.643      140.853        0.036        0.029        7.136        5.722        0.643      344.434       21.250      860.590
08/22/2013  22:48:00      -41.382       -7.659        8.426       48.311       32.835       24.688     2333.928     1078.113      609.476        0.293        0.201       42.085       25.498        0.367      344.459       21.292      860.608
08/22/2013  22:49:00     -100.392      -80.221      -12.862       50.889       35.057       19.854     2589.703     1228.970      394.171        1.045        0.211      128.507        8.947        0.005      344.541       21.434      860.626
08/22/2013  22:50:00      -41.540      -25.684        7.540       37.813       55.288       28.334     1429.855     3056.776      802.836        0.386        0.264       48.839       29.063        0.354      344.437       21.254      860.614
08/22/2013  22:51:00      -42.091      -36.135        6.243       44.221       64.286       30.366     1955.479     4132.668      922.107        0.506        0.351       55.474       20.355        0.135      344.447       21.273      860.601
08/22/2013  22:52:00      -81.915      -77.289       -4.938       49.761       40.173       26.838     2476.191     1613.888      720.288        0.876        0.241      112.622       20.548        0.033      344.436       21.255      860.598
08/22/2013  22:53:00      -61.635      -66.482        4.243       47.171       59.219       32.832     2225.140     3506.923     1077.916        0.752        0.340       90.657       26.596        0.086      344.462       21.297      860.603
08/22/2013  22:54:00      -89.758      -72.994       -6.744       60.374       64.956       33.662     3644.963     4219.312     1133.136        1.121        0.450      115.692       20.575        0.032      344.449       21.274      860.626
08/22/2013  22:55:00      -84.199      -93.386        7.493       48.174       63.312       23.400     2320.766     4008.424      547.579        1.137        0.344      125.739       18.249        0.021      344.446       21.269      860.646
08/22/2013  22:56:00      -25.815       -5.216        3.238       37.443       24.190       24.929     1401.984      585.136      621.461        0.166        0.130       26.336       10.887        0.171      344.374       21.148      860.639
08/22/2013  22:57:00      -22.051      -42.063       11.628       36.322       52.697       22.789     1319.320     2776.960      519.321        0.350        0.231       47.493       32.177        0.459      344.282       20.992      860.649
08/22/2013  22:58:00        2.523      -27.710       19.759       18.084       31.551       19.262      327.029      995.484      371.032        0.143        0.085       27.825       13.931        0.251      344.245       20.928      860.624
08/22/2013  22:59:00       27.889      -10.367       16.314       28.248       31.520       19.350      797.958      993.527      374.428        0.166        0.108       29.754       13.040        0.192      343.578       19.787      860.600
08/22/2013  23:00:00        2.103      -56.940        9.189       16.157       22.896       16.616      261.056      524.225      276.106        0.220        0.053       56.979        8.719        0.023      344.143       20.753      860.606
08/22/2013  23:01:00      -23.552      -51.051        3.038       20.128       25.948       17.621      405.132      673.294      310.512        0.228        0.069       56.222       18.385        0.107      344.337       21.083      860.645
08/22/2013  23:02:00      -22.613      -63.167        3.258       23.784       21.934       10.818      565.676      481.115      117.019        0.284        0.058       67.093        9.120        0.018      344.431       21.244      860.682
08/22/2013  23:03:00       19.318      -17.708       19.451       25.071       25.153       19.381      628.554      632.650      375.622        0.135        0.082       26.206       15.678        0.358      343.980       20.474      860.695
08/22/2013  23:04:00       -8.074      -57.471        3.437       25.313       31.672       23.357      640.742     1003.114      545.556        0.278        0.109       58.036       11.654        0.040      344.208       20.864      860.702
08/22/2013  23:05:00      -12.268      -28.380       26.930       30.928       35.213       26.058      956.523     1239.934      679.042        0.228        0.144       30.918       22.925        0.550      344.186       20.826      860.702
08/22/2013  23:06:00      -12.723        8.447       47.097       20.625       46.385       21.143      425.376     2151.603      447.011        0.274        0.151       15.272       22.531        2.177      343.895       20.328      860.697
08/22/2013  23:07:00        2.876      -25.930       16.117       20.449       34.568       18.260      418.161     1194.938      333.420        0.144        0.097       26.089       16.892        0.419      344.008       20.522      860.692
08/22/2013  23:08:00       22.672        1.547       21.477       32.597       24.519       22.472     1062.581      601.168      504.993        0.157        0.108       22.725       18.896        0.691      343.507       19.667      860.682
08/22/2013  23:09:00        4.273       -8.542       17.169       19.016       45.262       24.500      361.591     2048.628      600.245        0.170        0.151        9.551       26.323        7.596      343.430       19.535      860.698
08/22/2013  23:10:00        9.977       -2.701       23.107       24.176       38.921       28.542      584.503     1514.860      814.655        0.178        0.146       10.336       25.259        5.972      343.386       19.460      860.703
08/22/2013  23:11:00       13.169      -18.174       13.135       28.278       26.254       22.072      799.661      689.266      487.192        0.133        0.099       22.444       16.153        0.518      343.159       19.074      860.702
08/22/2013  23:12:00        1.514      -14.643        4.873       24.771       24.865       18.381      613.602      618.250      337.860        0.090        0.078       14.721       15.026        1.042      343.546       19.735      860.728
08/22/2013  23:13:00      -31.239      -24.662        3.412       42.119       33.526       16.838     1774.017     1124.000      283.512        0.239        0.159       39.800       22.546        0.321      343.871       20.288      860.744
08/22/2013  23:14:00       -2.436      -17.967       17.656       34.038       34.319       19.561     1158.592     1177.785      382.621        0.168        0.136       18.131       10.794        0.354      343.918       20.369      860.735
08/22/2013  23:15:00      -11.739      -23.005       13.475       20.814       37.989       19.484      433.219     1443.174      379.630        0.155        0.113       25.827       20.049        0.603      344.142       20.752      860.738
08/22/2013  23:16:00      -24.263      -10.555       -1.216       31.908       21.520       16.556     1018.148      463.102      274.108        0.123        0.088       26.459       11.209        0.179      344.322       21.057      860.743
08/22/2013  23:17:00        7.064      -39.361      -17.581       33.688       18.894       23.121     1134.902      356.986      534.595        0.197        0.101       39.990       13.053        0.107      344.632       21.589      860.733
08/22/2013  23:18:00      -63.959       -9.867       -2.383       43.443       29.879       16.616     1887.275      892.743      276.103        0.362        0.153       64.715       12.211        0.036      344.104       20.686      860.737
08/22/2013  23:19:00     -111.384      -38.152       -1.055       31.451       26.431       15.641      989.170      698.572      244.650        0.790        0.097      117.737       14.449        0.015      344.023       20.547      860.737
08/22/2013  23:20:00     -102.839      -21.892       -3.725       23.192       16.460       15.105      537.860      270.939      228.149        0.605        0.052      105.143       14.991        0.020      344.177       20.810      860.732
08/22/2013  23:21:00     -109.017      -45.535       -3.894       54.201       45.225       25.205     2937.776     2045.282      635.314        0.979        0.281      118.144       25.148        0.045      344.210       20.868      860.726
08/22/2013  23:22:00     -126.023      -53.051       -3.967       36.712       28.895       19.168     1347.757      834.902      367.400        1.063        0.128      136.734       15.775        0.013      344.218       20.881      860.742
08/22/2013  23:23:00     -112.714      -51.862        7.831       53.269       43.177       24.719     2837.624     1864.237      611.028        1.038        0.266      124.073       26.060        0.044      344.063       20.617      860.741
08/22/2013  23:24:00      -24.448      -37.524       16.616       70.962       37.482       27.483     5035.667     1404.887      755.291        0.474        0.360       44.786       28.192        0.396      343.835       20.227      860.733
08/22/2013  23:25:00      -48.633      -12.725        3.147       89.724       44.400       24.229     8050.391     1971.339      587.063        0.657        0.530       50.270       26.908        0.287      343.926       20.383      860.732
08/22/2013  23:26:00      -78.191      -31.684       -2.234       57.395       32.014       23.232     3294.150     1024.884      539.704        0.599        0.243       84.367       26.611        0.099      344.040       20.577      860.743
08/22/2013  23:27:00      -79.696      -21.684       -2.851       27.947       23.378       12.526      781.014      546.538      156.912        0.416        0.074       82.593       12.638        0.023      344.049       20.592      860.737
08/22/2013  23:28:00      -73.540      -10.964       -2.906       24.764       22.391       11.742      613.246      501.341      137.878        0.339        0.063       74.353       11.634        0.024      343.962       20.444      860.745
08/22/2013  23:29:00     -108.146       17.488       -7.604       20.680       17.873       10.459      427.675      319.440      109.386        0.646        0.043      109.551        8.797        0.006      344.015       20.534      860.745
08/22/2013  23:30:00      -73.102       93.008       -6.753       29.170       40.959       27.690      850.915     1677.662      766.725        0.867        0.165      118.298       23.399        0.039      343.838       20.232      860.737
08/22/2013  23:31:00      -84.889       70.626      -13.073       38.102       59.997       24.631     1451.778     3599.631      606.673        0.901        0.283      110.427       23.770        0.046      343.883       20.308      860.732
08/22/2013  23:32:00      -84.083      -34.990       -6.266       26.196       17.176       13.739      686.209      295.027      188.752        0.475        0.058       91.073        8.393        0.008      343.865       20.277      860.747
08/22/2013  23:33:00       -7.335      -12.252       -0.989       19.152       23.638       11.850      366.788      558.749      140.425        0.064        0.053       14.280       12.950        0.822      343.763       20.101      860.737
08/22/2013  23:34:00      -84.222        4.305       -3.441       45.527       16.639       11.321     2072.738      276.850      128.164        0.480        0.124       84.332       13.386        0.025      343.903       20.343      860.732
08/22/2013  23:35:00     -105.022       35.609      -17.277       20.596       29.177       15.800      424.208      851.284      249.649        0.706        0.076      110.895       10.962        0.010      344.123       20.719      860.752
08/22/2013  23:36:00     -111.084       20.249      -10.827       31.519       24.227       14.097      993.465      586.961      198.729        0.732        0.089      112.915       14.804        0.017      344.086       20.654      860.763
08/22/2013  23:37:00      -86.362      -17.070       -5.243       20.471       26.303       14.849      419.060      691.850      220.505        0.455        0.067       88.033       13.301        0.023      344.038       20.574      860.759
08/22/2013  23:38:00     -115.910      -25.854       -0.491       26.787       24.342       14.395      717.546      592.525      207.210        0.781        0.076      118.759        8.724        0.005      344.052       20.597      860.762
08/22/2013  23:39:00     -123.990       -7.891      -13.313       36.197       31.216       19.247     1310.224      974.435      370.463        0.913        0.133      124.240       16.508        0.018      344.013       20.531      860.782
08/22/2013  23:40:00     -147.215      -23.663       -8.409       61.633       40.066       26.385     3798.678     1605.291      696.175        1.420        0.305      149.105       33.459        0.050      344.071       20.629      860.798
08/22/2013  23:41:00     -106.699       27.381      -11.608       43.192       35.491       23.226     1865.580     1259.637      539.460        0.797        0.183      110.156       14.082        0.016      344.184       20.822      860.804
08/22/2013  23:42:00      -89.380       44.542      -16.753       22.651       24.134       21.115      513.070      582.461      445.862        0.590        0.077       99.863       11.574        0.013      344.215       20.874      860.814
08/22/2013  23:43:00      -69.641        7.872      -10.811       21.375       17.616       10.912      456.902      310.309      119.077        0.296        0.044       70.085        8.201        0.014      344.221       20.885      860.821
08/22/2013  23:44:00      -59.492       12.353       -7.057       22.340       19.389       15.356      499.057      375.916      235.819        0.243        0.056       60.761       13.071        0.046      344.216       20.877      860.806
08/22/2013  23:45:00      -15.874       26.674        5.036       15.272       21.045       12.042      233.248      442.871      144.999        0.090        0.041       31.040       10.907        0.123      344.059       20.610      860.789
08/22/2013  23:46:00      -61.419       46.204       -5.049       25.304       31.076       24.899      640.268      965.731      619.959        0.408        0.111       76.857       19.265        0.063      344.150       20.763      860.791
08/22/2013  23:47:00      -87.334      134.995      -19.877       34.444       34.390       23.147     1186.416     1182.686      535.784        1.458        0.145      160.783       20.792        0.017      344.148       20.761      860.780
08/22/2013  23:48:00      -72.322       73.263      -11.412       43.304       43.796       25.347     1875.204     1918.081      642.465        0.758        0.222      102.946       24.386        0.056      344.038       20.574      860.789
08/22/2013  23:49:00       -3.863      105.646        6.683       55.360       70.945       43.814     3064.711     5033.249     1919.669        1.062        0.501      105.717       41.129        0.151      344.053       20.599      860.783
08/22/2013  23:50:00      -91.030       65.927      -15.555       67.958       95.601       35.262     4618.313     9139.517     1243.401        1.394        0.750      112.396       33.755        0.090      344.169       20.796      860.791
08/22/2013  23:51:00     -130.413       90.079      -26.228       45.766       89.336       24.227     2094.492     7980.996      586.950        1.823        0.533      158.498       20.193        0.016      344.300       21.019      860.806
08/22/2013  23:52:00      -55.555       76.726      -15.457       41.326       39.479       32.314     1707.798     1558.578     1044.175        0.676        0.216       94.727       19.663        0.043      344.225       20.893      860.823
08/22/2013  23:53:00      -54.614       28.264       -1.123       44.454       38.080       28.944     1976.163     1450.092      837.757        0.402        0.213       61.494       27.683        0.203      344.221       20.886      860.833
08/22/2013  23:54:00      -59.367       83.249        3.013       83.883       58.438       45.644     7036.369     3414.987     2083.386        1.150        0.627      102.250       48.702        0.227      344.200       20.850      860.836
08/22/2013  23:55:00      -78.714       83.573       -6.802       72.700       56.799       42.482     5285.273     3226.098     1804.711        1.177        0.516      114.806       34.157        0.089      344.168       20.795      860.846
08/22/2013  23:56:00      -73.837       75.215      -13.092       44.099       39.408       25.651     1944.750     1553.010      657.953        0.772        0.208      105.400       17.954        0.029      344.188       20.829      860.848
08/22/2013  23:57:00      -84.317        6.018       -4.186       31.559       43.915       16.233      995.941     1928.555      263.496        0.518        0.159       84.532       17.208        0.041      344.101       20.682      860.861
08/22/2013  23:58:00       -4.474       12.929        1.702       39.601       33.550       32.877     1568.239     1125.624     1080.919        0.198        0.189       13.681       14.642        1.145      344.066       20.622      860.867
08/22/2013  23:59:00     -128.096        5.916      -15.264       50.812       37.420       18.322     2581.885     1400.219      335.689        1.050        0.216      128.233       11.191        0.008      344.061       20.611      860.851
